[[{"header":{"parameterUnit":"m.s-1","parameterCategory":1,"la1":30.6,"la2":29.2853,"lo1":-89.7004,"lo2":-87.6739,"dy":0.0162,"dx":0.0183,"nx":112,"ny":82,"refTime":"2025-02-26T06:00:00:Z","depth":0,"parameterNumber":2,"parameterNumberName":"U-component_of_WINDS"},"data":[0.0,0.0,0.0,0.0,0.0,0.0,0.0,0.0,0.0,0.0,0.0,0.0,0.0,0.0,0.0,0.0,0.0,0.0,0.0,0.0,0.0,0.0,0.0,0.0,0.0,0.0,0.0,0.0,0.0,0.0,0.0,0.0,0.0,0.0,0.0,0.0,0.0,0.0,0.0,0.0,0.0,0.0,0.0,0.0,0.0,0.0,0.0,0.0,0.0,0.0,0.0,0.0,0.0,0.0,0.0,0.0,0.0,0.0,0.0,0.0,0.0,0.0,0.0,0.0,0.0,0.0,0.0,0.0,0.0,0.0,0.0,0.0,0.0,0.0,0.0,0.0,0.0,0.0,0.0,0.0,0.0,0.0,0.0,0.0,0.0,0.0,0.0,0.0,0.0,0.0,-3.1001,-3.3066,-3.528,-3.6836,-3.7375,-3.6148,-3.3694,-2.9861,0.0,0.0,0.0,0.0,0.0,0.0,0.0,0.0,0.0,0.0,0.0,0.0,0.0,0.0,0.0,0.0,0.0,0.0,0.0,0.0,0.0,0.0,0.0,0.0,0.0,0.0,0.0,0.0,0.0,0.0,0.0,0.0,0.0,0.0,0.0,0.0,0.0,0.0,0.0,0.0,0.0,0.0,0.0,0.0,0.0,0.0,0.0,0.0,0.0,0.0,0.0,0.0,0.0,0.0,0.0,0.0,0.0,0.0,0.0,0.0,0.0,0.0,0.0,0.0,0.0,0.0,0.0,0.0,0.0,0.0,0.0,0.0,0.0,0.0,0.0,0.0,0.0,0.0,0.0,0.0,0.0,0.0,0.0,0.0,0.0,0.0,0.0,0.0,0.0,0.0,0.0,0.0,0.0,0.0,0.0,0.0,0.0,0.0,0.0,0.0,0.0,0.0,0.0,0.0,-3.0881,-3.6118,-3.7015,-3.7315,-3.7404,-3.5699,-3.3216,-2.9831,0.0,0.0,0.0,0.0,0.0,0.0,0.0,0.0,0.0,0.0,0.0,0.0,0.0,0.0,0.0,0.0,0.0,0.0,0.0,0.0,0.0,0.0,0.0,0.0,0.0,0.0,0.0,0.0,0.0,0.0,0.0,0.0,0.0,0.0,0.0,0.0,0.0,0.0,0.0,0.0,0.0,0.0,0.0,0.0,0.0,0.0,0.0,0.0,0.0,0.0,0.0,0.0,0.0,0.0,0.0,0.0,0.0,0.0,0.0,0.0,0.0,0.0,0.0,0.0,0.0,0.0,0.0,0.0,0.0,0.0,0.0,0.0,0.0,0.0,0.0,0.0,0.0,0.0,0.0,0.0,0.0,0.0,0.0,0.0,0.0,0.0,0.0,0.0,0.0,0.0,0.0,0.0,0.0,0.0,0.0,0.0,0.0,0.0,0.0,0.0,0.0,0.0,0.0,-3.0359,-3.2433,-3.6922,-3.7404,-3.7285,-3.6926,-3.5759,-3.3332,-2.9306,-2.7886,0.0,0.0,0.0,0.0,0.0,0.0,0.0,0.0,0.0,0.0,0.0,0.0,0.0,0.0,0.0,0.0,0.0,0.0,0.0,0.0,0.0,0.0,0.0,0.0,0.0,0.0,0.0,0.0,0.0,0.0,0.0,0.0,0.0,0.0,0.0,0.0,0.0,0.0,0.0,0.0,0.0,0.0,0.0,0.0,0.0,0.0,0.0,0.0,0.0,0.0,0.0,0.0,0.0,0.0,0.0,0.0,0.0,0.0,0.0,0.0,0.0,0.0,0.0,0.0,0.0,0.0,0.0,0.0,0.0,0.0,0.0,0.0,0.0,0.0,0.0,0.0,0.0,0.0,0.0,0.0,0.0,0.0,0.0,0.0,0.0,0.0,0.0,0.0,0.0,0.0,0.0,0.0,0.0,0.0,0.0,0.0,0.0,0.0,0.0,0.0,0.0,0.0,-3.2847,-3.418,-3.6447,-3.6687,-3.6452,-3.5869,-3.4728,-3.239,-2.8484,-2.6531,0.0,0.0,0.0,0.0,0.0,0.0,0.0,0.0,0.0,0.0,0.0,0.0,0.0,0.0,0.0,0.0,0.0,0.0,0.0,0.0,0.0,0.0,0.0,0.0,0.0,0.0,0.0,0.0,0.0,0.0,0.0,0.0,0.0,0.0,0.0,0.0,0.0,0.0,0.0,0.0,0.0,0.0,0.0,0.0,0.0,0.0,0.0,0.0,0.0,0.0,0.0,0.0,0.0,0.0,0.0,0.0,0.0,0.0,0.0,0.0,0.0,0.0,0.0,0.0,0.0,0.0,0.0,0.0,0.0,0.0,0.0,0.0,0.0,0.0,0.0,0.0,0.0,0.0,0.0,0.0,0.0,0.0,0.0,0.0,0.0,0.0,0.0,0.0,0.0,0.0,0.0,0.0,0.0,0.0,0.0,0.0,0.0,0.0,0.0,0.0,0.0,0.0,-3.2652,-3.5389,-3.4687,-3.4613,-3.439,-3.3851,-3.1282,-2.9044,-2.7409,-2.3763,0.0,0.0,0.0,0.0,0.0,0.0,0.0,0.0,0.0,0.0,0.0,0.0,0.0,0.0,0.0,0.0,0.0,0.0,0.0,0.0,0.0,0.0,0.0,0.0,0.0,0.0,0.0,0.0,0.0,0.0,0.0,0.0,0.0,0.0,0.0,0.0,0.0,0.0,0.0,0.0,0.0,0.0,0.0,0.0,0.0,0.0,0.0,0.0,0.0,0.0,0.0,0.0,0.0,0.0,0.0,0.0,0.0,0.0,0.0,0.0,0.0,0.0,0.0,0.0,0.0,0.0,0.0,0.0,0.0,0.0,0.0,0.0,0.0,0.0,0.0,0.0,0.0,0.0,0.0,0.0,0.0,0.0,0.0,0.0,0.0,0.0,0.0,0.0,0.0,0.0,0.0,0.0,0.0,0.0,0.0,0.0,0.0,0.0,0.0,0.0,0.0,0.0,-3.0911,-3.3028,0.0,-3.4389,-3.426,-3.3889,-3.1988,-2.9752,-2.7141,0.0,0.0,0.0,0.0,0.0,0.0,0.0,0.0,0.0,0.0,0.0,0.0,0.0,0.0,0.0,0.0,0.0,0.0,0.0,0.0,0.0,0.0,0.0,0.0,0.0,0.0,0.0,0.0,0.0,0.0,0.0,0.0,0.0,0.0,0.0,0.0,0.0,0.0,0.0,0.0,0.0,0.0,0.0,0.0,0.0,0.0,0.0,0.0,0.0,0.0,0.0,0.0,0.0,0.0,0.0,0.0,0.0,0.0,0.0,0.0,0.0,0.0,0.0,0.0,0.0,0.0,0.0,0.0,0.0,0.0,0.0,0.0,0.0,0.0,0.0,0.0,0.0,0.0,0.0,0.0,0.0,0.0,0.0,0.0,0.0,0.0,0.0,0.0,0.0,0.0,0.0,0.0,0.0,0.0,0.0,0.0,0.0,0.0,0.0,0.0,0.0,0.0,-2.7712,-2.9962,-3.1814,0.0,-3.3465,-3.3246,-3.2704,-3.0937,-2.872,-2.6083,0.0,0.0,0.0,0.0,0.0,0.0,0.0,0.0,0.0,0.0,0.0,0.0,0.0,0.0,0.0,0.0,0.0,0.0,0.0,0.0,0.0,0.0,0.0,0.0,0.0,0.0,0.0,0.0,0.0,0.0,0.0,0.0,0.0,0.0,0.0,0.0,0.0,0.0,0.0,0.0,0.0,0.0,0.0,0.0,0.0,0.0,0.0,0.0,0.0,0.0,0.0,0.0,0.0,0.0,0.0,0.0,0.0,0.0,0.0,0.0,0.0,0.0,0.0,0.0,0.0,0.0,0.0,0.0,0.0,0.0,0.0,0.0,0.0,0.0,0.0,0.0,0.0,0.0,0.0,0.0,0.0,0.0,0.0,0.0,0.0,0.0,0.0,0.0,0.0,0.0,0.0,0.0,0.0,0.0,0.0,0.0,0.0,0.0,0.0,0.0,0.0,0.0,-2.6333,-3.018,-3.2436,-3.1483,-3.1386,-3.0959,-2.9918,-2.7218,-2.5159,0.0,0.0,0.0,0.0,0.0,0.0,0.0,0.0,0.0,0.0,0.0,0.0,0.0,0.0,0.0,0.0,0.0,0.0,0.0,0.0,0.0,0.0,0.0,0.0,0.0,0.0,0.0,0.0,0.0,0.0,0.0,0.0,0.0,0.0,0.0,0.0,0.0,0.0,0.0,0.0,0.0,0.0,0.0,0.0,0.0,0.0,0.0,0.0,0.0,0.0,0.0,0.0,0.0,0.0,0.0,0.0,0.0,0.0,0.0,0.0,0.0,0.0,0.0,0.0,0.0,0.0,0.0,0.0,0.0,0.0,0.0,0.0,0.0,0.0,0.0,0.0,0.0,0.0,0.0,0.0,0.0,0.0,0.0,0.0,0.0,0.0,0.0,0.0,0.0,0.0,0.0,0.0,0.0,0.0,0.0,0.0,0.0,0.0,0.0,0.0,0.0,0.0,0.0,-2.5678,-2.901,-3.1128,-3.0874,-3.0859,-3.0809,-3.0785,-2.8686,-2.6519,-2.455,0.0,0.0,0.0,0.0,0.0,0.0,0.0,0.0,0.0,0.0,0.0,0.0,0.0,0.0,0.0,0.0,0.0,0.0,0.0,0.0,0.0,0.0,0.0,0.0,0.0,0.0,0.0,0.0,0.0,0.0,0.0,0.0,0.0,0.0,0.0,0.0,0.0,0.0,0.0,0.0,0.0,0.0,0.0,0.0,0.0,0.0,0.0,0.0,0.0,0.0,0.0,0.0,0.0,0.0,0.0,0.0,0.0,0.0,0.0,0.0,0.0,0.0,0.0,0.0,0.0,0.0,0.0,0.0,0.0,0.0,0.0,0.0,0.0,0.0,0.0,0.0,0.0,0.0,0.0,0.0,0.0,0.0,0.0,0.0,0.0,0.0,0.0,0.0,0.0,0.0,0.0,0.0,0.0,0.0,0.0,0.0,0.0,0.0,0.0,0.0,0.0,0.0,-2.5385,-2.8524,-3.0608,-3.0608,-3.0608,-3.0593,-3.0634,-2.9262,-2.7262,-2.4532,0.0,0.0,0.0,0.0,0.0,0.0,0.0,0.0,0.0,0.0,0.0,0.0,0.0,0.0,0.0,0.0,0.0,0.0,0.0,0.0,0.0,0.0,0.0,0.0,0.0,0.0,0.0,0.0,0.0,0.0,0.0,0.0,0.0,0.0,0.0,0.0,0.0,0.0,0.0,0.0,0.0,0.0,0.0,0.0,0.0,0.0,0.0,0.0,0.0,0.0,0.0,0.0,0.0,0.0,0.0,0.0,0.0,0.0,0.0,0.0,0.0,0.0,0.0,0.0,0.0,0.0,0.0,0.0,0.0,0.0,0.0,0.0,0.0,0.0,0.0,0.0,0.0,0.0,0.0,0.0,0.0,0.0,0.0,0.0,0.0,0.0,0.0,0.0,0.0,0.0,0.0,0.0,0.0,0.0,0.0,0.0,0.0,0.0,0.0,0.0,0.0,0.0,-2.531,-2.8448,-3.0532,-3.0532,-3.0532,-3.0331,-2.9829,-2.9277,-2.7534,-2.4356,0.0,0.0,0.0,0.0,0.0,0.0,0.0,0.0,0.0,0.0,0.0,0.0,0.0,0.0,0.0,0.0,0.0,0.0,0.0,0.0,0.0,0.0,0.0,0.0,0.0,0.0,0.0,0.0,0.0,0.0,0.0,0.0,0.0,0.0,0.0,0.0,0.0,0.0,0.0,0.0,0.0,0.0,0.0,0.0,0.0,0.0,0.0,0.0,0.0,0.0,0.0,0.0,0.0,0.0,0.0,0.0,0.0,0.0,0.0,0.0,-2.5711,0.0,0.0,0.0,0.0,0.0,0.0,0.0,0.0,0.0,0.0,0.0,0.0,0.0,0.0,0.0,0.0,0.0,0.0,0.0,0.0,0.0,0.0,0.0,0.0,0.0,0.0,0.0,0.0,0.0,0.0,0.0,0.0,0.0,0.0,0.0,0.0,0.0,0.0,0.0,0.0,0.0,-2.4833,-2.7896,-2.9955,-2.9955,-2.9955,-2.993,-2.9804,-2.9277,-2.7835,-2.541,-2.3401,0.0,0.0,0.0,0.0,0.0,0.0,0.0,0.0,0.0,0.0,0.0,0.0,0.0,0.0,0.0,0.0,0.0,0.0,0.0,0.0,0.0,0.0,0.0,0.0,0.0,0.0,0.0,0.0,0.0,0.0,0.0,0.0,0.0,0.0,0.0,0.0,0.0,0.0,0.0,0.0,0.0,0.0,0.0,0.0,0.0,0.0,0.0,0.0,0.0,0.0,0.0,0.0,0.0,0.0,0.0,0.0,0.0,0.0,0.0,0.0,-2.6691,0.0,0.0,0.0,0.0,0.0,0.0,0.0,0.0,0.0,0.0,0.0,0.0,0.0,0.0,0.0,0.0,0.0,0.0,0.0,0.0,0.0,0.0,0.0,0.0,0.0,0.0,0.0,0.0,0.0,0.0,0.0,0.0,0.0,0.0,0.0,0.0,0.0,0.0,0.0,0.0,-2.5008,-2.7896,-2.9804,-2.9804,-2.9804,-2.9804,-2.9804,-2.9528,-2.8499,-2.654,-2.4833,0.0,0.0,0.0,0.0,0.0,0.0,0.0,0.0,0.0,0.0,0.0,0.0,0.0,0.0,0.0,0.0,0.0,0.0,0.0,0.0,0.0,0.0,0.0,0.0,0.0,0.0,0.0,0.0,0.0,0.0,0.0,0.0,0.0,0.0,0.0,0.0,0.0,0.0,0.0,0.0,0.0,0.0,0.0,0.0,0.0,0.0,0.0,0.0,0.0,0.0,0.0,0.0,0.0,-3.2667,-3.3194,-3.3664,-3.3144,-3.3445,-3.4148,-3.0934,-2.9528,-2.9339,-2.7756,0.0,0.0,0.0,0.0,0.0,0.0,0.0,0.0,0.0,0.0,0.0,0.0,0.0,0.0,0.0,0.0,0.0,0.0,0.0,0.0,0.0,0.0,0.0,0.0,-2.7519,-2.7494,0.0,0.0,0.0,0.0,0.0,0.0,0.0,0.0,0.0,0.0,0.0,0.0,-2.5536,-2.8122,-2.9804,-2.9804,-2.9804,-2.9804,-2.9804,-2.9804,-2.9151,-2.767,-2.6515,-2.4732,0.0,0.0,0.0,0.0,0.0,0.0,0.0,0.0,0.0,0.0,0.0,0.0,0.0,0.0,0.0,0.0,0.0,0.0,0.0,0.0,0.0,0.0,0.0,0.0,0.0,0.0,0.0,0.0,0.0,0.0,0.0,0.0,-2.7745,-2.7971,0.0,0.0,0.0,0.0,0.0,0.0,0.0,0.0,0.0,0.0,0.0,0.0,0.0,-3.219,-3.3244,-3.3796,-3.4329,-3.4956,-3.5554,-3.5902,-3.5977,-3.5902,-3.5952,-3.6053,-3.555,0.0,-3.1662,-3.003,0.0,0.0,0.0,0.0,0.0,0.0,0.0,0.0,0.0,0.0,0.0,0.0,0.0,0.0,0.0,0.0,0.0,0.0,0.0,0.0,0.0,0.0,-3.0055,-2.998,-3.0131,-2.9854,0.0,-2.5327,-2.2744,-2.1945,-2.1117,0.0,0.0,0.0,0.0,0.0,0.0,0.0,-2.6172,-2.8373,-2.9804,-2.9804,-2.9804,-2.9804,-2.9804,-2.9804,-2.9478,-2.8712,-2.767,-2.6264,-2.4424,-2.2322,0.0,0.0,0.0,0.0,0.0,0.0,0.0,0.0,0.0,0.0,0.0,0.0,0.0,0.0,0.0,0.0,0.0,0.0,0.0,0.0,0.0,0.0,0.0,0.0,0.0,0.0,0.0,0.0,0.0,-2.8122,-2.9528,-2.9528,-2.969,-2.9428,0.0,0.0,0.0,0.0,0.0,0.0,0.0,0.0,0.0,-3.3627,-3.3903,-3.4625,-3.573,-3.5981,-3.6558,-3.7412,-3.7663,-3.7989,-3.8216,-3.7964,-3.7989,-3.8191,-3.7563,-3.6584,-3.5303,-3.3043,-3.0934,-2.9076,0.0,0.0,0.0,0.0,-2.7871,-2.7846,-2.9377,-2.9302,0.0,-2.7821,0.0,0.0,0.0,0.0,0.0,0.0,0.0,0.0,0.0,0.0,0.0,-3.1436,-3.1512,-3.1386,-3.0844,-2.8938,-2.6581,0.0,-2.3828,-2.318,-2.0742,0.0,0.0,0.0,0.0,-2.5485,-2.7168,-2.88,-2.9804,-2.9804,-2.9804,-2.9804,-2.9804,-2.9804,-2.9679,-2.9428,-2.8649,-2.7745,-2.6716,-2.4531,-2.2598,0.0,0.0,0.0,0.0,0.0,0.0,0.0,0.0,0.0,0.0,0.0,0.0,0.0,0.0,0.0,0.0,0.0,0.0,0.0,0.0,0.0,0.0,0.0,0.0,0.0,0.0,0.0,0.0,-2.9654,-3.1085,-3.0658,-3.1235,-3.106,0.0,0.0,0.0,0.0,0.0,0.0,-3.3646,-3.3847,-3.4625,-3.6085,-3.6285,-3.686,-3.7814,-3.7839,-3.8241,-3.9069,-3.9069,-3.9295,-3.9672,-3.927,-3.9295,-3.9647,-3.8793,-3.8366,-3.804,-3.5554,-3.347,-3.1772,-3.111,-3.0331,-2.9754,-3.0984,-3.1185,-3.1135,-3.3194,-3.3068,-3.1888,-3.111,0.0,-2.7795,-2.6013,0.0,0.0,0.0,0.0,-2.8725,-3.0407,-3.1436,-3.2139,-3.2541,-3.2641,-3.2566,-3.2265,-3.1587,-3.0055,0.0,-2.6515,-2.5896,-2.2728,0.0,0.0,0.0,0.0,-2.659,-2.8122,-2.9176,-2.9804,-2.9804,-2.9804,-2.9804,-2.9804,-2.9804,-2.9804,-2.9804,-2.9377,-2.8863,-2.8348,-2.6615,-2.4976,-2.3572,0.0,0.0,0.0,0.0,0.0,0.0,0.0,0.0,0.0,0.0,0.0,0.0,0.0,0.0,0.0,0.0,0.0,0.0,0.0,0.0,0.0,0.0,0.0,0.0,0.0,0.0,0.0,0.0,0.0,-3.0809,-3.2918,0.0,0.0,0.0,0.0,-3.2943,-3.3897,-3.4731,-3.5332,-3.5931,-3.6759,-3.7839,-3.8417,-3.8969,-3.9572,-3.9572,-3.9597,-3.9647,-3.9647,-3.9672,-3.9697,-3.9672,-3.9672,-3.9697,-3.9647,-3.932,-3.8743,-3.7008,-3.5855,-3.5132,-3.4123,-3.3646,-3.3621,-3.3696,-3.3721,-3.3721,-3.3847,-3.3847,-3.3771,-3.3696,-3.2215,-3.0331,-2.9704,-2.875,0.0,0.0,-3.0758,-3.1562,-3.3244,-3.3721,-3.3771,-3.3796,-3.3822,-3.352,-3.2441,-3.2164,-3.1612,0.0,-2.8725,-2.762,-2.6424,0.0,-2.5611,-2.6197,-2.6826,-2.762,-2.8712,-2.9428,-2.9804,-2.9804,-2.9804,-2.9804,-2.9804,-2.9804,-2.9804,-2.9804,-2.9754,-2.9503,-2.8863,-2.8273,-2.6917,-2.475,-2.2498,0.0,0.0,0.0,0.0,0.0,0.0,0.0,0.0,0.0,0.0,0.0,0.0,0.0,0.0,0.0,0.0,0.0,0.0,0.0,0.0,0.0,0.0,0.0,0.0,0.0,0.0,0.0,0.0,-3.3294,-3.4751,0.0,-3.3376,-3.4254,-3.5027,-3.5223,-3.5881,-3.6709,-3.7638,-3.7889,-3.8341,-3.9069,-3.9295,-3.9496,-3.9697,-3.9697,-3.9697,-3.9697,-3.9697,-3.9697,-3.9697,-3.9697,-3.9697,-3.9697,-3.9697,-3.9572,-3.9346,-3.8743,-3.7739,-3.6558,-3.6157,-3.5805,-3.5529,-3.5881,-3.6006,-3.6056,-3.6408,-3.6307,-3.583,-3.4776,-3.342,-3.2164,-3.1964,-3.1637,-3.1512,-3.2466,-3.2867,-3.3219,-3.4173,-3.4424,-3.4424,-3.4424,-3.4148,-3.3796,-3.3395,-3.3018,-3.2491,-3.1537,-3.0733,-2.9654,-2.7821,-2.7946,-2.7996,-2.7153,-2.777,-2.8624,-2.9377,-2.9654,-2.9804,-2.9804,-2.9804,-2.9804,-2.9804,-2.9804,-2.9804,-2.9804,-2.9804,-2.9704,-2.9503,-2.8599,-2.757,-2.6414,-2.423,-2.182,0.0,0.0,0.0,0.0,0.0,0.0,0.0,0.0,0.0,0.0,0.0,0.0,0.0,0.0,0.0,0.0,0.0,0.0,0.0,0.0,0.0,0.0,0.0,0.0,0.0,0.0,-3.4876,-3.5253,-3.6584,-3.6985,-3.568,-3.6408,-3.701,-3.7235,-3.7713,-3.8442,-3.9371,-3.9245,-3.9396,-3.9948,-3.9798,-3.9697,-3.9697,-3.9697,-3.9697,-3.9697,-3.9697,-3.9697,-3.9697,-3.9697,-3.9697,-3.9697,-3.9697,-3.9697,-3.9697,-3.9697,-3.9044,-3.8015,-3.7814,-3.7586,-3.731,-3.7613,-3.7739,-3.7814,-3.8165,-3.7814,-3.6985,-3.568,-3.465,-3.3872,-3.3696,-3.3621,-3.3746,-3.4299,-3.4449,-3.4575,-3.5127,-3.5278,-3.5228,-3.5006,-3.468,-3.4349,-3.3972,-3.3621,-3.3194,-3.2616,-3.2064,-3.116,-2.9503,-2.9679,-2.9704,-2.8574,-2.8875,-2.9352,-2.9754,-2.9804,-2.9804,-2.9804,-2.9804,-2.9804,-2.9804,-2.9603,-2.9578,-2.9779,-2.9428,-2.9302,-2.9503,-2.8423,-2.757,-2.7052,-2.4833,-2.2598,-2.0363,0.0,0.0,0.0,0.0,0.0,0.0,0.0,0.0,0.0,0.0,0.0,0.0,0.0,0.0,0.0,0.0,0.0,0.0,0.0,0.0,0.0,0.0,0.0,-3.2164,-3.47,-3.6458,-3.6508,-3.8417,-3.9094,-3.7487,-3.8793,-3.9521,-3.8994,-3.9446,-3.9973,-4.0526,-4.0049,-3.9998,-4.0526,-4.0023,-3.9747,-3.9722,-3.9722,-3.9722,-3.9697,-3.9697,-3.9697,-3.9697,-3.9697,-3.9697,-3.9697,-3.9697,-3.9697,-3.9697,-3.9697,-3.9697,-3.9647,-3.9145,-3.8944,-3.8944,-3.8944,-3.8944,-3.8944,-3.8944,-3.8165,-3.7136,-3.6631,-3.6031,-3.5433,-3.4951,-3.4731,-3.4876,-3.5382,-3.5533,-3.5633,-3.6279,-3.6405,-3.6279,-3.5658,-3.5508,-3.5207,-3.4173,-3.3947,-3.3771,-3.3219,-3.2641,-3.2089,-3.1512,-3.1009,-3.0658,-3.0633,-3.0181,0.0,-2.9804,-2.9804,-2.9804,-2.9804,-2.9804,-2.9804,-2.9804,-2.9277,-2.9176,-2.9729,-2.875,-2.8373,-2.8863,-2.7896,-2.7077,-2.6524,-2.4305,-2.2619,-2.1594,0.0,0.0,0.0,0.0,0.0,0.0,0.0,0.0,0.0,0.0,0.0,0.0,0.0,0.0,0.0,0.0,0.0,0.0,0.0,0.0,0.0,-3.2667,-3.4254,-3.453,-3.6332,-3.7864,-3.8693,-4.0023,-4.0701,-4.0249,-4.0573,-4.0827,-4.0676,-4.0802,-4.0899,-4.105,-4.0924,-4.0953,-4.105,-4.0924,-4.0701,-4.03,-4.03,-4.0099,-3.9697,-3.9697,-3.9697,-3.9697,-3.9697,-3.9697,-3.9697,-3.9697,-3.9697,-3.9697,-3.9697,-3.9697,-3.9672,-3.9521,-3.9471,-3.9471,-3.9471,-3.9471,-3.9471,-3.9471,-3.8994,-3.8366,-3.7739,-3.7186,-3.6634,-3.6081,-3.5906,-3.5931,-3.6081,-3.6132,-3.6182,-3.638,-3.6405,-3.638,-3.6182,-3.583,-3.5408,-3.5107,-3.4731,-3.4324,-3.3771,-3.3545,-3.3119,-3.2164,-3.1863,-3.1637,-3.1235,-3.0733,0.0,-3.0382,-3.003,-2.9804,-2.9804,-2.9804,-2.9804,-2.9804,-2.9654,-2.9453,-2.9176,-2.8838,-2.8737,-2.8888,-2.8247,-2.762,-2.7102,-2.5285,-2.4173,0.0,0.0,0.0,0.0,0.0,0.0,0.0,0.0,0.0,0.0,0.0,0.0,0.0,0.0,0.0,0.0,0.0,0.0,0.0,0.0,0.0,0.0,-3.4926,-3.6686,-3.7211,-3.8115,-3.922,-4.0576,-4.1279,-4.1681,-4.1681,-4.1681,-4.158,-4.13,-4.1275,-4.1376,-4.1656,-4.1455,-4.1401,-4.1681,-4.1401,-4.1125,-4.0852,-4.0626,-4.035,-4.0049,-3.9798,-3.9697,-3.9697,-3.9697,-3.9697,0.0,-3.9025,-3.8792,-3.8739,-3.8084,-3.7873,0.0,0.0,0.0,0.0,0.0,-3.8792,-3.8687,-3.8084,-3.7903,-3.7931,-3.7561,-3.7494,-3.7437,-3.6933,-3.6757,-3.6707,-3.648,-3.6405,-3.6405,-3.6405,-3.6405,-3.6405,-3.6405,-3.6107,-3.583,-3.5533,-3.5257,-3.4856,-3.4349,0.0,0.0,-3.3043,-3.2516,-3.2114,-3.1788,-3.1286,-3.0934,-3.0934,-3.0658,-3.0457,-3.0457,-3.0457,-3.0382,-3.0156,-2.993,0.0,0.0,0.0,-2.8436,-2.8247,-2.7921,0.0,0.0,0.0,0.0,0.0,0.0,0.0,0.0,-2.3778,-2.3778,0.0,0.0,0.0,0.0,0.0,0.0,0.0,0.0,0.0,0.0,0.0,0.0,0.0,0.0,0.0,0.0,-3.6689,-3.8592,-3.9722,-3.9923,-4.0526,-4.2037,-4.2263,-4.2313,-4.2313,-4.2313,-4.2057,-4.1501,-4.1476,-4.1731,-4.2263,0.0,0.0,0.0,0.0,-4.1451,-4.1376,-4.0877,-4.0576,-4.0501,-3.9792,-3.9517,-3.9697,-3.9517,-3.9517,-3.9645,-3.8137,-3.753,-3.74,-3.589,-3.5288,-3.5563,-3.8214,-3.9413,-3.9517,-3.8031,-3.7636,-3.7583,-3.6271,0.0,0.0,-3.6692,-3.7127,-3.7519,-3.712,-3.6969,-3.6868,-3.6584,-3.6455,-3.6405,-3.6405,-3.6405,-3.6405,-3.6405,-3.6405,-3.6279,-3.5708,-3.5583,-3.5433,-3.4881,-3.4424,-3.4048,-3.3922,-3.3018,-3.2315,-3.2315,-3.1838,-3.1486,-3.1486,-3.1436,-3.1386,-3.1386,0.0,0.0,-3.0733,-3.0256,-2.993,-2.9804,-2.88,-2.7971,-2.7494,-2.7544,-2.757,-2.757,-2.757,-2.7846,-2.8398,-2.8838,-2.9113,-2.9088,-2.5502,-2.4983,0.0,0.0,0.0,0.0,0.0,0.0,0.0,0.0,0.0,0.0,0.0,0.0,0.0,0.0,0.0,-3.4458,-3.7416,-3.9747,-4.0852,-4.1404,-4.1861,-4.2162,-4.2615,-4.2866,-4.2866,-4.2866,-4.2785,-4.266,-4.266,-4.271,-4.2811,-4.271,-4.271,-4.2811,-4.271,-4.2434,-4.2062,-4.1455,-4.0899,-4.0448,0.0,0.0,-3.9645,-3.8477,-3.8582,-3.9645,-3.8137,-3.753,-3.74,-3.589,-3.5288,-3.5343,-3.5945,-3.7607,-3.9517,-3.8031,-3.8243,-3.9233,-3.8973,-3.817,-3.7239,-3.6835,-3.597,-3.5205,-3.588,-3.5781,0.0,-3.6746,-3.6757,-3.6405,-3.6405,-3.6405,-3.6405,-3.6405,-3.6405,-3.638,-3.6279,-3.6207,-3.6031,-3.5458,-3.5257,-3.4906,-3.4048,-3.3345,-3.2918,-3.2918,-3.2416,-3.2064,-3.2064,-3.1662,-3.1386,-3.1386,-3.1386,-3.1361,-3.126,-3.1135,-3.0708,-2.9854,-2.9151,-2.8687,-2.8587,-2.9051,-2.9302,-2.9302,-2.9302,-2.9578,-3.0131,-3.0231,-3.0507,-3.0884,-2.9252,-2.8976,0.0,0.0,0.0,0.0,0.0,0.0,0.0,0.0,0.0,0.0,0.0,-2.725,-2.9751,0.0,-3.3097,-3.5742,-3.7299,-3.8766,-4.03,-4.1052,-4.1675,-4.2504,-4.2811,-4.2986,-4.2986,-4.2986,-4.2986,-4.2986,-4.2986,-4.2986,-4.2986,-4.2986,-4.2986,-4.2986,-4.2986,-4.2836,-4.2615,-4.1756,-4.115,-4.0874,-3.8577,-3.7902,-3.8582,-3.7849,-3.7477,-3.7501,-3.753,-3.6649,-3.5156,-3.3698,-3.3529,-3.4125,-3.336,-3.4902,-3.7317,-3.5813,-3.6217,-3.737,-3.6649,-3.6379,-3.6333,-3.6079,-3.5449,-3.4872,-3.5069,-3.4906,-3.4762,-3.5014,-3.5402,-3.5503,-3.4556,-3.5355,-3.6216,-3.5571,-3.5906,-3.6405,-3.6405,-3.6405,-3.6329,-3.6006,-3.5683,-3.5332,-3.4781,-3.4048,-3.3395,-3.3162,-3.2817,-3.2641,-3.2641,-3.2416,-3.224,-3.224,-3.224,-3.2114,-3.1838,-3.1537,-3.116,-3.0633,-3.0331,-3.0156,-3.0156,-3.0432,-3.0583,-3.0583,-3.0583,-3.0733,-3.1009,-3.1009,-3.1436,-3.2215,-3.1687,-3.1436,0.0,0.0,0.0,0.0,0.0,0.0,0.0,-2.5917,-2.583,-2.7853,-2.9255,-3.0653,-3.2387,-3.3481,-3.4687,-3.631,-3.7261,-3.8238,-3.9646,-4.0511,-4.1558,-4.2849,-4.2986,-4.2986,-4.2986,-4.2986,-4.2986,-4.2986,-4.2986,-4.2986,-4.2986,-4.2986,-4.2986,-4.2986,-4.2986,-4.2986,-4.2986,-4.1882,-4.1275,-4.1275,-3.8431,-3.724,-3.7453,-3.6918,-3.6162,-3.5343,-3.6541,-3.5376,-3.2587,-3.171,-3.1883,-3.253,-3.1383,-3.2322,-3.437,-3.3417,-3.4013,-3.5123,-3.3957,-3.4125,-3.4902,-3.5233,-3.4902,-3.4449,-3.4524,-3.427,-3.3886,-3.3428,-3.3897,-3.4276,-3.2831,-3.4017,-3.5403,-3.4581,-3.5235,-3.6073,-3.6358,-3.6405,-3.6405,-3.6405,-3.6006,-3.5633,-3.5508,-3.4756,-3.3997,-3.3345,-3.3187,-3.3111,-3.3111,-3.3111,-3.3111,-3.3111,-3.3111,-3.2893,-3.2416,-3.1863,-3.1537,-3.1537,-3.1461,-3.1386,-3.1386,-3.1386,-3.1436,-3.1537,-3.1662,-3.1763,-3.1888,-3.1989,-3.2491,-3.3395,-3.3395,-3.3144,-2.7728,-2.6176,-2.5624,-2.7517,-2.7505,-2.8171,0.0,-3.0675,-2.9361,-3.4287,-3.2963,-3.1472,-3.3204,-3.5531,-3.6549,-3.4418,-3.8297,-4.1152,-3.9977,-4.1499,-4.2793,-4.2986,-4.2986,-4.2986,-4.2986,-4.2986,-4.2986,-4.2986,-4.2986,-4.2986,-4.2986,-4.2986,-4.2986,-4.2986,-4.2986,-4.2986,-4.2986,-4.1882,-4.1275,-4.1275,-3.738,-3.6217,-3.74,-3.477,-3.4236,-3.5288,-3.5453,-3.3866,-3.1228,-3.2358,-3.2207,-3.1112,-3.0937,-3.1112,-3.1556,-3.2701,-3.4013,-3.5288,-3.5123,-3.4292,-3.3564,-3.4847,-3.3529,-3.1883,-3.4415,-3.39,-3.2708,-3.3908,-3.3742,-3.3173,-3.2952,-3.2819,-3.3032,-3.4117,-3.4532,-3.4921,-3.6168,-3.6405,-3.6405,-3.6405,-3.6355,-3.6107,-3.5583,-3.5408,-3.4956,-3.3972,-3.3395,-3.3111,-3.3111,-3.3111,-3.3111,-3.3111,-3.3111,-3.3043,-3.3036,-3.2441,-3.2114,-3.2114,-3.1662,-3.1386,-3.1386,-3.1386,-3.1612,-3.2114,-3.2616,-3.3119,-3.3621,-3.4123,-3.4424,-3.455,-3.455,-3.4455,-3.0233,-2.9544,-2.9495,-3.0408,-3.0688,-3.1535,-3.4479,-3.3552,-3.285,-3.5523,-3.5845,-3.5676,-3.5852,-3.6333,-3.6372,0.0,-3.6898,-3.8273,-3.8803,-4.0188,-4.1489,-4.2429,-4.2208,-4.2283,-4.2911,-4.2986,-4.2986,-4.2986,-4.2986,-4.2986,-4.2986,-4.2093,-4.1615,-4.1615,-4.0707,-4.0103,-3.9854,-3.9066,-3.8492,-3.8241,-3.5402,-3.4348,-3.488,-3.3677,-3.3901,-3.5178,-3.3473,-3.255,-3.215,-3.194,-3.1441,-3.0898,-3.0898,-3.0898,-3.0937,-3.1614,-3.2758,-3.4013,-3.4013,-3.3642,-3.3191,-3.3789,-3.2587,-3.1267,-3.336,-3.2839,-3.186,-3.3912,-3.4182,-3.3682,-3.3227,-3.4156,-3.5038,-3.4506,-3.4969,-3.5715,-3.6263,-3.6405,-3.6405,-3.6405,-3.6405,-3.6329,-3.6056,-3.5708,-3.5332,-3.4881,-3.4374,-3.4022,-3.4022,-3.4022,-3.4022,-3.4022,-3.4022,-3.4022,-3.4022,-3.3822,-3.3627,-3.3627,-3.3445,-3.3319,-3.3319,-3.3319,-3.3445,-3.3671,-3.3922,-3.4148,-3.4374,-3.46,-3.4831,-3.5157,-3.5529,-3.5855,-3.1612,-3.1788,-3.2315,-3.2792,-3.3419,-3.4424,-3.5868,-3.5672,-3.5541,-3.6654,-3.7726,-3.8325,-3.7618,-3.7014,-3.6443,-3.6046,-3.6297,-3.6831,-3.7859,-3.9416,-4.0682,-4.1304,-4.1339,-4.1468,-4.1911,-4.2413,-4.2811,-4.2961,-4.2986,-4.2986,-4.2986,-4.1476,-4.0592,-4.0592,-3.9053,-3.7999,-3.7623,-3.6991,-3.6498,-3.6084,-3.4081,-3.3077,-3.3077,-3.2701,-3.3077,-3.3979,-3.2264,-3.1883,-3.2416,-3.1767,-3.1267,-3.0898,-3.0898,-3.0898,-3.0898,-3.0898,-3.1614,-3.2473,-3.2473,-3.2473,-3.2587,-3.2964,-3.2092,-3.117,-3.2644,-3.2092,-3.1381,-3.3547,-3.3988,-3.3832,-3.3623,-3.4926,-3.6038,-3.4915,-3.5381,-3.6127,-3.6335,-3.6405,-3.6405,-3.6405,-3.6405,-3.6405,-3.6405,-3.6031,-3.578,-3.578,-3.5429,-3.5077,-3.4731,-3.468,-3.468,-3.468,-3.468,-3.468,-3.468,-3.468,-3.468,-3.468,-3.468,-3.468,-3.468,-3.468,-3.468,-3.468,-3.4831,-3.4906,-3.4906,-3.5102,-3.5454,-3.5959,-3.6408,-3.6885,-3.1411,-3.1788,-3.2616,-3.4248,-3.5479,-3.6609,-3.7688,-3.7236,-3.7128,-3.9187,-3.8481,-3.7559,-3.7506,-3.7905,-3.7391,-3.4886,-3.7517,-3.9319,-3.7623,-4.0114,-4.1414,-3.945,-4.0414,-4.0765,0.0,-4.104,-4.2464,-4.2936,-4.2986,-4.2986,-4.2986,-4.1476,-4.0592,-4.0592,-3.9053,-3.7999,-3.7623,-3.6991,-3.6498,-3.6084,-3.4081,-3.3077,-3.3077,-3.1594,-3.0995,-3.1112,-3.2473,-3.2264,-3.1054,-3.2473,-3.2207,-3.0898,-3.0898,-3.0898,-3.0898,-3.0898,-3.0957,-3.0937,-3.0937,-3.0937,-3.1228,-3.2644,-3.2092,-3.117,-3.2644,-3.2092,-3.1228,-3.2737,-3.2833,-3.2806,-3.4181,-3.4336,-3.4256,-3.5017,-3.5199,-3.5475,-3.6221,-3.6405,-3.6405,-3.6405,-3.6405,-3.6405,-3.6405,-3.638,-3.638,-3.638,-3.638,-3.5931,-3.4851,-3.468,-3.468,-3.468,-3.468,-3.468,-3.468,-3.468,-3.468,-3.468,-3.468,-3.468,-3.468,-3.468,-3.468,-3.468,-3.5207,-3.5483,-3.5483,-3.6056,-3.6631,-3.7136,-3.7161,-3.7462,-3.1938,-3.3101,-3.468,-3.6031,-3.7211,-3.8265,-3.8944,-3.8887,-3.8854,-3.9544,-3.8289,-3.7154,-3.7459,-3.6059,-3.5053,-3.5808,-3.7344,-3.8318,-3.7991,-4.0386,-4.1004,-3.7893,-3.9419,0.0,0.0,0.0,0.0,-4.2439,-4.2489,-4.264,-4.2961,-4.0476,-3.8994,-3.8994,-3.6118,-3.439,-3.4019,-3.3487,-3.3035,-3.2662,-3.1943,-3.1652,-3.1594,-3.1112,-3.0898,-3.0957,-3.1441,-3.1383,-3.0937,-3.1441,-3.1325,-3.0898,-3.0898,-3.0898,-3.0898,-3.0898,-3.0898,-3.0898,-3.0898,-3.0898,-3.0995,-3.1498,-3.1267,-3.117,-3.2644,-3.2092,-3.1383,-3.3866,-3.446,-3.457,-3.5709,-3.6625,-3.711,-3.6628,-3.6505,-3.6502,-3.6436,-3.6405,-3.6405,-3.6405,-3.6405,-3.6405,-3.6405,-3.6405,-3.6405,-3.6405,-3.6405,-3.6279,-3.5855,-3.5805,-3.5805,-3.5805,-3.5805,-3.5805,-3.5805,-3.5805,-3.5805,-3.5805,-3.5805,-3.5805,-3.5805,-3.5805,-3.5805,-3.5805,-3.5981,-3.6257,-3.6634,-3.681,-3.7186,-3.7739,-3.8115,-3.8391,-3.3151,-3.468,-3.6408,-3.7513,-3.8467,-3.927,-3.9622,-3.9697,-3.9647,-3.9446,-3.7925,-3.6657,-3.6887,-3.4352,-3.3108,-3.6003,-3.6724,-3.7336,-3.8605,-4.0105,-3.9968,-3.6827,-3.8397,-3.9077,0.0,0.0,0.0,-4.1831,-4.2112,-4.2363,-4.2715,-4.0382,-3.8817,-3.8223,-3.5265,-3.3172,-3.2229,-3.1738,-3.1309,-3.0898,-3.0898,-3.0898,-3.0898,-3.0898,-3.0898,-3.0898,-3.0898,-3.0898,-3.0898,-3.0898,-3.0898,-3.0898,-3.0898,-3.0898,-3.0898,-3.0898,-3.0898,-3.0898,-3.0898,-3.0898,-3.0898,-3.0898,-3.0898,-3.1054,-3.2035,-3.1652,-3.1383,-3.381,-3.4515,-3.4891,-3.6573,-3.7681,-3.8284,-3.7891,-3.7838,-3.7638,-3.7061,-3.6983,-3.6983,-3.6983,-3.6983,-3.6983,-3.6983,-3.6784,-3.6707,-3.6707,-3.6531,-3.6405,-3.6405,-3.6405,-3.6405,-3.6405,-3.6405,-3.6405,-3.6405,-3.6405,-3.6405,-3.6405,-3.6405,-3.6405,-3.6405,-3.6405,-3.6505,-3.6707,-3.6707,-3.6935,-3.7487,-3.7487,-3.7764,-3.8316,-3.8693,-3.8969,-3.4981,-3.6433,-3.7538,-3.8693,-3.9295,-3.9697,-3.9697,-3.9672,-3.9496,-3.8994,-3.7313,-3.5941,0.0,0.0,-3.1645,-3.5446,-3.5768,-3.6571,-3.9471,-3.9371,-3.8292,0.0,-3.7432,0.0,0.0,0.0,0.0,-4.125,0.0,-4.2187,-4.2263,-4.1096,-3.9756,-3.8238,-3.6106,-3.4123,-3.219,-3.1699,-3.1289,-3.0898,-3.0898,-3.0898,-3.0898,-3.0898,-3.0898,-3.0898,-3.0898,-3.0898,-3.0898,-3.0898,-3.0898,-3.0898,-3.0898,-3.0898,-3.0898,-3.0898,-3.0898,-3.0898,-3.0898,-3.0898,-3.0898,-3.0898,-3.0898,-3.0898,-3.0898,-3.0898,-3.117,-3.2587,-3.3021,-3.3733,-3.6541,-3.74,-3.7729,-3.8511,-3.8818,-3.8718,-3.8016,-3.7965,-3.8015,-3.8015,-3.8015,-3.8015,-3.8015,-3.7563,-3.7236,-3.7236,-3.6832,-3.648,-3.6405,-3.6405,-3.6405,-3.6405,-3.6405,-3.6405,-3.6405,-3.643,-3.6455,-3.6455,-3.648,-3.648,-3.648,-3.648,-3.6732,-3.7211,-3.7236,-3.7487,-3.804,-3.804,-3.8341,-3.8969,-3.8969,-3.9195,-3.6282,-3.7588,-3.8617,-3.9295,-3.9597,-3.9697,-3.9697,-3.9371,-3.8919,-3.8341,-3.5423,-3.2971,-3.2822,-3.0657,-3.029,-3.4585,-3.4987,0.0,-3.9868,-3.9279,0.0,-3.565,-3.7794,-3.8629,-3.6544,-3.9224,0.0,0.0,-4.1455,-4.1907,-4.2766,-4.029,-3.8481,-3.7767,-3.4643,-3.2513,-3.168,-3.1269,-3.0996,-3.0898,-3.0898,-3.0898,-3.0898,-3.0898,-3.0898,-3.0898,-3.0898,-3.0898,-3.0898,-3.0898,-3.0898,-3.0898,-3.0898,-3.0898,-3.0898,-3.0898,-3.0898,-3.0898,-3.0898,-3.0898,-3.0898,-3.0898,-3.0898,-3.0898,-3.0898,-3.0898,-3.0995,-3.1383,-3.2264,-3.3304,-3.4013,-3.5868,-3.7175,-3.5839,-3.7236,-3.8441,-3.6713,-3.7219,-3.8015,-3.8015,-3.8015,-3.8015,-3.8015,-3.7889,-3.7789,-3.7789,-3.7688,-3.7287,-3.6505,-3.6405,-3.6405,-3.6405,-3.6405,-3.6405,-3.6405,-3.6782,-3.6985,-3.6985,-3.7362,-3.7588,-3.7588,-3.7588,-3.7663,-3.7789,-3.7789,-3.809,-3.8642,-3.8642,-3.8944,-3.9496,-3.9496,-3.9572,-3.7462,-3.8567,-3.9295,-3.9622,-3.9697,-3.9496,-3.8768,-3.7991,-3.7023,-3.5718,-3.2625,-3.0101,-2.9956,-2.8581,-2.899,-3.3608,0.0,0.0,-3.9669,-3.8299,-3.6432,-3.5336,-3.7367,-3.8286,-3.6847,-3.9705,-4.1681,0.0,-4.1681,-4.1957,-4.264,-4.0473,-3.8765,-3.7646,-3.4753,-3.2535,-3.125,-3.1016,-3.0898,-3.0898,-3.0898,-3.0898,-3.0898,-3.0898,-3.0898,-3.0898,0.0,-3.0898,-3.0898,-3.0898,-3.0898,-3.0898,-3.0898,-3.0898,-3.0898,-3.0898,-3.0898,-3.0898,-3.0898,-3.0898,-3.0898,-3.0898,-3.0898,-3.0898,-3.0898,-3.0898,-3.0898,-3.0898,-3.1498,-3.2264,-3.2907,-3.4326,-3.5418,-3.493,-3.6602,-3.7993,-3.6772,-3.7729,-3.8743,-3.8743,-3.8743,-3.8743,-3.8743,-3.8542,-3.8391,-3.8391,-3.8165,-3.7789,-3.7161,-3.7086,-3.7086,-3.7086,-3.7086,-3.7086,-3.7086,-3.7362,-3.7538,-3.7538,-3.7839,-3.8015,-3.8015,-3.8015,-3.8115,-3.8391,-3.8391,-3.8668,-3.922,-3.922,-3.9396,-3.9697,-3.9697,-3.9697,-3.8592,-3.932,-3.9697,-3.9697,-3.9647,-3.917,-3.7563,-3.6186,-3.4703,-3.2524,-2.9782,-2.7675,-2.745,-2.6782,-2.7803,-3.2301,-3.2933,-3.4445,-3.8891,-3.6839,-3.4974,-3.5279,-3.6535,-3.7125,-3.6622,-3.9641,-4.1737,-4.1958,-4.1983,-4.2093,-4.2313,-4.1233,-3.9558,-3.7242,-3.5115,-3.3041,-3.0898,-3.0898,-3.0898,-3.0898,-3.0898,-3.0898,-3.0898,-3.0898,-3.0898,-3.0898,0.0,0.0,-3.0898,-3.0898,-3.0898,-3.0898,-3.0898,-3.0898,-3.0898,-3.0898,-3.0898,-3.0898,-3.0898,-3.0898,-3.0898,-3.0898,-3.0898,-3.0898,-3.0898,-3.0898,-3.0898,-3.0898,-3.0898,-3.117,-3.2473,-3.2964,-3.336,-3.4459,-3.5999,-3.7186,-3.7186,-3.853,-3.9697,-3.9697,-3.9697,-3.9697,-3.9697,-3.9295,-3.902,-3.902,-3.8542,-3.8241,-3.8241,-3.809,-3.8015,-3.8015,-3.8015,-3.8015,-3.8015,-3.8065,-3.8115,-3.8115,-3.8191,-3.8241,-3.8241,-3.8241,-3.8467,-3.902,-3.902,-3.922,-3.9697,-3.9697,-3.9697,-3.9697,-3.9697,-3.9697,-3.922,-3.9622,-3.9697,-3.9697,-3.9346,-3.8743,-3.7462,-3.5622,-3.3671,-3.1902,-2.8992,-2.6568,-2.6077,-2.5865,-2.6863,-3.0098,-3.0655,-3.2457,-3.7296,-3.5215,-3.3798,-3.5516,-3.5924,-3.6085,-3.6,-3.7725,0.0,0.0,-4.0875,-4.1468,-4.278,-4.1428,-3.8908,-3.5157,-3.2743,-3.1308,-3.0898,-3.0898,-3.0898,-3.0898,-3.0898,-3.0898,-3.0898,-3.0898,-3.0898,-3.0898,-3.0898,0.0,-3.0898,-3.0898,-3.0898,-3.0898,-3.0898,-3.0898,-3.0898,-3.0898,-3.0898,-3.0898,-3.0898,-3.0898,-3.0898,-3.0898,-3.0898,-3.0898,-3.0898,-3.0898,-3.0898,-3.0898,-3.0898,-3.0957,-3.1228,-3.2207,-3.2851,-3.1883,-3.3698,-3.5672,-3.5672,-3.782,-3.9697,-3.9697,-3.9697,-3.9697,-3.9697,-3.9622,-3.9546,-3.9546,-3.9471,-3.9396,-3.9396,-3.8592,-3.8015,-3.8015,-3.8015,-3.8015,-3.8015,-3.8442,-3.8718,-3.8718,-3.9145,-3.9396,-3.9396,-3.9396,-3.9446,-3.9546,-3.9546,-3.9597,-3.9697,-3.9697,-3.9697,-3.9697,-3.9697,-3.9697,-3.9396,-3.9697,-3.9697,-3.9697,-3.9044,-3.799,-3.6282,-3.4176,-3.1886,-2.9386,-2.7105,-2.5352,-2.4448,-2.4907,-2.6176,-2.8522,-2.958,-3.1361,-3.4769,-3.398,-3.3437,-3.4448,-3.5273,-3.5806,-3.5806,-3.7265,-3.8876,-4.0476,-3.9814,-4.0419,-4.2849,-4.0239,-3.7276,-3.4143,-3.1993,-3.0898,-3.0898,-3.0898,-3.0898,-3.0898,-3.0898,-3.0898,-3.0898,-3.0898,-3.0898,-3.0898,-3.0898,0.0,-3.0898,-3.0898,-3.0898,-3.0898,-3.0898,-3.0898,-3.0898,-3.0898,-3.0898,-3.0898,-3.0898,-3.0898,-3.0898,-3.0898,-3.0898,-3.0898,-3.0898,-3.0898,-3.0898,-3.0898,-3.0898,-3.0898,-3.0898,-3.1441,-3.1767,-3.1054,-3.2587,-3.4348,-3.5123,-3.6996,-3.8582,-3.8582,-3.9181,-3.9697,-3.9697,-3.9697,-3.9697,-3.9697,-3.9697,-3.9697,-3.9697,-3.922,-3.8894,-3.8894,-3.8894,-3.8894,-3.8894,-3.9145,-3.9295,-3.9295,-3.9546,-3.9697,-3.9697,-3.9697,-3.9697,-3.9697,-3.9697,-3.9697,-3.9697,-3.9697,-3.9697,-3.9697,-3.9697,-3.9697,-3.9421,-3.9697,-3.9697,-3.9697,-3.8743,-3.7287,-3.5203,-3.2881,-3.0336,-2.7156,-2.5588,-2.4467,-2.3299,-2.4043,-2.5404,-2.7123,-2.8794,-3.0495,-3.2209,-3.2954,-3.333,-3.327,-3.4427,0.0,-3.5273,-3.6417,0.0,-3.9931,-3.9229,0.0,-4.2202,-3.8878,-3.6099,-3.4268,-3.2047,-3.0898,-3.0898,-3.0898,-3.0898,-3.0898,-3.0898,-3.0898,-3.0898,-3.0898,-3.0898,-3.0898,-3.0898,0.0,0.0,-3.0898,-3.0898,-3.0898,-3.0898,-3.0898,-3.0898,-3.0898,-3.0898,-3.0898,-3.0898,-3.0898,-3.0898,-3.0898,-3.0898,-3.0898,-3.0898,-3.0898,-3.0898,-3.0898,-3.0898,-3.0898,-3.0898,-3.0898,-3.0898,-3.0898,-3.2035,-3.3508,-3.4958,-3.6433,-3.7583,-3.7902,-3.8921,-3.9697,-3.9697,-3.9697,-3.9697,-3.9697,-3.9697,-3.9697,-3.9697,-3.9697,-3.9697,-3.9697,-3.9697,-3.9697,-3.9697,-3.9697,-3.9697,-3.9697,-3.9697,-3.9697,-3.9697,-3.9697,-3.9697,-3.9697,-3.9697,-3.9697,-3.9697,-3.9697,-3.9697,-3.9697,-3.9697,-3.9697,-3.9521,-3.9697,-3.9697,-3.9697,-3.8467,-3.681,-3.5102,-3.2587,-2.9886,-2.7088,-2.5588,-2.4467,-2.3299,-2.3555,-2.4343,-2.5672,-2.7705,-2.9405,-3.0336,-3.2214,-3.3325,-3.292,-3.3309,0.0,-3.3587,-3.3776,-3.5108,-3.8223,0.0,0.0,-4.0096,-3.8044,-3.6612,-3.5915,-3.2625,-3.0898,-3.0898,-3.0898,-3.0898,-3.0898,-3.0898,-3.0898,-3.0898,-3.0898,-3.0898,-3.0898,-3.0898,0.0,0.0,-3.0898,-3.0898,-3.0898,-3.0898,-3.0898,-3.0898,-3.0898,-3.0898,-3.0898,-3.0898,-3.0898,-3.0898,-3.0898,-3.0898,-3.0898,-3.0898,-3.0898,-3.0898,-3.0898,-3.0898,-3.0898,-3.0898,-3.0898,-3.0898,-3.0898,-3.2035,-3.3508,-3.4958,-3.6433,-3.7902,-3.9258,-3.9645,-3.9697,-3.9697,-3.9697,-3.9697,-3.9697,-3.9697,-3.9697,-3.9697,-3.9697,-3.9697,-3.9697,-3.9697,-3.9697,-3.9697,-3.9697,-3.9697,-3.9697,-3.9697,-3.9697,-3.9697,-3.9697,-3.9697,-3.9697,-3.9697,-3.9697,-3.9697,-3.9697,-3.9697,-3.9697,-3.9697,-3.9697,-3.8868,-3.9446,-3.9697,-3.9697,-3.8165,-3.6332,-3.5027,-3.2798,-3.0406,-2.7941,-2.6584,-2.5462,-2.4339,-2.3743,-2.3652,-2.4434,-2.5921,-2.7389,-2.8696,-3.0178,-3.145,-3.2507,-3.2652,-3.2871,0.0,0.0,-3.432,-3.6599,0.0,0.0,-3.9299,-3.769,-3.6838,-3.6921,-3.3896,-3.2207,-3.2207,-3.1325,-3.0898,-3.0898,-3.0898,-3.0898,-3.0898,-3.0898,-3.0898,-3.0898,-3.0898,0.0,0.0,-3.0898,-3.0898,-3.0995,-3.1883,-3.1652,-3.0995,-3.1883,-3.1652,-3.0898,-3.0898,-3.0898,-3.0898,-3.0898,-3.0898,-3.0898,-3.0898,-3.0898,-3.0898,-3.0898,-3.0898,-3.0898,-3.0898,-3.0898,-3.0898,-3.0898,-3.1325,-3.215,-3.3642,-3.5123,-3.6595,-3.8084,-3.9077,-3.9697,-3.9697,-3.9697,-3.9697,-3.9697,-3.9697,-3.9697,-3.9697,-3.9697,-3.9697,-3.9697,-3.9697,-3.9697,-3.9697,-3.9697,-3.9697,-3.9697,-3.9697,-3.9697,-3.9697,-3.9697,-3.9697,-3.9697,-3.9697,-3.9697,-3.9697,-3.9697,-3.9697,-3.9697,-3.9697,-3.9697,-3.8165,-3.9019,-3.9446,-3.9446,-3.7938,-3.6078,-3.4776,-3.2867,-3.0776,-2.8563,-2.7481,-2.6543,-2.5083,-2.4125,-2.3743,-2.4182,-2.5166,-2.643,-2.7994,-2.9107,-3.0233,-3.1645,0.0,-3.2574,0.0,-3.3997,-3.4841,0.0,0.0,0.0,-3.8698,-3.7706,-3.7035,-3.6834,-3.4403,-3.2907,-3.2473,-3.1441,-3.0898,-3.0898,-3.0898,-3.0898,-3.0898,-3.0898,-3.0898,-3.0898,0.0,0.0,0.0,-3.0898,-3.117,-3.1594,-3.2207,-3.2092,-3.1594,-3.2264,-3.1767,-3.0898,-3.0898,-3.0898,-3.0898,-3.0898,-3.0898,-3.0898,-3.0898,-3.0898,-3.0898,-3.0898,-3.0898,-3.0898,-3.0898,-3.0898,-3.0995,-3.1441,-3.1556,-3.2092,-3.4013,-3.5233,-3.6379,-3.7849,-3.8973,-3.9697,-3.9697,-3.9697,-3.9697,-3.9697,-3.9697,-3.9697,-3.9697,-3.9697,-3.9697,-3.9697,-3.9697,-3.9697,-3.9697,-3.9697,-3.9697,-3.9697,-3.9697,-3.9697,-3.9697,-3.9697,-3.9697,-3.9697,-3.9697,-3.9697,-3.9697,-3.9697,-3.9697,-3.9697,-3.9848,-4.0023,-3.7563,-3.8442,-3.8919,-3.8919,-3.7662,-3.5977,-3.4274,-3.2591,-3.0776,-2.8563,-2.8084,-2.7418,-2.521,-2.4787,-2.4912,-2.533,-2.6011,-2.7006,-2.8494,-2.9638,-3.0249,0.0,-3.1808,-3.2728,-3.2271,-3.5359,-3.6684,0.0,0.0,0.0,-3.8153,-3.8105,-3.7216,-3.5366,-3.3845,-3.2416,-3.0937,-3.0898,-3.0898,-3.0898,-3.0898,-3.0898,-3.0898,-3.0898,-3.0898,0.0,0.0,0.0,0.0,-3.0898,-3.1767,-3.2907,-3.1498,-3.1825,-3.2907,-3.1441,-3.0898,-3.0898,-3.0898,-3.0898,-3.0898,-3.0898,-3.0898,-3.0898,-3.0898,-3.0898,-3.0898,-3.0898,-3.0898,-3.0898,-3.0898,-3.0898,-3.1267,-3.2758,-3.3077,-3.3901,-3.6811,-3.7453,-3.7902,-3.9413,-3.9697,-3.9697,-3.9697,-3.9697,-3.9697,-3.9697,-3.9697,-3.9697,-3.9697,-3.9697,-3.9697,-3.9697,-3.9697,-3.9697,-3.9697,-3.9697,-3.9697,-3.9697,-3.9697,-3.9697,-3.9697,-3.9697,-3.9697,-3.9697,-3.9697,-3.9697,-3.9697,-3.9697,-3.9697,-3.9697,-4.0249,-4.0802,-3.4851,-3.5881,-3.6508,-3.6132,-3.5077,-3.3916,-3.2968,-3.1763,-3.0578,-2.9475,-2.8648,-2.7884,-2.7174,-2.5817,-2.5338,-2.6976,-2.5999,0.0,-2.8802,-2.9663,0.0,-3.0791,-3.2292,-3.3069,0.0,0.0,0.0,0.0,0.0,0.0,-3.9656,-3.8466,-3.7857,-3.8267,-3.6865,-3.5398,-3.3923,-3.2928,-3.1883,-3.0898,-3.0898,-3.0898,-3.0898,-3.0898,0.0,0.0,0.0,0.0,0.0,-3.1977,-3.2701,-3.3247,-3.4792,-3.4459,-3.3191,-3.3698,-3.2664,-3.0898,-3.0898,-3.0898,-3.0898,-3.0898,-3.0898,-3.0898,-3.0898,-3.0898,-3.0898,-3.0898,-3.0898,-3.0898,-3.0898,-3.0898,-3.1267,-3.2758,-3.3077,-3.3901,-3.6865,-3.753,-3.7954,-3.9413,-3.9697,-3.9697,-3.9697,-3.9697,-3.9697,-3.9697,-3.9697,-3.9697,-3.9697,-3.9697,-3.9697,-3.9697,-3.9697,-3.9697,-3.9697,-3.9697,-3.9697,-3.9697,-3.9697,-3.9697,-3.9697,-3.9697,-3.9697,-3.9697,-3.9697,-3.9697,-3.9697,-4.0074,-4.045,-4.0827,-4.1003,-4.1379,-3.2792,-3.4073,-3.4806,-3.45,-3.3746,-3.2867,-3.2089,-3.1235,-3.0457,-2.9905,-2.9248,-2.8536,-2.7925,-2.6857,-2.6304,-2.7021,-2.6065,-2.602,-2.8299,0.0,0.0,-3.1179,0.0,0.0,0.0,-3.3932,0.0,0.0,0.0,0.0,-4.0095,-3.8988,-3.8739,-3.9697,-3.8243,-3.6811,-3.5288,-3.3845,-3.2644,-3.171,-3.117,-3.0898,-3.0898,-3.1498,0.0,0.0,0.0,0.0,0.0,-3.2964,-3.3733,-3.488,-3.6162,-3.589,-3.4714,-3.4515,-3.3304,-3.1652,-3.1112,-3.0898,-3.0898,-3.0898,-3.0898,-3.0995,-3.1556,-3.171,-3.1825,-3.2379,-3.255,-3.255,-3.255,-3.255,-3.2928,-3.4403,-3.477,-3.5431,-3.7796,-3.8348,-3.8582,-3.9517,-3.9697,-3.9697,-3.9697,-3.9697,-3.9697,-3.9697,-3.9697,-3.9697,-3.9697,-3.9697,-3.9697,-3.9697,-3.9697,-3.9697,-3.9697,-3.9697,-3.9697,-3.9697,-3.9697,-3.9697,-3.9697,-3.9697,-3.9697,-3.9697,-3.9898,-3.9998,-3.9998,-4.0551,-4.1103,-4.1656,-4.1656,-4.1932,0.0,-3.2692,-3.3545,-3.3495,-3.3093,-3.2483,-3.1411,-3.0783,0.0,-2.9779,-2.9679,-2.9234,-2.7738,-2.7767,-2.7599,-2.629,-2.6408,-2.6885,-2.7551,-2.8021,0.0,0.0,-3.2672,0.0,-3.3119,0.0,0.0,0.0,0.0,0.0,-3.9645,-3.9697,-3.9697,-3.9697,-3.8348,-3.6918,-3.5453,-3.4013,-3.3191,-3.3077,-3.1594,-3.0937,-3.1112,-3.2473,0.0,0.0,0.0,0.0,0.0,-3.3901,-3.5046,-3.7346,-3.6108,-3.6379,-3.7186,-3.4382,-3.3304,-3.2907,-3.1556,-3.0995,-3.0898,-3.0995,-3.1054,-3.1325,-3.2907,-3.3304,-3.3417,-3.4902,-3.5288,-3.5288,-3.5288,-3.5288,-3.5672,-3.7133,-3.753,-3.7902,-3.9362,-3.9697,-3.9697,-3.9697,-3.9697,-3.9697,-3.9697,-3.9697,-3.9697,-3.9697,-3.9697,-3.9697,-3.9697,-3.9697,-3.9697,-3.9697,-3.9697,-3.9697,-3.9697,-3.9697,-3.9697,-3.9697,-3.9697,-3.9722,-3.9747,-3.9747,-3.9772,-3.9798,-4.03,-4.0601,-4.0626,-4.11,-4.1681,-4.2263,-4.2263,-4.2539,-2.8273,0.0,-3.0005,-2.9578,-2.9377,-2.9202,0.0,-2.8775,-2.8649,-2.8524,-2.8499,-2.865,-2.912,-2.8276,-2.8187,-3.0318,-2.9199,-2.8522,-2.9745,-3.079,0.0,-3.4614,-3.4404,-3.4386,-3.5141,0.0,0.0,0.0,0.0,-3.6942,-3.9594,-3.9697,-3.9697,-3.9697,-3.9362,-3.8477,-3.6972,-3.5508,-3.4236,-3.3077,-3.1594,-3.1498,-3.2587,-3.2964,0.0,0.0,0.0,0.0,-3.5343,-3.6162,-3.6865,-3.7583,-3.8372,-3.819,-3.7423,-3.6703,-3.5046,-3.3077,-3.2701,-3.1825,-3.1112,-3.2207,-3.2587,-3.3077,-3.5649,-3.488,-3.3417,-3.4902,-3.5288,-3.5288,-3.5288,-3.5288,-3.5672,-3.7133,-3.753,-3.7902,-3.9362,-3.9697,-3.9697,-3.9697,-3.9697,-3.9697,-3.9697,-3.9697,-3.9697,-3.9697,-3.9697,-3.9697,-3.9697,-3.9697,-3.9697,-3.9697,-3.9697,-3.9697,-3.9697,-3.9697,-3.9697,-3.9697,-3.9697,-3.9873,-4.03,-4.0325,-4.0526,-4.0953,-4.1025,-4.1354,-4.181,-4.1961,-4.2233,-4.2841,-4.2841,-4.2861,-2.6927,-2.8097,-2.9252,-2.895,-2.8875,-2.8875,-2.8875,-2.8473,-2.8097,-2.8097,-2.8097,-2.8298,-2.89,-2.8694,-2.8836,-3.0106,-3.0284,-3.0751,-3.2101,0.0,-3.4709,-3.5524,-3.5128,-3.5024,0.0,0.0,0.0,0.0,0.0,-3.6619,-3.9517,-3.9697,-3.9697,-3.9697,-3.9697,-3.931,-3.853,-3.7049,-3.589,-3.5101,-3.3642,-3.336,-3.4125,-3.4825,-3.554,0.0,0.0,0.0,-3.7317,-3.7477,-3.7902,-3.8582,-3.9413,-3.9181,-3.8425,-3.7743,-3.6487,-3.4991,-3.4348,-3.3586,-3.2928,-3.3077,-3.3586,-3.4515,-3.6811,-3.6379,-3.5431,-3.6888,-3.7317,-3.7317,-3.7317,-3.7317,-3.753,-3.8295,-3.853,-3.8739,-3.9517,-3.9697,-3.9697,-3.9697,-3.9697,-3.9772,-4.0023,-4.0074,-4.0149,-4.04,-4.045,-4.045,-4.045,-4.045,-4.045,-4.045,-4.045,-4.045,-4.045,-4.045,-4.035,-4.0099,-4.03,-4.0576,-4.0877,-4.0902,-4.1153,-4.1706,-4.1706,-4.1982,-4.259,-4.259,-4.274,-4.2986,-4.2986,-4.2986,-2.67,-2.8273,-2.9829,-2.9503,-2.9478,-2.9528,-2.9528,-2.88,-2.8097,-2.8097,-2.8097,-2.8172,-2.8448,-2.9277,-2.9731,-2.9101,-3.0964,0.0,-3.4267,-3.5788,-3.6491,-3.5713,-3.5617,0.0,0.0,0.0,0.0,0.0,0.0,-3.6834,-3.9517,-3.9697,-3.9697,-3.9697,-3.9697,-3.9697,-3.9697,-3.8243,-3.753,-3.7453,-3.5999,-3.5398,-3.5672,-3.6918,-3.7636,0.0,0.0,0.0,-3.9594,-3.8348,-3.8582,-3.9697,-3.9697,-3.9697,-3.9517,-3.8295,-3.769,-3.7293,-3.5836,-3.5288,-3.5123,-3.4125,-3.4626,-3.589,-3.7423,-3.7849,-3.8084,-3.9362,-3.9697,-3.9697,-3.9697,-3.9697,-3.9697,-3.9697,-3.9697,-3.9697,-3.9697,-3.9697,-3.9722,-3.9798,-3.9823,-3.9998,-4.0551,-4.0651,-4.0802,-4.12,-4.1275,-4.1275,-4.1275,-4.1275,-4.1275,-4.1275,-4.1275,-4.1275,-4.1275,-4.1351,-4.1254,-4.0802,-4.1075,-4.1326,-4.1401,-4.1501,-4.1806,-4.2313,-4.2338,-4.2564,-4.2986,-4.2986,-4.2986,-4.2986,-4.2986,-4.2986,-2.7595,-2.9151,-3.003,-2.8147,-2.8021,-2.8373,-2.8373,-2.8222,-2.8097,-2.8097,-2.8097,-2.8549,-2.998,-3.0382,-3.1004,-3.2728,-3.3601,-3.4413,0.0,0.0,-3.6859,-3.7139,0.0,0.0,0.0,0.0,0.0,0.0,0.0,0.0,-3.9645,-3.9697,-3.9697,-3.9697,-3.9697,-3.9697,-3.9697,-3.8243,-3.753,-3.7453,-3.5999,-3.5945,-3.7186,-3.7423,-3.819,0.0,0.0,-3.9465,-3.9697,-3.9465,-3.9517,-3.9697,-3.9697,-3.9697,-3.9697,-3.9465,-3.8582,-3.7293,-3.5836,-3.5288,-3.5453,-3.6487,-3.6972,-3.7423,-3.8921,-3.9362,-3.9413,-3.9645,-3.9697,-3.9697,-3.9697,-3.9697,-3.9697,-3.9697,-3.9697,-3.9697,-3.9697,-3.9697,-3.9823,-4.03,-4.04,-4.0576,-4.1075,-4.1175,-4.12,-4.1275,-4.1275,-4.1275,-4.1275,-4.1275,-4.1275,-4.1275,-4.1275,-4.1275,-4.1275,-4.1756,-4.2062,-4.1961,-4.1555,-4.1555,-4.2062,-4.2484,-4.276,-4.2916,-4.2861,-4.2886,-4.2986,-4.2986,-4.2986,-4.2986,-4.2986,-4.2986,-2.7102,-2.8222,-2.9076,-2.8348,-2.9252,-3.0181,-2.9603,-2.8976,-2.8624,-2.895,-2.8775,-2.8976,-3.0317,-3.1336,-3.2767,-3.5278,0.0,-3.6603,-3.7362,-3.7976,-3.8469,0.0,0.0,0.0,0.0,0.0,0.0,0.0,0.0,0.0,0.0,0.0,-3.9697,-3.9697,-3.9697,-3.9697,-3.9697,-3.9025,-3.8687,-3.8687,-3.7979,-3.8031,-3.8687,-3.8687,-3.9077,-3.9697,0.0,-3.9697,-3.9697,-3.9697,-3.9697,-3.9697,-3.9697,-3.9697,-3.9697,-3.9697,-3.9258,-3.8477,-3.6996,-3.6996,-3.766,-3.753,-3.8031,-3.8792,-3.9465,-3.9697,-3.9697,-3.9697,-3.9697,-3.9697,-3.9697,-3.9697,-3.9697,-3.9697,-3.9697,-3.9697,-3.9697,-3.9923,-4.0224,-4.0475,-4.0752,-4.1128,-4.1681,-4.1781,-4.1882,-4.2183,-4.2233,-4.2233,-4.2233,-4.2233,-4.2233,-4.2233,-4.2233,-4.2233,-4.2233,-4.2459,-4.2665,-4.2665,-4.2359,-4.2333,-4.264,-4.2836,-4.2986,-4.2986,-4.2986,-4.2986,-4.2986,-4.2986,-4.2986,-4.2986,-4.2986,-4.2986,-2.7002,-2.7745,-2.8599,-2.9026,-3.0407,-3.1537,-3.1085,-3.0231,-2.9704,-3.0407,-3.0206,-3.0206,-3.121,-3.2842,0.0,-3.701,-3.7965,-3.8567,-3.8994,-3.9421,-3.9697,0.0,0.0,0.0,0.0,0.0,0.0,0.0,0.0,0.0,0.0,0.0,-3.9697,-3.9697,-3.9697,-3.9697,-3.9697,-3.9697,-3.9697,-3.9697,-3.9697,-3.9697,-3.9697,-3.9697,-3.9697,-3.9697,-3.9697,-3.9697,-3.9697,-3.9697,-3.9697,-3.9697,-3.9697,-3.9697,-3.9697,-3.9697,-3.9697,-3.9517,-3.84,-3.8739,-3.9517,-3.8348,-3.8792,-3.9697,-3.9697,-3.9697,-3.9697,-3.9697,-3.9697,-3.9697,-3.9697,-3.9697,-3.9697,-3.9697,-3.9697,-3.9722,-3.9848,-4.0224,-4.0601,-4.0852,-4.1254,-4.1706,-4.2313,-4.2414,-4.2539,-4.2911,-4.2986,-4.2986,-4.2986,-4.2986,-4.2986,-4.2986,-4.2986,-4.2986,-4.2986,-4.2986,-4.2986,-4.2986,-4.2986,-4.2986,-4.2986,-4.2986,-4.2986,-4.2986,-4.2986,-4.2986,-4.2986,-4.2986,-4.2986,-4.2986,-4.2986,-4.3037,-2.8473,-2.9202,-2.9679,-2.9729,-2.9854,-3.0331,-3.1763,-3.1637,-3.1512,-3.2659,-3.286,-3.2968,-3.3545,-3.5429,-3.7111,-3.7839,-3.8868,-3.9597,-3.9622,0.0,0.0,0.0,0.0,0.0,0.0,0.0,0.0,0.0,0.0,0.0,0.0,0.0,0.0,-3.9697,-3.9697,-3.9697,-3.9697,-3.9697,-3.9697,-3.9697,-3.9697,-3.9697,-3.9697,-3.9697,-3.9697,-3.9697,-3.9697,-3.9697,-3.9697,-3.9697,-3.9697,-3.9697,-3.9697,-3.9697,-3.9697,-3.9697,-3.9697,-3.9697,-3.9569,-3.9645,-3.9697,-3.9569,-3.9645,-3.9697,-3.9697,-3.9697,-3.9697,-3.9697,-3.9697,-3.9697,-3.9697,-3.9697,-3.9697,-3.9697,-3.9697,-3.9848,-4.035,-4.0501,-4.0827,-4.1886,-4.2112,-4.2338,-4.2866,-4.2911,-4.2992,-4.2961,-4.2986,-4.2986,-4.2986,-4.2986,-4.2986,-4.2986,-4.2986,-4.2986,-4.2986,-4.2986,-4.2986,-4.2986,-4.2986,-4.2986,-4.2986,-4.2986,-4.2986,-4.2986,-4.2986,-4.2986,-4.2986,-4.2986,-4.2986,-4.2986,-4.2986,-4.3263,-2.7695,-2.8323,-2.8825,-2.9176,-3.003,-3.1135,-3.2441,-3.2591,-3.2943,-3.4776,-3.4851,-3.4876,-3.578,-3.6634,-3.7487,-3.8391,-3.9195,-3.9697,-3.9697,0.0,0.0,0.0,0.0,0.0,0.0,0.0,0.0,0.0,0.0,0.0,0.0,0.0,0.0,-3.9697,-3.9697,-3.9697,-3.9697,-3.9697,-3.9697,-3.9697,-3.9697,-3.9697,-3.9697,-3.9697,-3.9697,-3.9697,-3.9697,-3.9697,-3.9697,-3.9697,-3.9697,-3.9697,-3.9697,-3.9697,-3.9697,-3.9697,-3.9697,-3.9697,-3.9697,-3.9697,-3.9697,-3.9697,-3.9697,-3.9697,-3.9697,-3.9697,-3.9697,-3.9697,-3.9697,-3.9697,-3.9697,-3.9697,-3.9697,-3.9697,-3.9948,-4.0249,-4.0475,-4.1053,-4.1656,-4.2137,-4.2489,-4.2791,-4.2936,-4.2986,-4.2986,-4.2986,-4.2986,-4.2986,-4.2986,-4.2986,-4.2986,-4.2986,-4.2986,-4.2986,-4.2986,-4.2986,-4.2986,-4.2986,-4.2986,-4.2986,-4.2986,-4.2986,-4.2986,-4.2986,-4.2986,-4.2986,-4.2986,-4.2986,-4.2986,-4.2986,-4.3338,-4.3614,-2.7268,-2.7821,-2.8499,-2.9013,-3.0306,-3.1813,-3.347,-3.3721,-3.4223,-3.6458,-3.6458,-3.6358,-3.7287,-3.7437,0.0,0.0,-3.932,-3.9697,0.0,0.0,0.0,0.0,0.0,0.0,0.0,0.0,0.0,0.0,0.0,0.0,0.0,0.0,0.0,0.0,-3.9697,-3.9697,-3.9697,-3.9697,-3.9697,-3.9697,-3.9697,-3.9697,-3.9697,-3.9697,-3.9697,-3.9697,-3.9697,-3.9697,-3.9697,-3.9697,-3.9697,-3.9697,-3.9697,-3.9697,-3.9697,-3.9697,-3.9697,-3.9697,-3.9697,-3.9697,-3.9697,-3.9697,-3.9697,-3.9697,-3.9697,-3.9697,-3.9697,-3.9697,-3.9697,-3.9747,-3.9898,-3.9948,-3.9948,-3.9948,-4.0375,-4.0827,-4.1003,-4.1685,-4.2263,-4.2439,-4.2766,-4.2986,-4.2986,-4.2986,-4.2986,-4.2986,-4.2986,-4.2986,-4.2986,-4.2986,-4.2986,-4.2986,-4.2986,-4.2986,-4.2986,-4.2986,-4.2986,-4.2986,-4.2986,-4.2986,-4.2986,-4.2986,-4.2986,-4.2986,-4.2986,-4.2986,-4.2986,-4.3162,-4.3237,-4.3263,-4.379,-4.4166,-2.757,-2.8072,-2.9013,-2.9654,-3.0608,-3.2139,-3.4881,-3.5082,-3.5353,-3.7563,-3.7588,-3.7362,-3.7914,-3.8015,0.0,-3.8768,-3.932,-3.9697,0.0,0.0,0.0,0.0,0.0,0.0,0.0,0.0,0.0,0.0,0.0,0.0,0.0,0.0,0.0,0.0,-3.9697,-3.9697,-3.9697,-3.9697,-3.9697,-3.9697,-3.9697,-3.9697,-3.9697,-3.9697,-3.9697,-3.9697,-3.9697,-3.9697,-3.9697,-3.9697,-3.9697,-3.9697,-3.9697,-3.9697,-3.9697,-3.9697,-3.9697,-3.9697,-3.9697,-3.9697,-3.9697,-3.9697,-3.9697,-3.9697,-3.9697,-3.9697,-3.9697,-3.9697,-3.9697,-3.9823,-4.0375,-4.0526,-4.0526,-4.0526,-4.0953,-4.1505,-4.2087,-4.2213,-4.2389,-4.2861,-4.2986,-4.2986,-4.2986,-4.2986,-4.2986,-4.2986,-4.2986,-4.2986,-4.2986,-4.2986,-4.2986,-4.2986,-4.2986,-4.2986,-4.2986,-4.2986,-4.2986,-4.2986,-4.2986,-4.2986,-4.2986,-4.2986,-4.2986,-4.2986,-4.2986,-4.2986,-4.2986,-4.3539,-4.379,-4.3815,-4.4367,-4.4945,-2.6716,-2.7519,-2.8574,-2.9553,-3.1486,-3.3671,-3.5655,-3.5981,-3.6508,-3.8743,-3.8743,-3.8417,-3.8592,-3.8617,0.0,-3.8894,-3.932,0.0,0.0,0.0,0.0,0.0,0.0,0.0,0.0,0.0,0.0,0.0,0.0,0.0,0.0,0.0,0.0,0.0,-3.9697,-3.9697,-3.9697,-3.9697,-3.9697,-3.9697,-3.9697,-3.9697,-3.9697,-3.9697,-3.9697,-3.9697,-3.9697,-3.9697,-3.9697,-3.9697,-3.9697,-3.9697,-3.9697,-3.9697,-3.9697,-3.9697,-3.9697,-3.9697,-3.9697,-3.9697,-3.9697,-3.9697,-3.9697,-3.9697,-3.9697,-3.9697,-3.9697,-3.9697,-3.9697,-3.9823,-4.0375,-4.0802,-4.105,-4.105,-4.1505,-4.1957,-4.2162,-4.2514,-4.2841,-4.2936,-4.2986,-4.2986,-4.2986,-4.2986,-4.2986,-4.2986,-4.2986,-4.2986,-4.2986,-4.2986,-4.2986,-4.2986,-4.2986,-4.3137,-4.3514,-4.3564,-4.3714,-4.4116,-4.4141,-4.379,-4.3011,-4.2986,-4.2986,-4.2986,-4.2986,-4.3162,-4.3564,-4.3714,-4.3991,-4.4392,-4.497,-4.5321,-2.7326,-2.8247,-2.9478,-3.1035,-3.2842,-3.4776,-3.6933,-3.7586,-3.8065,-3.9421,-3.9245,-3.8994,-3.917,-3.9019,0.0,-3.917,0.0,0.0,0.0,0.0,0.0,0.0,0.0,0.0,0.0,0.0,0.0,0.0,0.0,0.0,0.0,0.0,0.0,0.0,-3.9697,-3.9697,-3.9697,-3.9697,-3.9697,-3.9697,-3.9697,-3.9697,-3.9697,-3.9697,-3.9697,-3.9697,-3.9697,-3.9697,-3.9697,-3.9697,-3.9697,-3.9697,-3.9697,-3.9697,-3.9697,-3.9697,-3.9697,-3.9697,-3.9697,-3.9697,-3.9697,-3.9697,-3.9697,-3.9697,-3.9697,-3.9697,-3.9697,-3.9697,-3.9848,-4.0149,-4.0701,-4.1254,-4.1656,-4.1656,-4.2082,-4.2539,-4.2539,-4.2791,-4.2986,-4.2986,-4.2986,-4.2986,-4.2986,-4.2986,-4.2986,-4.2986,-4.2986,-4.2986,-4.2986,-4.2986,-4.3062,-4.3288,-4.3313,-4.3539,-4.4091,-4.4141,-4.4267,-4.4593,-4.4618,-4.4317,-4.3664,-4.3639,-4.3639,-4.3639,-4.3639,-4.379,-4.4141,-4.4367,-4.4644,-4.497,-4.5547,-4.5824,-2.8612,-2.964,-3.1135,-3.3345,-3.45,-3.578,-3.8366,-3.932,-3.9697,-3.9697,-3.9295,-3.9094,-3.9597,-3.927,-3.912,0.0,0.0,0.0,0.0,0.0,0.0,0.0,0.0,0.0,0.0,0.0,0.0,0.0,0.0,0.0,0.0,0.0,0.0,-3.9697,-3.9697,-3.9697,-3.9697,-3.9697,-3.9697,0.0,-3.9697,-3.9697,-3.9697,-3.9697,-3.9697,-3.9697,-3.9697,-3.9697,-3.9697,-3.9697,-3.9697,-3.9697,-3.9697,-3.9697,-3.9697,-3.9697,-3.9697,-3.9697,-3.9697,-3.9697,-3.9697,-3.9697,-3.9697,-3.9697,-3.9697,-3.9697,-3.9697,-3.9697,-4.0099,-4.0651,-4.115,-4.1756,-4.2213,-4.2263,-4.2665,-4.2986,-4.2986,-4.2986,-4.2986,-4.2986,-4.2986,-4.2986,-4.2986,-4.2986,-4.2986,-4.2986,-4.2986,-4.2986,-4.2986,-4.3011,-4.3237,-4.374,-4.384,-4.4091,-4.4644,-4.4694,-4.4719,-4.4769,-4.4769,-4.4769,-4.4769,-4.4669,-4.4618,-4.4618,-4.4618,-4.4644,-4.4694,-4.5221,-4.5522,-4.5573,-4.6075,-4.6301,-2.7379,-2.9101,-3.1135,-3.3345,-3.5956,-3.8241,-3.927,-3.9622,-3.9697,-3.9697,-3.9597,-3.9546,-3.9672,-3.9597,-3.9546,0.0,0.0,0.0,0.0,0.0,0.0,0.0,0.0,0.0,0.0,0.0,0.0,0.0,0.0,0.0,0.0,0.0,0.0,-3.9697,-3.9697,-3.9697,-3.9697,-3.9697,-3.9697,0.0,-3.9697,-3.9697,-3.9697,-3.9697,-3.9697,-3.9697,-3.9697,-3.9697,-3.9697,-3.9697,-3.9697,-3.9697,-3.9697,-3.9697,-3.9697,-3.9697,-3.9697,-3.9697,-3.9697,-3.9697,-3.9697,-3.9697,-3.9697,-3.9697,-3.9697,-3.9697,-3.9697,-3.9697,-4.0099,-4.0651,-4.115,-4.1756,-4.2313,-4.2766,-4.2886,-4.2986,-4.2986,-4.2986,-4.2986,-4.2986,-4.2986,-4.2986,-4.2986,-4.2986,-4.2986,-4.2986,-4.2986,-4.2986,-4.2986,-4.3363,-4.3664,-4.379,-4.4192,-4.4694,-4.5246,-4.5296,-4.5497,-4.5924,-4.5949,-4.5949,-4.5949,-4.5095,-4.4618,-4.4618,-4.4618,-4.4844,-4.5296,-4.5422,-4.5723,-4.6125,-4.625,-4.6301,-2.7372,-2.9568,-3.2039,-3.4776,-3.7387,-3.9346,-3.9622,-3.9697,-3.9697,-3.9697,-3.9697,-3.9697,-3.9697,-3.9697,0.0,0.0,0.0,0.0,0.0,0.0,0.0,0.0,0.0,0.0,0.0,0.0,0.0,0.0,0.0,0.0,0.0,-3.9697,-3.9697,-3.9697,-3.9697,-3.9697,-3.9697,-3.9697,-3.9697,-3.9697,-3.9697,-3.9697,-3.9697,-3.9697,-3.9697,-3.9697,-3.9697,-3.9697,-3.9697,-3.9697,-3.9697,-3.9697,-3.9697,-3.9697,-3.9697,-3.9697,-3.9697,-3.9697,-3.9697,-3.9697,-3.9697,-3.9697,-3.9697,-3.9697,-3.9697,-3.9697,-3.9697,-3.9697,-4.0275,-4.0924,-4.12,-4.1932,-4.2665,-4.2911,-4.2986,-4.2986,-4.2986,-4.2986,-4.2986,-4.2986,-4.2986,-4.2986,-4.2986,-4.2986,-4.2986,-4.2986,-4.3212,-4.3363,-4.3363,-4.384,-4.4292,-4.4568,-4.4869,-4.5271,-4.5824,-4.5874,-4.5999,-4.6301,-4.6301,-4.6301,-4.6301,-4.5748,-4.5422,-4.5422,-4.5422,-4.5573,-4.5874,-4.5874,-4.6024,-4.6301,-4.6301,-4.6301,-2.7007,-2.9884,-3.3018,-3.6358,-3.8391,-3.9572,-3.9672,-3.9697,-3.9697,-3.9697,-3.9697,-3.9697,-3.9697,0.0,0.0,0.0,0.0,0.0,0.0,0.0,0.0,0.0,0.0,0.0,0.0,0.0,0.0,0.0,0.0,0.0,-3.9697,-3.9697,-3.9697,-3.9697,-3.9697,-3.9697,-3.9697,-3.9697,-3.9697,-3.9697,-3.9697,-3.9697,-3.9697,-3.9697,-3.9697,-3.9697,-3.9697,-3.9697,-3.9697,-3.9697,-3.9697,-3.9697,-3.9697,-3.9697,-3.9697,-3.9697,-3.9697,-3.9697,-3.9697,-3.9697,-3.9697,-3.9697,-3.9697,-3.9697,-3.9697,-3.9697,-3.9697,-3.9697,-4.0425,-4.1175,-4.125,-4.2082,-4.2861,-4.2961,-4.2986,-4.2986,-4.2986,-4.2986,-4.2986,-4.2986,-4.2986,-4.2986,-4.2986,-4.2986,-4.3011,-4.3112,-4.3514,-4.384,-4.394,-4.4443,-4.497,-4.5447,-4.5573,-4.5824,-4.6276,-4.6301,-4.6301,-4.6301,-4.6301,-4.6301,-4.6301,-4.6301,-4.6301,-4.6301,-4.6301,-4.6301,-4.6301,-4.6301,-4.6301,-4.6301,-4.6301,-4.6301,-2.3929,-2.8198,-3.3018,-3.6358,-3.809,-3.912,-3.9597,-3.9697,-3.9697,0.0,-3.9697,-3.9697,-3.9697,0.0,0.0,0.0,0.0,0.0,0.0,0.0,0.0,0.0,0.0,0.0,0.0,0.0,0.0,0.0,0.0,0.0,-3.9697,-3.9697,-3.9697,-3.9697,-3.9697,-3.9697,-3.9697,-3.9697,-3.9697,-3.9697,-3.9697,-3.9697,-3.9697,-3.9697,-3.9697,-3.9697,-3.9697,-3.9697,-3.9697,-3.9697,-3.9697,-3.9697,-3.9697,-3.9697,-3.9697,-3.9697,-3.9697,-3.9697,-3.9697,-3.9697,-3.9697,-3.9697,-3.9697,-3.9697,-3.9697,-3.9697,-3.9697,-3.9697,-4.0149,-4.0727,-4.1175,-4.1806,-4.2439,-4.2861,-4.2986,-4.2986,-4.2986,-4.2986,-4.2986,-4.2986,-4.2986,-4.2986,-4.2986,-4.2986,-4.3137,-4.3614,-4.374,-4.3966,-4.4443,-4.502,-4.5397,-4.5472,-4.5924,-4.6225,-4.6301,-4.6301,-4.6301,-4.6301,-4.6301,-4.6301,-4.6301,-4.6301,-4.6301,-4.6301,-4.6301,-4.6301,-4.6301,-4.6301,-4.6301,-4.6301,-4.6301,-4.6301,-2.5326,-2.9298,-3.2943,-3.5981,-3.7337,-3.8065,-3.8617,-3.8743,-3.8743,-3.8743,-3.8743,-3.8944,0.0,0.0,0.0,0.0,0.0,0.0,0.0,0.0,0.0,0.0,0.0,0.0,0.0,0.0,0.0,0.0,0.0,-3.9572,-3.9245,-3.9521,-3.9697,-3.9697,-3.9697,-3.9697,-3.9697,-3.9697,-3.9697,-3.9697,-3.9697,-3.9697,-3.9697,-3.9697,-3.9697,-3.9697,-3.9697,-3.9697,-3.9697,-3.9697,-3.9697,-3.9697,-3.9697,-3.9697,-3.9697,-3.9697,-3.9697,-3.9697,-3.9697,-3.9697,-3.9697,-3.9697,-3.9697,-3.9697,-3.9697,-3.9697,-3.9697,-3.9697,-4.03,-4.0974,-4.1225,-4.1982,-4.274,-4.2911,-4.2986,-4.2986,-4.2986,-4.2986,-4.2986,-4.2986,-4.2986,-4.2986,-4.2986,-4.3237,-4.3514,-4.3765,-4.4342,-4.4844,-4.507,-4.5598,-4.5949,-4.5949,-4.6175,-4.6301,-4.6301,-4.6301,-4.6301,-4.6301,-4.6301,-4.6301,-4.6301,-4.6301,-4.6301,-4.6301,-4.6301,-4.6301,-4.6301,-4.6301,-4.6301,-4.6301,-4.6301,-4.6301,-2.5546,-2.8895,-3.1486,-3.4595,-3.6031,-3.6935,0.0,0.0,-3.8015,0.0,-3.8015,0.0,0.0,0.0,0.0,0.0,0.0,0.0,0.0,0.0,0.0,0.0,0.0,0.0,0.0,0.0,0.0,0.0,0.0,-3.9094,-3.8668,-3.9044,-3.927,-3.927,-3.927,-3.9346,-3.9471,-3.9622,-3.9697,-3.9697,-3.9697,-3.9697,-3.9697,-3.9697,-3.9697,-3.9697,-3.9697,-3.9697,-3.9697,-3.9697,-3.9697,-3.9697,-3.9697,-3.9697,-3.9697,-3.9697,-3.9697,-3.9697,-3.9697,-3.9697,-3.9697,-3.9697,-3.9697,-3.9697,-3.9697,-3.9697,-3.9697,-3.9697,-4.0375,-4.1125,-4.125,-4.2057,-4.2811,-4.2936,-4.2986,-4.2986,-4.2986,-4.2986,-4.2986,-4.2986,-4.2986,-4.2986,-4.2986,-4.3438,-4.384,-4.3991,-4.4844,-4.5547,-4.5673,-4.605,-4.6301,-4.6301,-4.6301,-4.6301,-4.6301,-4.6301,-4.6301,-4.6301,-4.6301,-4.6301,-4.6301,-4.6301,-4.6301,-4.6301,-4.6301,-4.6301,-4.6301,-4.6301,-4.6301,-4.6301,-4.6301,-4.6301,-2.1808,-2.4723,-2.7706,-3.1486,-3.4003,-3.5859,0.0,0.0,-3.8015,-3.8015,-3.8015,0.0,0.0,0.0,0.0,0.0,0.0,0.0,0.0,0.0,0.0,0.0,0.0,0.0,0.0,0.0,0.0,0.0,0.0,-3.809,-3.804,-3.809,-3.809,-3.809,-3.809,-3.8366,-3.8969,-3.9421,-3.9697,-3.9697,-3.9697,-3.9697,-3.9697,-3.9697,-3.9697,-3.9697,-3.9697,-3.9697,-3.9697,-3.9697,-3.9697,-3.9697,-3.9697,-3.9697,-3.9697,-3.9697,-3.9697,-3.9697,-3.9697,-3.9697,-3.9697,-3.9697,-3.9697,-3.9697,-3.9697,-3.9697,-3.9697,-3.9697,-4.0124,-4.0676,-4.115,-4.1756,-4.2389,-4.2861,-4.2986,-4.2986,-4.2986,-4.2986,-4.2986,-4.2986,-4.2986,-4.2986,-4.2986,-4.3438,-4.3991,-4.4493,-4.5095,-4.5673,-4.62,-4.6301,-4.6301,-4.6301,-4.6301,-4.6301,-4.6301,-4.6301,-4.6301,-4.6301,-4.6301,-4.6301,-4.6301,-4.6301,-4.6301,-4.6301,-4.6301,-4.6301,-4.6301,-4.6301,-4.6301,-4.6301,-4.6301,-4.6301,-2.0303,-2.2674,-2.5454,-2.8602,-3.0719,-3.2468,-3.4184,-3.5529,-3.6386,-3.6386,0.0,0.0,0.0,0.0,0.0,0.0,0.0,0.0,0.0,0.0,0.0,0.0,0.0,0.0,0.0,0.0,0.0,0.0,0.0,0.0,-3.7487,-3.7814,-3.8015,-3.8015,-3.8015,-3.8291,-3.8919,-3.9069,-3.9346,-3.9697,-3.9697,-3.9697,-3.9697,-3.9697,-3.9697,-3.9697,-3.9697,-3.9697,-3.9697,-3.9697,-3.9697,-3.9697,-3.9697,-3.9697,-3.9697,-3.9697,-3.9697,-3.9697,-3.9697,-3.9697,-3.9697,-3.9697,-3.9697,-3.9697,-3.9697,-3.9697,-3.9772,-4.0124,-4.0626,-4.1178,-4.1731,-4.2258,-4.2791,-4.2936,-4.2986,-4.2986,-4.2986,-4.2986,-4.2986,-4.2986,-4.3263,-4.3514,-4.3514,-4.4267,-4.4945,-4.5146,-4.5648,-4.6075,-4.6276,-4.6301,-4.6301,-4.6301,-4.6301,-4.6301,-4.6301,-4.6301,-4.6301,-4.6301,-4.6301,-4.6301,-4.6301,-4.6301,-4.6301,-4.6301,-4.6301,-4.6301,-4.6301,-4.6301,-4.6301,-4.6301,-4.6301,-4.6301,-1.8838,-2.0919,-2.3621,0.0,-2.8038,-2.9569,-3.2671,0.0,-3.458,-3.5332,0.0,0.0,0.0,0.0,0.0,0.0,0.0,0.0,0.0,0.0,0.0,0.0,0.0,0.0,0.0,0.0,0.0,0.0,0.0,0.0,-3.6935,-3.7262,-3.7462,-3.7462,-3.7638,-3.8015,-3.8567,-3.8768,-3.9145,-3.9697,-3.9697,-3.9697,-3.9697,-3.9697,-3.9697,-3.9697,-3.9697,-3.9697,-3.9697,-3.9697,-3.9697,-3.9697,-3.9697,-3.9697,-3.9697,-3.9697,-3.9697,-3.9697,-3.9697,-3.9697,-3.9697,-3.9697,-3.9697,-3.9697,-3.9697,-3.9697,-3.9798,-4.035,-4.0902,-4.1455,-4.2062,-4.2615,-4.2986,-4.2986,-4.2986,-4.2986,-4.2986,-4.2986,-4.3037,-4.3212,-4.3564,-4.3865,-4.4041,-4.4869,-4.5497,-4.5497,-4.5949,-4.6301,-4.6301,-4.6301,-4.6301,-4.6301,-4.6301,-4.6301,-4.6301,-4.6301,-4.6301,-4.6301,-4.6301,-4.6301,-4.6301,-4.6301,-4.6301,-4.6301,-4.6301,-4.6301,-4.6301,-4.6301,-4.6301,-4.6301,-4.6301,-4.6301,0.0,0.0,0.0,0.0,0.0,0.0,-3.2496,0.0,-3.2717,-3.4931,0.0,0.0,0.0,0.0,0.0,0.0,0.0,0.0,0.0,0.0,0.0,0.0,0.0,0.0,0.0,0.0,0.0,0.0,0.0,-3.6405,-3.6405,-3.6405,-3.6405,-3.6405,-3.6885,-3.7437,-3.799,-3.8567,-3.912,-3.9697,-3.9697,-3.9697,-3.9697,-3.9697,-3.9697,-3.9697,-3.9697,-3.9697,-3.9697,-3.9697,-3.9697,-3.9697,-3.9697,-3.9697,-3.9697,-3.9697,-3.9697,-3.9697,-3.9697,-3.9697,-3.9697,-3.9697,-3.9697,-3.9697,-3.9697,-3.9697,-3.9848,-4.0375,-4.0874,-4.1505,-4.2087,-4.264,-4.2986,-4.2986,-4.2986,-4.2986,-4.3011,-4.3011,-4.3162,-4.3689,-4.384,-4.4016,-4.4568,-4.5121,-4.5522,-4.5522,-4.5974,-4.6301,-4.6301,-4.6301,-4.6301,-4.6301,-4.6301,-4.6301,-4.6301,-4.6301,-4.6301,-4.6301,-4.6301,-4.6301,-4.6301,-4.6301,-4.6301,-4.6301,-4.6301,-4.6301,-4.6301,-4.6301,-4.6301,-4.6301,-4.6301,-4.6301,-1.6996,0.0,0.0,0.0,0.0,0.0,0.0,0.0,0.0,0.0,0.0,0.0,0.0,0.0,0.0,0.0,0.0,0.0,0.0,0.0,0.0,0.0,0.0,0.0,0.0,0.0,0.0,0.0,-3.6405,-3.6405,-3.6405,-3.6405,-3.6405,-3.6405,-3.6556,-3.7036,-3.799,-3.8165,-3.8743,-3.9697,-3.9697,-3.9697,-3.9697,-3.9697,-3.9697,-3.9697,-3.9697,-3.9697,-3.9697,-3.9697,-3.9697,-3.9697,-3.9697,-3.9697,-3.9697,-3.9697,-3.9697,-3.9697,-3.9697,-3.9697,-3.9697,-3.9697,-3.9697,-3.9697,-3.9697,-3.9973,-4.04,-4.0953,-4.1505,-4.2057,-4.261,-4.2861,-4.2986,-4.2986,-4.2986,-4.3087,-4.3489,-4.3564,-4.3614,-4.3765,-4.4468,-4.507,-4.5221,-4.5723,-4.6075,-4.6075,-4.62,-4.6301,-4.6301,-4.6301,-4.6301,-4.6301,-4.6301,-4.6301,-4.6301,-4.6301,-4.6301,-4.6301,-4.6301,-4.6301,-4.6301,-4.6301,-4.6301,-4.6301,-4.6301,-4.6301,-4.6301,-4.6301,-4.6301,-4.6301,-4.6301,-4.6301,-1.7168,-1.7584,0.0,0.0,0.0,0.0,-2.5898,-2.7157,0.0,0.0,0.0,0.0,0.0,0.0,0.0,0.0,0.0,0.0,0.0,0.0,0.0,0.0,0.0,0.0,0.0,0.0,0.0,-3.6405,-3.6405,-3.6405,-3.6405,-3.6405,-3.6405,-3.6405,-3.6405,-3.6933,-3.799,-3.8015,-3.8567,-3.9697,-3.9697,-3.9697,-3.9697,-3.9697,-3.9697,-3.9697,-3.9697,-3.9697,-3.9697,-3.9697,-3.9697,-3.9697,-3.9697,-3.9697,-3.9697,-3.9697,-3.9697,-3.9697,-3.9697,-3.9697,-3.9697,-3.9697,-3.9697,-3.9697,-3.9697,-4.0074,-4.0626,-4.1125,-4.1907,-4.264,-4.2886,-4.2986,-4.2986,-4.2986,-4.2986,-4.3137,-4.3689,-4.3991,-4.4217,-4.4468,-4.5045,-4.5573,-4.5799,-4.61,-4.6301,-4.6301,-4.6301,-4.6301,-4.6301,-4.6301,-4.6301,-4.6301,-4.6301,-4.6301,-4.6301,-4.6301,-4.6301,-4.6301,-4.6301,-4.6301,-4.6301,-4.6301,-4.6301,-4.6301,-4.6301,-4.6301,-4.6301,-4.6301,-4.6301,-4.6301,-4.6301,-4.6301,-1.7871,-1.8203,0.0,-2.1306,-2.0509,0.0,-2.6587,-2.693,-2.7062,0.0,0.0,0.0,0.0,0.0,0.0,0.0,0.0,0.0,0.0,0.0,0.0,0.0,0.0,0.0,0.0,-3.6405,-3.6405,-3.6405,-3.6405,-3.6405,-3.6405,-3.6405,-3.6405,-3.6405,-3.6405,-3.6933,-3.799,-3.8015,-3.8567,-3.9697,-3.9697,-3.9697,-3.9697,-3.9697,-3.9697,-3.9697,-3.9697,-3.9697,-3.9697,-3.9697,-3.9697,-3.9697,-3.9697,-3.9697,-3.9697,-3.9697,-3.9697,-3.9697,-3.9697,-3.9697,-3.9697,-3.9697,-3.9697,-3.9697,-3.9697,-4.0124,-4.0727,-4.13,-4.2233,-4.2986,-4.2986,-4.2986,-4.2986,-4.2986,-4.2986,-4.3137,-4.3765,-4.4267,-4.4819,-4.5447,-4.5573,-4.5723,-4.6225,-4.6301,-4.6301,-4.6301,-4.6301,-4.6301,-4.6301,-4.6301,-4.6301,-4.6301,-4.6301,-4.6301,-4.6301,-4.6301,-4.6301,-4.6301,-4.6301,-4.6301,-4.6301,-4.6301,-4.6301,-4.6301,-4.6301,-4.6301,-4.6301,-4.6301,-4.6301,-4.6301,-4.6301,-4.6301,-1.9473,-1.9531,-1.9585,-1.9349,-1.9747,0.0,-2.142,-2.2394,-2.3842,0.0,0.0,0.0,0.0,0.0,0.0,0.0,0.0,0.0,0.0,0.0,0.0,0.0,0.0,0.0,0.0,-3.6405,-3.6405,-3.6405,-3.6405,-3.6405,-3.6405,-3.6405,-3.6405,-3.6405,-3.6405,-3.6933,-3.799,-3.8015,-3.8567,-3.9697,-3.9697,-3.9697,-3.9697,-3.9697,-3.9697,-3.9697,-3.9697,-3.9697,-3.9697,-3.9697,-3.9697,-3.9697,-3.9697,-3.9697,-3.9697,-3.9697,-3.9697,-3.9697,-3.9697,-3.9697,-3.9697,-3.9697,-3.9697,-3.9697,-3.9697,-4.04,-4.1326,-4.2384,-4.2811,-4.2986,-4.2986,-4.2986,-4.2986,-4.2986,-4.2986,-4.3263,-4.4242,-4.4543,-4.492,-4.5949,-4.615,-4.6175,-4.6301,-4.6301,-4.6301,-4.6301,-4.6301,-4.6301,-4.6301,-4.6301,-4.6301,-4.6301,-4.6301,-4.6301,-4.6301,-4.6301,-4.6301,-4.6301,-4.6301,-4.6301,-4.6301,-4.6301,-4.6301,-4.6301,-4.6301,-4.6301,-4.6301,-4.6301,-4.6301,-4.6301,-4.6301,-4.6301,-2.0352,-2.0234,-2.0251,-2.0169,0.0,0.0,0.0,-2.1717,-2.2885,-2.5613,-2.5692,0.0,0.0,0.0,0.0,0.0,0.0,0.0,0.0,0.0,0.0,0.0,0.0,0.0,0.0,-3.5956,-3.6081,-3.638,-3.6405,-3.6405,-3.6405,-3.6405,-3.6405,-3.6405,-3.6405,-3.6933,-3.799,-3.8015,-3.8567,-3.9697,-3.9697,-3.9697,-3.9697,-3.9697,-3.9697,-3.9697,-3.9697,-3.9697,-3.9697,-3.9697,-3.9697,-3.9697,-3.9697,-3.9697,-3.9697,-3.9697,-3.9697,-3.9697,-3.9697,-3.9697,-3.9697,-3.9697,-3.9697,-3.9697,-3.9697,-4.0475,-4.1526,-4.266,-4.2986,-4.2986,-4.2986,-4.2986,-4.2986,-4.2986,-4.2986,-4.3288,-4.4392,-4.4618,-4.497,-4.61,-4.6301,-4.6301,-4.6301,-4.6301,-4.6301,-4.6301,-4.6301,-4.6301,-4.6301,-4.6301,-4.6301,-4.6301,-4.6301,-4.6301,-4.6301,-4.6301,-4.6301,-4.6301,-4.6301,-4.6301,-4.6301,-4.6301,-4.6301,-4.6301,-4.6301,-4.6301,-4.6301,-4.6301,-4.6301,-4.6301,-4.6301,-4.6301,-2.1212,-2.1094,-2.1233,0.0,0.0,-2.0585,0.0,0.0,0.0,-2.4909,0.0,0.0,0.0,0.0,0.0,0.0,0.0,0.0,0.0,0.0,0.0,0.0,0.0,0.0,0.0,-3.4981,-3.5228,-3.5981,-3.5902,-3.5927,-3.6182,-3.6355,-3.6405,-3.6405,-3.6405,-3.6933,-3.799,-3.8015,-3.8567,-3.9697,-3.9697,-3.9697,-3.9697,-3.9697,-3.9697,-3.9697,-3.9697,-3.9697,-3.9697,-3.9697,-3.9697,-3.9697,-3.9697,-3.9697,-3.9697,-3.9697,-3.9697,-3.9697,-3.9697,-3.9697,-3.9697,-3.9697,-3.9697,-3.9747,-3.9948,-4.0626,-4.1526,-4.266,-4.2986,-4.2986,-4.2986,-4.2986,-4.2986,-4.2986,-4.3062,-4.3413,-4.4418,-4.4719,-4.5095,-4.61,-4.6301,-4.6301,-4.6301,-4.6301,-4.6301,-4.6301,-4.6301,-4.6301,-4.6301,-4.6301,-4.6301,-4.6301,-4.6301,-4.6301,-4.6301,-4.6301,-4.6301,-4.6301,-4.6301,-4.6301,-4.6301,-4.6301,-4.6301,-4.6301,-4.6301,-4.6301,-4.6301,-4.6301,-4.6301,-4.6301,-4.6301,-4.6301,0.0,0.0,0.0,0.0,-2.1489,0.0,0.0,0.0,-2.0702,-2.0549,0.0,0.0,0.0,0.0,0.0,0.0,0.0,0.0,0.0,0.0,0.0,0.0,0.0,0.0,0.0,0.0,-3.3244,-3.4801,-3.3997,-3.4098,-3.5508,-3.6107,-3.6405,-3.6405,-3.6405,-3.6933,-3.799,-3.8015,-3.8567,-3.9697,-3.9697,-3.9697,-3.9697,-3.9697,-3.9697,-3.9697,-3.9697,-3.9697,-3.9697,-3.9697,-3.9697,-3.9697,-3.9697,-3.9697,-3.9697,-3.9697,-3.9697,-3.9697,-3.9697,-3.9697,-3.9697,-3.9697,-3.9697,-3.9873,-4.0852,-4.1175,-4.1526,-4.266,-4.2986,-4.2986,-4.2986,-4.2986,-4.2986,-4.2986,-4.3338,-4.3865,-4.4493,-4.502,-4.5573,-4.62,-4.6301,-4.6301,-4.6301,-4.6301,-4.6301,-4.6301,-4.6301,-4.6301,-4.6301,-4.6301,-4.6301,-4.6301,-4.6301,-4.6301,-4.6301,-4.6301,-4.6301,-4.6301,-4.6301,-4.6301,-4.6301,-4.6301,-4.6301,-4.6301,-4.6301,-4.6301,-4.6301,-4.6301,-4.6301,-4.6301,-4.6301,-4.6301,0.0,0.0,0.0,0.0,0.0,0.0,-1.9453,0.0,-1.9573,0.0,0.0,0.0,0.0,0.0,0.0,0.0,0.0,0.0,0.0,0.0,0.0,0.0,0.0,0.0,0.0,0.0,0.0,0.0,0.0,-3.3319,-3.4931,-3.5579,-3.6031,-3.6405,-3.6405,-3.6933,-3.799,-3.8015,-3.8567,-3.9697,-3.9697,-3.9697,-3.9697,-3.9697,-3.9697,-3.9697,-3.9697,-3.9697,-3.9697,-3.9697,-3.9697,-3.9697,-3.9697,-3.9697,-3.9697,-3.9697,-3.9697,-3.9697,-3.9697,-3.9697,-3.9697,-3.9697,-3.9898,-4.0325,-4.105,-4.1555,-4.1982,-4.276,-4.2986,-4.2986,-4.2986,-4.2986,-4.2986,-4.2986,-4.3388,-4.394,-4.4493,-4.507,-4.5648,-4.62,-4.6301,-4.6301,-4.6301,-4.6301,-4.6301,-4.6301,-4.6301,-4.6301,-4.6301,-4.6301,-4.6301,-4.6301,-4.6301,-4.6301,-4.6301,-4.6301,-4.6301,-4.6301,-4.6301,-4.6301,-4.6301,-4.6301,-4.6301,-4.6301,-4.6301,-4.6301,-4.6301,-4.6301,-4.6301,-4.6301,-4.6301,-4.6301,-2.3047,0.0,0.0,0.0,0.0,0.0,0.0,0.0,0.0,0.0,0.0,0.0,0.0,0.0,0.0,0.0,0.0,0.0,0.0,0.0,0.0,0.0,0.0,0.0,0.0,0.0,0.0,0.0,0.0,0.0,-3.4374,-3.4981,-3.5629,-3.638,-3.6405,-3.6933,-3.799,-3.8015,-3.8567,-3.9697,-3.9697,-3.9697,-3.9697,-3.9697,-3.9697,-3.9697,-3.9697,-3.9697,-3.9697,-3.9697,-3.9697,-3.9697,-3.9697,-3.9697,-3.9697,-3.9697,-3.9697,-3.9697,-3.9697,-3.9697,-3.9722,-3.9873,-4.0199,-4.0651,-4.1354,-4.1831,-4.2313,-4.2866,-4.2986,-4.2986,-4.2986,-4.2986,-4.2986,-4.2986,-4.3514,-4.4141,-4.4543,-4.5196,-4.5824,-4.6225,-4.6301,-4.6301,-4.6301,-4.6301,-4.6301,-4.6301,-4.6301,-4.6301,-4.6301,-4.6301,-4.6301,-4.6301,-4.6301,-4.6301,-4.6301,-4.6301,-4.6301,-4.6301,-4.6301,-4.6301,-4.6301,-4.6301,-4.6301,-4.6301,-4.6301,-4.6301,-4.6301,-4.6301,-4.6301,-4.6301,-4.6301,-4.6301,0.0,0.0,0.0,-2.1388,0.0,0.0,0.0,0.0,-1.9764,0.0,0.0,0.0,0.0,0.0,0.0,0.0,0.0,0.0,0.0,0.0,0.0,0.0,0.0,0.0,0.0,0.0,0.0,0.0,0.0,0.0,-3.3721,-3.4449,-3.5253,-3.638,-3.6405,-3.6933,-3.799,-3.8015,-3.8567,-3.9697,-3.9697,-3.9697,-3.9697,-3.9697,-3.9697,-3.9697,-3.9697,-3.9697,-3.9697,-3.9697,-3.9697,-3.9697,-3.9697,-3.9697,-3.9697,-3.9697,-3.9697,-3.9697,-3.9697,-3.9697,-3.9798,-4.0325,-4.0501,-4.0727,-4.1861,-4.2187,-4.2313,-4.2866,-4.2986,-4.2986,-4.2986,-4.2986,-4.2986,-4.2986,-4.3815,-4.4593,-4.4618,-4.5497,-4.6276,-4.6301,-4.6301,-4.6301,-4.6301,-4.6301,-4.6301,-4.6301,-4.6301,-4.6301,-4.6301,-4.6301,-4.6301,-4.6301,-4.6301,-4.6301,-4.6301,-4.6301,-4.6301,-4.6301,-4.6301,-4.6301,-4.6301,-4.6301,-4.6301,-4.6301,-4.6301,-4.6301,-4.6301,-4.6301,-4.6301,-4.6301,-4.6301,-4.6301,0.0,0.0,-2.5703,-2.2949,0.0,0.0,0.0,0.0,0.0,0.0,0.0,0.0,0.0,0.0,0.0,0.0,0.0,0.0,0.0,0.0,0.0,0.0,0.0,0.0,0.0,0.0,0.0,0.0,0.0,0.0,0.0,-3.4022,-3.5052,-3.5805,-3.6182,-3.6933,-3.799,-3.8015,-3.8567,-3.9697,-3.9697,-3.9697,-3.9697,-3.9697,-3.9697,-3.9697,-3.9697,-3.9697,-3.9697,-3.9697,-3.9697,-3.9697,-3.9697,-3.9697,-3.9697,-3.9697,-3.9697,-3.9697,-3.9697,-3.9923,-4.0275,-4.045,-4.1003,-4.1735,-4.2087,-4.2464,-4.2791,-4.2936,-4.2986,-4.2986,-4.2986,-4.2986,-4.3062,-4.3438,-4.4091,-4.4719,-4.5121,-4.5773,-4.6301,-4.6301,-4.6301,-4.6301,-4.6301,-4.6301,-4.6301,-4.6301,-4.6301,-4.6301,-4.6301,-4.6301,-4.6301,-4.6301,-4.6301,-4.6301,-4.6301,-4.6301,-4.6301,-4.6301,-4.6301,-4.6301,-4.6301,-4.6301,-4.6301,-4.6301,-4.6301,-4.6301,-4.6301,-4.6301,-4.6301,-4.6301,-4.6301,-4.6301,-2.6269,-2.6816,0.0,-2.4434,-2.3828,0.0,-2.0762,0.0,0.0,0.0,0.0,0.0,0.0,0.0,0.0,0.0,0.0,0.0,0.0,0.0,0.0,0.0,0.0,0.0,0.0,0.0,-2.5787,-2.772,0.0,0.0,0.0,0.0,-3.4575,-3.5458,-3.6081,-3.6933,-3.799,-3.8015,-3.8567,-3.9697,-3.9697,-3.9697,-3.9697,-3.9697,-3.9697,-3.9697,-3.9697,-3.9697,-3.9697,-3.9697,-3.9697,-3.9697,-3.9697,-3.9697,-3.9697,-3.9697,-3.9697,-3.9697,-3.9697,-4.0049,-4.0551,-4.0752,-4.143,-4.2238,-4.2439,-4.2766,-4.2986,-4.2986,-4.2986,-4.2986,-4.2986,-4.3112,-4.3363,-4.3714,-4.4367,-4.502,-4.5422,-4.5924,-4.6301,-4.6301,-4.6301,-4.6301,-4.6301,-4.6301,-4.6301,-4.6301,-4.6301,-4.6301,-4.6301,-4.6301,-4.6301,-4.6301,-4.6301,-4.6301,-4.6301,-4.6301,-4.6301,-4.6301,-4.6301,-4.6301,-4.6301,-4.6301,-4.6301,-4.6301,-4.6301,-4.6301,-4.6301,-4.6301,-4.6301,-4.6301,-4.6301,-4.6301]},{"header":{"parameterUnit":"m.s-1","parameterCategory":1,"la1":30.6,"la2":29.2853,"lo1":-89.7004,"lo2":-87.6739,"dy":0.0162,"dx":0.0183,"nx":112,"ny":82,"refTime":"2025-02-26T06:00:00:Z","depth":0,"parameterNumber":3,"parameterNumberName":"V-component_of_WINDS"},"data":[0.0,0.0,0.0,0.0,0.0,0.0,0.0,0.0,0.0,0.0,0.0,0.0,0.0,0.0,0.0,0.0,0.0,0.0,0.0,0.0,0.0,0.0,0.0,0.0,0.0,0.0,0.0,0.0,0.0,0.0,0.0,0.0,0.0,0.0,0.0,0.0,0.0,0.0,0.0,0.0,0.0,0.0,0.0,0.0,0.0,0.0,0.0,0.0,0.0,0.0,0.0,0.0,0.0,0.0,0.0,0.0,0.0,0.0,0.0,0.0,0.0,0.0,0.0,0.0,0.0,0.0,0.0,0.0,0.0,0.0,0.0,0.0,0.0,0.0,0.0,0.0,0.0,0.0,0.0,0.0,0.0,0.0,0.0,0.0,0.0,0.0,0.0,0.0,0.0,0.0,2.6013,2.7745,2.9603,3.0909,3.1361,3.0331,2.8273,2.5001,0.0,0.0,0.0,0.0,0.0,0.0,0.0,0.0,0.0,0.0,0.0,0.0,0.0,0.0,0.0,0.0,0.0,0.0,0.0,0.0,0.0,0.0,0.0,0.0,0.0,0.0,0.0,0.0,0.0,0.0,0.0,0.0,0.0,0.0,0.0,0.0,0.0,0.0,0.0,0.0,0.0,0.0,0.0,0.0,0.0,0.0,0.0,0.0,0.0,0.0,0.0,0.0,0.0,0.0,0.0,0.0,0.0,0.0,0.0,0.0,0.0,0.0,0.0,0.0,0.0,0.0,0.0,0.0,0.0,0.0,0.0,0.0,0.0,0.0,0.0,0.0,0.0,0.0,0.0,0.0,0.0,0.0,0.0,0.0,0.0,0.0,0.0,0.0,0.0,0.0,0.0,0.0,0.0,0.0,0.0,0.0,0.0,0.0,0.0,0.0,0.0,0.0,0.0,0.0,2.5912,3.0306,3.106,3.1311,3.1386,2.9955,2.7809,2.4976,0.0,0.0,0.0,0.0,0.0,0.0,0.0,0.0,0.0,0.0,0.0,0.0,0.0,0.0,0.0,0.0,0.0,0.0,0.0,0.0,0.0,0.0,0.0,0.0,0.0,0.0,0.0,0.0,0.0,0.0,0.0,0.0,0.0,0.0,0.0,0.0,0.0,0.0,0.0,0.0,0.0,0.0,0.0,0.0,0.0,0.0,0.0,0.0,0.0,0.0,0.0,0.0,0.0,0.0,0.0,0.0,0.0,0.0,0.0,0.0,0.0,0.0,0.0,0.0,0.0,0.0,0.0,0.0,0.0,0.0,0.0,0.0,0.0,0.0,0.0,0.0,0.0,0.0,0.0,0.0,0.0,0.0,0.0,0.0,0.0,0.0,0.0,0.0,0.0,0.0,0.0,0.0,0.0,0.0,0.0,0.0,0.0,0.0,0.0,0.0,0.0,0.0,0.0,2.6044,2.7946,3.105,3.1386,3.1286,3.0984,3.0005,2.8217,2.5531,2.4187,0.0,0.0,0.0,0.0,0.0,0.0,0.0,0.0,0.0,0.0,0.0,0.0,0.0,0.0,0.0,0.0,0.0,0.0,0.0,0.0,0.0,0.0,0.0,0.0,0.0,0.0,0.0,0.0,0.0,0.0,0.0,0.0,0.0,0.0,0.0,0.0,0.0,0.0,0.0,0.0,0.0,0.0,0.0,0.0,0.0,0.0,0.0,0.0,0.0,0.0,0.0,0.0,0.0,0.0,0.0,0.0,0.0,0.0,0.0,0.0,0.0,0.0,0.0,0.0,0.0,0.0,0.0,0.0,0.0,0.0,0.0,0.0,0.0,0.0,0.0,0.0,0.0,0.0,0.0,0.0,0.0,0.0,0.0,0.0,0.0,0.0,0.0,0.0,0.0,0.0,0.0,0.0,0.0,0.0,0.0,0.0,0.0,0.0,0.0,0.0,0.0,0.0,2.9253,3.0574,3.1963,3.2103,3.1897,3.1318,3.0189,2.8531,2.6272,2.4471,0.0,0.0,0.0,0.0,0.0,0.0,0.0,0.0,0.0,0.0,0.0,0.0,0.0,0.0,0.0,0.0,0.0,0.0,0.0,0.0,0.0,0.0,0.0,0.0,0.0,0.0,0.0,0.0,0.0,0.0,0.0,0.0,0.0,0.0,0.0,0.0,0.0,0.0,0.0,0.0,0.0,0.0,0.0,0.0,0.0,0.0,0.0,0.0,0.0,0.0,0.0,0.0,0.0,0.0,0.0,0.0,0.0,0.0,0.0,0.0,0.0,0.0,0.0,0.0,0.0,0.0,0.0,0.0,0.0,0.0,0.0,0.0,0.0,0.0,0.0,0.0,0.0,0.0,0.0,0.0,0.0,0.0,0.0,0.0,0.0,0.0,0.0,0.0,0.0,0.0,0.0,0.0,0.0,0.0,0.0,0.0,0.0,0.0,0.0,0.0,0.0,0.0,3.0851,3.3073,3.4087,3.4163,3.3943,3.3266,3.0474,2.8293,2.7171,2.4076,0.0,0.0,0.0,0.0,0.0,0.0,0.0,0.0,0.0,0.0,0.0,0.0,0.0,0.0,0.0,0.0,0.0,0.0,0.0,0.0,0.0,0.0,0.0,0.0,0.0,0.0,0.0,0.0,0.0,0.0,0.0,0.0,0.0,0.0,0.0,0.0,0.0,0.0,0.0,0.0,0.0,0.0,0.0,0.0,0.0,0.0,0.0,0.0,0.0,0.0,0.0,0.0,0.0,0.0,0.0,0.0,0.0,0.0,0.0,0.0,0.0,0.0,0.0,0.0,0.0,0.0,0.0,0.0,0.0,0.0,0.0,0.0,0.0,0.0,0.0,0.0,0.0,0.0,0.0,0.0,0.0,0.0,0.0,0.0,0.0,0.0,0.0,0.0,0.0,0.0,0.0,0.0,0.0,0.0,0.0,0.0,0.0,0.0,0.0,0.0,0.0,0.0,3.1182,3.3318,0.0,3.4389,3.3741,3.2159,3.1093,2.9301,2.644,0.0,0.0,0.0,0.0,0.0,0.0,0.0,0.0,0.0,0.0,0.0,0.0,0.0,0.0,0.0,0.0,0.0,0.0,0.0,0.0,0.0,0.0,0.0,0.0,0.0,0.0,0.0,0.0,0.0,0.0,0.0,0.0,0.0,0.0,0.0,0.0,0.0,0.0,0.0,0.0,0.0,0.0,0.0,0.0,0.0,0.0,0.0,0.0,0.0,0.0,0.0,0.0,0.0,0.0,0.0,0.0,0.0,0.0,0.0,0.0,0.0,0.0,0.0,0.0,0.0,0.0,0.0,0.0,0.0,0.0,0.0,0.0,0.0,0.0,0.0,0.0,0.0,0.0,0.0,0.0,0.0,0.0,0.0,0.0,0.0,0.0,0.0,0.0,0.0,0.0,0.0,0.0,0.0,0.0,0.0,0.0,0.0,0.0,0.0,0.0,0.0,0.0,2.933,3.2201,3.4266,0.0,3.5342,3.4578,3.2704,3.1758,2.9935,2.6834,0.0,0.0,0.0,0.0,0.0,0.0,0.0,0.0,0.0,0.0,0.0,0.0,0.0,0.0,0.0,0.0,0.0,0.0,0.0,0.0,0.0,0.0,0.0,0.0,0.0,0.0,0.0,0.0,0.0,0.0,0.0,0.0,0.0,0.0,0.0,0.0,0.0,0.0,0.0,0.0,0.0,0.0,0.0,0.0,0.0,0.0,0.0,0.0,0.0,0.0,0.0,0.0,0.0,0.0,0.0,0.0,0.0,0.0,0.0,0.0,0.0,0.0,0.0,0.0,0.0,0.0,0.0,0.0,0.0,0.0,0.0,0.0,0.0,0.0,0.0,0.0,0.0,0.0,0.0,0.0,0.0,0.0,0.0,0.0,0.0,0.0,0.0,0.0,0.0,0.0,0.0,0.0,0.0,0.0,0.0,0.0,0.0,0.0,0.0,0.0,0.0,0.0,3.1037,3.4113,3.6341,3.7272,3.7404,3.6896,3.5576,3.2437,2.9983,0.0,0.0,0.0,0.0,0.0,0.0,0.0,0.0,0.0,0.0,0.0,0.0,0.0,0.0,0.0,0.0,0.0,0.0,0.0,0.0,0.0,0.0,0.0,0.0,0.0,0.0,0.0,0.0,0.0,0.0,0.0,0.0,0.0,0.0,0.0,0.0,0.0,0.0,0.0,0.0,0.0,0.0,0.0,0.0,0.0,0.0,0.0,0.0,0.0,0.0,0.0,0.0,0.0,0.0,0.0,0.0,0.0,0.0,0.0,0.0,0.0,0.0,0.0,0.0,0.0,0.0,0.0,0.0,0.0,0.0,0.0,0.0,0.0,0.0,0.0,0.0,0.0,0.0,0.0,0.0,0.0,0.0,0.0,0.0,0.0,0.0,0.0,0.0,0.0,0.0,0.0,0.0,0.0,0.0,0.0,0.0,0.0,0.0,0.0,0.0,0.0,0.0,0.0,3.0466,3.4042,3.6446,3.6712,3.6776,3.6153,3.4568,3.3291,3.0981,2.7147,0.0,0.0,0.0,0.0,0.0,0.0,0.0,0.0,0.0,0.0,0.0,0.0,0.0,0.0,0.0,0.0,0.0,0.0,0.0,0.0,0.0,0.0,0.0,0.0,0.0,0.0,0.0,0.0,0.0,0.0,0.0,0.0,0.0,0.0,0.0,0.0,0.0,0.0,0.0,0.0,0.0,0.0,0.0,0.0,0.0,0.0,0.0,0.0,0.0,0.0,0.0,0.0,0.0,0.0,0.0,0.0,0.0,0.0,0.0,0.0,0.0,0.0,0.0,0.0,0.0,0.0,0.0,0.0,0.0,0.0,0.0,0.0,0.0,0.0,0.0,0.0,0.0,0.0,0.0,0.0,0.0,0.0,0.0,0.0,0.0,0.0,0.0,0.0,0.0,0.0,0.0,0.0,0.0,0.0,0.0,0.0,0.0,0.0,0.0,0.0,0.0,0.0,3.0253,3.3993,3.6477,3.6477,3.6477,3.5978,3.4702,3.4186,3.199,2.7426,0.0,0.0,0.0,0.0,0.0,0.0,0.0,0.0,0.0,0.0,0.0,0.0,0.0,0.0,0.0,0.0,0.0,0.0,0.0,0.0,0.0,0.0,0.0,0.0,0.0,0.0,0.0,0.0,0.0,0.0,0.0,0.0,0.0,0.0,0.0,0.0,0.0,0.0,0.0,0.0,0.0,0.0,0.0,0.0,0.0,0.0,0.0,0.0,0.0,0.0,0.0,0.0,0.0,0.0,0.0,0.0,0.0,0.0,0.0,0.0,0.0,0.0,0.0,0.0,0.0,0.0,0.0,0.0,0.0,0.0,0.0,0.0,0.0,0.0,0.0,0.0,0.0,0.0,0.0,0.0,0.0,0.0,0.0,0.0,0.0,0.0,0.0,0.0,0.0,0.0,0.0,0.0,0.0,0.0,0.0,0.0,0.0,0.0,0.0,0.0,0.0,0.0,3.0163,3.3903,3.6387,3.6387,3.6387,3.6148,3.5549,3.4891,3.2886,2.9026,0.0,0.0,0.0,0.0,0.0,0.0,0.0,0.0,0.0,0.0,0.0,0.0,0.0,0.0,0.0,0.0,0.0,0.0,0.0,0.0,0.0,0.0,0.0,0.0,0.0,0.0,0.0,0.0,0.0,0.0,0.0,0.0,0.0,0.0,0.0,0.0,0.0,0.0,0.0,0.0,0.0,0.0,0.0,0.0,0.0,0.0,0.0,0.0,0.0,0.0,0.0,0.0,0.0,0.0,0.0,0.0,0.0,0.0,0.0,0.0,3.0642,0.0,0.0,0.0,0.0,0.0,0.0,0.0,0.0,0.0,0.0,0.0,0.0,0.0,0.0,0.0,0.0,0.0,0.0,0.0,0.0,0.0,0.0,0.0,0.0,0.0,0.0,0.0,0.0,0.0,0.0,0.0,0.0,0.0,0.0,0.0,0.0,0.0,0.0,0.0,0.0,0.0,2.9594,3.3245,3.5699,3.5699,3.5699,3.5669,3.5519,3.4891,3.3246,3.0283,2.7889,0.0,0.0,0.0,0.0,0.0,0.0,0.0,0.0,0.0,0.0,0.0,0.0,0.0,0.0,0.0,0.0,0.0,0.0,0.0,0.0,0.0,0.0,0.0,0.0,0.0,0.0,0.0,0.0,0.0,0.0,0.0,0.0,0.0,0.0,0.0,0.0,0.0,0.0,0.0,0.0,0.0,0.0,0.0,0.0,0.0,0.0,0.0,0.0,0.0,0.0,0.0,0.0,0.0,0.0,0.0,0.0,0.0,0.0,0.0,0.0,3.1809,0.0,0.0,0.0,0.0,0.0,0.0,0.0,0.0,0.0,0.0,0.0,0.0,0.0,0.0,0.0,0.0,0.0,0.0,0.0,0.0,0.0,0.0,0.0,0.0,0.0,0.0,0.0,0.0,0.0,0.0,0.0,0.0,0.0,0.0,0.0,0.0,0.0,0.0,0.0,0.0,2.9804,3.3245,3.5519,3.5519,3.5519,3.5519,3.5519,3.519,3.3963,3.1629,2.9594,0.0,0.0,0.0,0.0,0.0,0.0,0.0,0.0,0.0,0.0,0.0,0.0,0.0,0.0,0.0,0.0,0.0,0.0,0.0,0.0,0.0,0.0,0.0,0.0,0.0,0.0,0.0,0.0,0.0,0.0,0.0,0.0,0.0,0.0,0.0,0.0,0.0,0.0,0.0,0.0,0.0,0.0,0.0,0.0,0.0,0.0,0.0,0.0,0.0,0.0,0.0,0.0,0.0,3.8931,3.9559,4.0031,3.9499,3.9858,4.0696,3.6866,3.519,3.5043,3.3005,0.0,0.0,0.0,0.0,0.0,0.0,0.0,0.0,0.0,0.0,0.0,0.0,0.0,0.0,0.0,0.0,0.0,0.0,0.0,0.0,0.0,0.0,0.0,0.0,3.2796,3.2766,0.0,0.0,0.0,0.0,0.0,0.0,0.0,0.0,0.0,0.0,0.0,0.0,3.0432,3.3514,3.5519,3.5519,3.5519,3.5519,3.5519,3.5519,3.4741,3.2976,3.1599,2.9475,0.0,0.0,0.0,0.0,0.0,0.0,0.0,0.0,0.0,0.0,0.0,0.0,0.0,0.0,0.0,0.0,0.0,0.0,0.0,0.0,0.0,0.0,0.0,0.0,0.0,0.0,0.0,0.0,0.0,0.0,0.0,0.0,3.3066,3.3335,0.0,0.0,0.0,0.0,0.0,0.0,0.0,0.0,0.0,0.0,0.0,0.0,0.0,3.8362,3.9619,4.0277,4.1003,4.1752,4.2372,4.2692,4.2781,4.2692,4.2751,4.2871,4.2273,0.0,3.7734,3.5789,0.0,0.0,0.0,0.0,0.0,0.0,0.0,0.0,0.0,0.0,0.0,0.0,0.0,0.0,0.0,0.0,0.0,0.0,0.0,0.0,0.0,0.0,3.5818,3.5729,3.5908,3.5579,0.0,3.025,2.7165,2.6153,2.5166,0.0,0.0,0.0,0.0,0.0,0.0,0.0,3.1122,3.3814,3.5519,3.5519,3.5519,3.5519,3.5519,3.5519,3.513,3.4294,3.2976,3.13,2.9172,2.6602,0.0,0.0,0.0,0.0,0.0,0.0,0.0,0.0,0.0,0.0,0.0,0.0,0.0,0.0,0.0,0.0,0.0,0.0,0.0,0.0,0.0,0.0,0.0,0.0,0.0,0.0,0.0,0.0,0.0,3.3514,3.519,3.519,3.5462,3.507,0.0,0.0,0.0,0.0,0.0,0.0,0.0,0.0,0.0,4.0164,4.0494,4.1265,4.2581,4.288,4.3569,4.4586,4.4885,4.5173,4.5544,4.5143,4.5173,4.5514,4.4766,4.3599,4.2073,3.9379,3.6866,3.4651,0.0,0.0,0.0,0.0,3.3215,3.3185,3.5011,3.4921,0.0,3.3155,0.0,0.0,0.0,0.0,0.0,0.0,0.0,0.0,0.0,0.0,0.0,3.7464,3.7554,3.7404,3.684,3.4563,3.1748,0.0,2.8397,2.7564,2.4664,0.0,0.0,0.0,0.0,3.0372,3.2377,3.4322,3.5519,3.5519,3.5519,3.5519,3.5519,3.5519,3.537,3.507,3.4143,3.3066,3.1839,2.9235,2.6931,0.0,0.0,0.0,0.0,0.0,0.0,0.0,0.0,0.0,0.0,0.0,0.0,0.0,0.0,0.0,0.0,0.0,0.0,0.0,0.0,0.0,0.0,0.0,0.0,0.0,0.0,0.0,0.0,3.534,3.7045,3.6537,3.7225,3.7015,0.0,0.0,0.0,0.0,0.0,0.0,4.0098,4.0337,4.1265,4.3099,4.3339,4.3928,4.5065,4.5095,4.5574,4.6561,4.6561,4.683,4.7279,4.68,4.683,4.7249,4.6232,4.5723,4.5334,4.2372,3.9888,3.7948,3.7075,3.6148,3.5459,3.6926,3.7165,3.7105,3.9559,3.9409,3.8003,3.7075,0.0,3.3125,3.1001,0.0,0.0,0.0,0.0,3.4233,3.6237,3.7464,3.8302,3.8781,3.8901,3.8811,3.8452,3.7644,3.5818,0.0,3.1599,3.0793,2.7026,0.0,0.0,0.0,0.0,3.1689,3.3514,3.4771,3.5519,3.5519,3.5519,3.5519,3.5519,3.5519,3.5519,3.5519,3.5011,3.4474,3.3784,3.1719,2.9831,2.8154,0.0,0.0,0.0,0.0,0.0,0.0,0.0,0.0,0.0,0.0,0.0,0.0,0.0,0.0,0.0,0.0,0.0,0.0,0.0,0.0,0.0,0.0,0.0,0.0,0.0,0.0,0.0,0.0,0.0,3.6716,3.923,0.0,0.0,0.0,0.0,3.926,4.0397,4.1482,4.2201,4.2821,4.3808,4.5095,4.5783,4.6441,4.716,4.716,4.7189,4.7249,4.7249,4.7279,4.7309,4.7279,4.7279,4.7309,4.7249,4.686,4.607,4.4007,4.2731,4.1961,4.0666,4.0098,4.0068,4.0157,4.0187,4.0187,4.0337,4.0337,4.0247,4.0157,3.8392,3.6148,3.54,3.4262,0.0,0.0,3.6656,3.7614,3.9619,4.0187,4.0247,4.0277,4.0307,3.9948,3.8661,3.8332,3.7674,0.0,3.4233,3.2916,3.1421,0.0,3.0522,3.1152,3.1899,3.2916,3.4294,3.507,3.5519,3.5519,3.5519,3.5519,3.5519,3.5519,3.5519,3.5519,3.5459,3.516,3.4474,3.3694,3.2078,2.9562,2.6811,0.0,0.0,0.0,0.0,0.0,0.0,0.0,0.0,0.0,0.0,0.0,0.0,0.0,0.0,0.0,0.0,0.0,0.0,0.0,0.0,0.0,0.0,0.0,0.0,0.0,0.0,0.0,0.0,3.9679,4.1414,0.0,3.9865,4.0913,4.1743,4.1884,4.2761,4.3748,4.4855,4.5155,4.5693,4.6561,4.683,4.707,4.7309,4.7309,4.7309,4.7309,4.7309,4.7309,4.7309,4.7309,4.7309,4.7309,4.7309,4.716,4.689,4.6172,4.4975,4.3569,4.309,4.2671,4.2342,4.2761,4.291,4.297,4.3389,4.3269,4.2701,4.1444,3.9828,3.8332,3.8093,3.7704,3.7554,3.8691,3.917,3.9589,4.0726,4.1025,4.1025,4.1025,4.0696,4.0277,3.9798,3.9349,3.8721,3.7584,3.6626,3.534,3.3155,3.3305,3.3365,3.2288,3.3095,3.4113,3.5011,3.534,3.5519,3.5519,3.5519,3.5519,3.5519,3.5519,3.5519,3.5519,3.5519,3.54,3.516,3.4083,3.2856,3.148,2.8876,2.6004,0.0,0.0,0.0,0.0,0.0,0.0,0.0,0.0,0.0,0.0,0.0,0.0,0.0,0.0,0.0,0.0,0.0,0.0,0.0,0.0,0.0,0.0,0.0,0.0,0.0,0.0,4.1564,4.2013,4.3599,4.4077,4.2521,4.3389,4.4107,4.4276,4.4945,4.5813,4.692,4.677,4.695,4.7608,4.7429,4.7309,4.7309,4.7309,4.7309,4.7309,4.7309,4.7309,4.7309,4.7309,4.7309,4.7309,4.7309,4.7309,4.7309,4.7309,4.6531,4.5304,4.5065,4.4695,4.4366,4.4825,4.4975,4.5065,4.5484,4.5065,4.4077,4.2521,4.1294,4.0367,4.0157,4.0068,4.0217,4.0876,4.1055,4.1205,4.1863,4.2043,4.1983,4.1811,4.1422,4.0935,4.0487,4.0068,3.9559,3.8871,3.8212,3.7135,3.516,3.537,3.54,3.4053,3.4412,3.4981,3.5459,3.5519,3.5519,3.5519,3.5519,3.5519,3.5519,3.528,3.525,3.5489,3.507,3.4921,3.516,3.3873,3.2856,3.2168,2.9594,2.6931,2.4268,0.0,0.0,0.0,0.0,0.0,0.0,0.0,0.0,0.0,0.0,0.0,0.0,0.0,0.0,0.0,0.0,0.0,0.0,0.0,0.0,0.0,0.0,0.0,3.8332,4.1354,4.3449,4.3509,4.5783,4.6591,4.4676,4.6232,4.71,4.6471,4.701,4.7638,4.8297,4.7728,4.7668,4.8297,4.7698,4.7369,4.7339,4.7339,4.7339,4.7309,4.7309,4.7309,4.7309,4.7309,4.7309,4.7309,4.7309,4.7309,4.7309,4.7309,4.7309,4.7249,4.6548,4.6309,4.6309,4.6309,4.6309,4.6309,4.6309,4.5484,4.4257,4.3559,4.294,4.2321,4.1654,4.1482,4.1564,4.2261,4.244,4.256,4.314,4.329,4.314,4.259,4.241,4.2051,4.0726,4.0457,4.0247,3.9589,3.8901,3.8242,3.7554,3.6956,3.6537,3.6507,3.5968,0.0,3.5519,3.5519,3.5519,3.5519,3.5519,3.5519,3.5519,3.4891,3.4771,3.5429,3.4262,3.3814,3.4474,3.3245,3.2198,3.154,2.8966,2.7016,2.5734,0.0,0.0,0.0,0.0,0.0,0.0,0.0,0.0,0.0,0.0,0.0,0.0,0.0,0.0,0.0,0.0,0.0,0.0,0.0,0.0,0.0,3.8931,4.0913,4.1242,4.3299,4.5125,4.6112,4.7698,4.8506,4.7967,4.8461,4.8656,4.8476,4.8626,4.885,4.903,4.888,4.8805,4.903,4.888,4.8506,4.8027,4.8027,4.7788,4.7309,4.7309,4.7309,4.7309,4.7309,4.7309,4.7309,4.7309,4.7309,4.7309,4.7309,4.7309,4.7279,4.71,4.704,4.704,4.704,4.704,4.704,4.704,4.6471,4.5622,4.4975,4.4317,4.3658,4.3,4.2791,4.2821,4.3,4.306,4.312,4.326,4.329,4.326,4.312,4.2701,4.2291,4.1931,4.1482,4.0905,4.0247,3.9978,3.9469,3.8332,3.7973,3.7704,3.7225,3.6626,0.0,3.6207,3.5789,3.5519,3.5519,3.5519,3.5519,3.5519,3.534,3.51,3.4771,3.4444,3.4324,3.4503,3.3664,3.2916,3.2228,3.0133,2.8873,0.0,0.0,0.0,0.0,0.0,0.0,0.0,0.0,0.0,0.0,0.0,0.0,0.0,0.0,0.0,0.0,0.0,0.0,0.0,0.0,0.0,0.0,4.1624,4.3818,4.4347,4.5424,4.6741,4.8356,4.9194,4.9673,4.9673,4.9673,4.9553,4.9329,4.9299,4.9419,4.9643,4.9404,4.9449,4.9673,4.9449,4.912,4.8686,4.8416,4.8087,4.7728,4.7429,4.7309,4.7309,4.7309,4.7309,0.0,4.7764,4.7904,4.7946,4.8418,4.8584,0.0,0.0,0.0,0.0,0.0,4.7904,4.7988,4.8418,4.7865,4.6841,4.6488,4.5585,4.4616,4.3917,4.3708,4.3648,4.3379,4.329,4.329,4.329,4.329,4.329,4.329,4.303,4.2701,4.244,4.2111,4.1632,4.0935,0.0,0.0,3.9379,3.8751,3.8272,3.7883,3.7285,3.6866,3.6866,3.6537,3.6297,3.6297,3.6297,3.6207,3.5938,3.5669,0.0,0.0,0.0,3.3964,3.3664,3.3275,0.0,0.0,0.0,0.0,0.0,0.0,0.0,0.0,2.8338,2.8338,0.0,0.0,0.0,0.0,0.0,0.0,0.0,0.0,0.0,0.0,0.0,0.0,0.0,0.0,0.0,0.0,4.3918,4.5992,4.7339,4.7578,4.8297,4.9986,5.0255,5.0315,5.0315,5.0315,5.0122,4.9569,4.9539,4.9733,5.0255,0.0,0.0,0.0,0.0,4.9509,4.9419,4.8716,4.8356,4.8267,4.7739,4.7409,4.7309,4.7409,4.7409,4.7352,4.8377,4.88,4.8851,4.997,5.0397,5.0204,4.8366,4.7495,4.7409,4.846,4.8718,4.8759,4.9694,0.0,0.0,4.7818,4.6885,4.5615,4.483,4.4549,4.4328,4.3599,4.3349,4.329,4.329,4.329,4.329,4.329,4.329,4.314,4.265,4.25,4.2321,4.1662,4.1025,4.0576,4.0427,3.9349,3.8512,3.8512,3.7943,3.7524,3.7524,3.7464,3.7404,3.7404,0.0,0.0,3.6626,3.6058,3.5669,3.5519,3.4322,3.3335,3.2766,3.2826,3.2856,3.2856,3.2856,3.3185,3.3844,3.4444,3.4773,3.4743,3.046,2.9774,0.0,0.0,0.0,0.0,0.0,0.0,0.0,0.0,0.0,0.0,0.0,0.0,0.0,0.0,0.0,4.4805,4.6102,4.7369,4.8686,4.9344,4.9777,5.0136,5.0674,5.0973,5.0973,5.0973,5.099,5.084,5.084,5.09,5.102,5.09,5.09,5.102,5.09,5.0571,5.0016,4.9404,4.885,4.8311,0.0,0.0,4.7352,4.8157,4.8072,4.7352,4.8377,4.88,4.8851,4.997,5.0397,5.0358,4.9931,4.879,4.7409,4.846,4.8293,4.7593,4.7807,4.8201,4.8531,4.8004,4.8169,4.8345,4.6865,4.6004,0.0,4.4379,4.3708,4.329,4.329,4.329,4.329,4.329,4.329,4.326,4.314,4.315,4.294,4.2351,4.2111,4.1692,4.0576,3.9738,3.923,3.923,3.8631,3.8212,3.8212,3.7734,3.7404,3.7404,3.7404,3.7375,3.7255,3.7105,3.6596,3.5579,3.4741,3.4264,3.4144,3.4622,3.4921,3.4921,3.4921,3.525,3.5908,3.6028,3.6357,3.6806,3.4861,3.4532,0.0,0.0,0.0,0.0,0.0,0.0,0.0,0.0,0.0,0.0,0.0,4.1268,4.2686,0.0,4.5868,4.7216,4.8829,5.0067,5.055,5.1149,5.1349,5.0767,5.102,5.1229,5.1229,5.1229,5.1229,5.1229,5.1229,5.1229,5.1229,5.1229,5.1229,5.1229,5.1229,5.105,5.0674,4.9763,4.9149,4.882,4.8825,4.8512,4.8072,4.8553,4.8841,4.8872,4.88,4.9416,5.0442,5.1521,5.1631,5.1192,5.174,5.0665,4.8963,4.9977,4.9734,4.8922,4.9416,4.9615,4.9552,4.9206,4.9469,4.9687,4.8491,4.7934,4.741,4.615,4.521,4.4633,4.473,4.4051,4.3448,4.3927,4.3654,4.329,4.329,4.329,4.32,4.291,4.262,4.2201,4.1542,4.0576,3.9798,3.9433,3.911,3.8901,3.8901,3.8631,3.8422,3.8422,3.8422,3.8272,3.7943,3.7584,3.7135,3.6507,3.6148,3.5938,3.5938,3.6267,3.6447,3.6447,3.6447,3.6626,3.6956,3.6956,3.7464,3.8392,3.7764,3.7464,0.0,0.0,0.0,0.0,0.0,0.0,0.0,3.7359,3.9397,4.11,4.227,4.3676,4.6039,4.6939,4.7852,4.9521,5.1051,5.2031,5.1902,5.2321,5.2245,5.1293,5.1229,5.1229,5.1229,5.1229,5.1229,5.1229,5.1229,5.1229,5.1229,5.1229,5.1229,5.1229,5.1229,5.1229,5.1229,4.9912,4.9299,4.9299,4.9189,4.8973,4.881,4.9215,4.9773,5.0358,4.9496,5.0288,5.2277,5.2904,5.28,5.2312,5.3144,5.2487,5.1075,5.1704,5.1266,5.0512,5.1303,5.1192,5.0665,5.0435,5.0665,5.0833,4.9882,4.963,4.942,4.8075,4.6977,4.6216,4.6347,4.5142,4.4013,4.4662,4.4197,4.3566,4.3329,4.329,4.329,4.329,4.291,4.256,4.241,4.1512,4.0516,3.9738,3.9463,3.9373,3.9373,3.9373,3.9373,3.9373,3.9373,3.92,3.8631,3.7973,3.7584,3.7584,3.7494,3.7404,3.7404,3.7404,3.7464,3.7584,3.7734,3.7853,3.8003,3.8123,3.8721,3.9798,3.9798,3.9499,3.5094,3.373,3.3169,3.5458,3.5764,3.6384,0.0,4.2124,4.3428,4.3104,4.5579,4.7889,4.8087,4.8348,4.9393,5.2123,5.1403,5.0818,5.1747,5.1592,5.1339,5.1229,5.1229,5.1229,5.1229,5.1229,5.1229,5.1229,5.1229,5.1229,5.1229,5.1229,5.1229,5.1229,5.1229,5.1229,5.1229,4.9912,4.9299,4.9299,4.9944,4.9734,4.8851,5.0709,5.1117,5.0397,5.0281,5.141,5.328,5.2418,5.2557,5.3348,5.345,5.3348,5.3041,5.2205,5.1266,5.0397,5.0512,5.108,5.1561,5.0703,5.1631,5.28,5.0903,5.0496,5.0487,4.9452,4.8189,4.7157,4.7169,4.6546,4.5674,4.4968,4.4699,4.4396,4.3488,4.329,4.329,4.329,4.323,4.303,4.25,4.2291,4.1752,4.0487,3.9798,3.9373,3.9373,3.9373,3.9373,3.9373,3.9373,3.9379,3.9284,3.8661,3.8272,3.8272,3.7734,3.7404,3.7404,3.7404,3.7674,3.8272,3.8871,3.9469,4.0068,4.0666,4.1025,4.1175,4.1175,4.1153,3.6839,3.6241,3.6181,3.7301,3.858,4.0002,4.1641,4.3235,4.4598,4.5264,4.6399,4.7559,4.8451,4.9552,5.0874,0.0,5.2941,5.3164,5.3408,5.2374,5.1349,5.0677,5.0301,5.0391,5.1139,5.1229,5.1229,5.1229,5.1229,5.1229,5.1229,5.1865,5.22,5.22,5.2812,5.2978,5.253,5.1608,5.0965,5.0518,5.1032,5.1043,5.0633,5.1488,5.134,5.0474,5.1667,5.2345,5.2592,5.2765,5.311,5.3518,5.3518,5.3518,5.345,5.3007,5.217,5.1266,5.1266,5.1557,5.1849,5.1414,5.2277,5.3213,5.174,5.1795,5.1991,4.9923,4.893,4.8327,4.7453,4.6159,4.5048,4.4867,4.4358,4.381,4.3409,4.329,4.329,4.329,4.329,4.32,4.297,4.265,4.2201,4.1662,4.0965,4.0546,4.0546,4.0546,4.0546,4.0546,4.0546,4.0546,4.0546,4.0307,4.0164,4.0164,3.9858,3.9709,3.9709,3.9709,3.9858,4.0127,4.0427,4.0696,4.0965,4.1235,4.1602,4.1991,4.2342,4.2731,3.7674,3.7883,3.8512,3.908,4.0994,4.2795,4.3127,4.4347,4.5696,4.681,4.7006,4.7327,4.8584,5.0021,5.1447,5.2817,5.3686,5.422,5.4319,5.2664,5.1145,5.0442,4.9704,4.9749,5.0955,5.0996,5.102,5.1199,5.1229,5.1229,5.1229,5.226,5.29,5.29,5.3999,5.4269,5.3483,5.2829,5.2125,5.1414,5.1736,5.1921,5.1921,5.2205,5.1921,5.1336,5.2522,5.28,5.2383,5.287,5.3213,5.3518,5.3518,5.3518,5.3518,5.3518,5.3007,5.2348,5.2348,5.2348,5.2277,5.1993,5.2627,5.3314,5.2241,5.2627,5.3009,5.0685,4.9918,4.9457,4.813,4.6559,4.5306,4.5094,4.448,4.3826,4.3399,4.329,4.329,4.329,4.329,4.329,4.329,4.294,4.2641,4.2641,4.2222,4.1803,4.1482,4.1422,4.1422,4.1422,4.1422,4.1422,4.1422,4.1422,4.1422,4.1422,4.1422,4.1422,4.1422,4.1422,4.1422,4.1422,4.1602,4.1692,4.1692,4.1833,4.2252,4.295,4.3389,4.3958,3.7434,3.7883,3.8871,4.0816,4.2282,4.3629,4.4915,4.6499,4.7629,4.7327,4.8054,4.8728,4.8769,4.9399,5.0762,5.3591,5.284,5.2297,5.3483,5.1691,5.0351,5.0722,4.9907,4.9672,0.0,5.0455,5.0495,5.1169,5.1229,5.1229,5.1229,5.226,5.29,5.29,5.3999,5.4269,5.3483,5.2829,5.2125,5.1414,5.1736,5.1921,5.1921,5.2973,5.3416,5.3348,5.2348,5.2522,5.3382,5.2348,5.2557,5.3518,5.3518,5.3518,5.3518,5.3518,5.3484,5.345,5.345,5.345,5.328,5.2241,5.2627,5.3314,5.2241,5.2627,5.328,5.2137,5.129,5.0517,4.9502,4.8584,4.7585,4.605,4.5665,4.5202,4.3647,4.329,4.329,4.329,4.329,4.329,4.329,4.326,4.326,4.326,4.326,4.2821,4.1534,4.1422,4.1422,4.1422,4.1422,4.1422,4.1422,4.1422,4.1422,4.1422,4.1422,4.1422,4.1422,4.1422,4.1422,4.1422,4.2051,4.2381,4.2381,4.297,4.3559,4.4257,4.4287,4.4646,3.8063,3.9535,4.1422,4.294,4.4347,4.5502,4.6411,4.7069,4.745,4.7336,4.7707,4.8202,4.8707,5.0089,5.1603,5.2838,5.2963,5.3228,5.4131,5.1924,5.0636,5.1799,5.0002,0.0,0.0,0.0,0.0,5.0465,5.0524,5.0704,5.1199,5.2989,5.4041,5.4041,5.5352,5.5709,5.4974,5.4246,5.3515,5.2782,5.2901,5.2939,5.2973,5.3348,5.3518,5.3484,5.311,5.3144,5.345,5.311,5.3179,5.3518,5.3518,5.3518,5.3518,5.3518,5.3518,5.3518,5.3518,5.3518,5.3416,5.3076,5.3213,5.3314,5.2241,5.2627,5.3144,5.141,5.0731,5.0182,4.8702,4.7623,4.6549,4.5132,4.4779,4.4478,4.3519,4.329,4.329,4.329,4.329,4.329,4.329,4.329,4.329,4.329,4.329,4.314,4.2731,4.2671,4.2671,4.2671,4.2671,4.2671,4.2671,4.2671,4.2671,4.2671,4.2671,4.2671,4.2671,4.2671,4.2671,4.2671,4.288,4.321,4.3658,4.3868,4.4317,4.4975,4.5424,4.5753,3.9595,4.1422,4.3389,4.4706,4.5843,4.68,4.7219,4.7309,4.7249,4.701,4.7148,4.745,4.7964,4.9288,5.0739,5.1898,5.2205,5.2586,5.3503,5.1796,5.0813,5.1989,5.0153,4.9127,0.0,0.0,0.0,4.9853,5.0076,5.0375,5.0794,5.2865,5.4168,5.4589,5.5622,5.6035,5.5681,5.4972,5.4228,5.3518,5.3518,5.3518,5.3518,5.3518,5.3518,5.3518,5.3518,5.3518,5.3518,5.3518,5.3518,5.3518,5.3518,5.3518,5.3518,5.3518,5.3518,5.3518,5.3518,5.3518,5.3518,5.3518,5.3518,5.3382,5.2662,5.2939,5.3144,5.1447,5.093,5.053,4.8644,4.7691,4.6857,4.5357,4.4994,4.4855,4.4167,4.3977,4.3977,4.3977,4.3977,4.3977,4.3977,4.3838,4.3648,4.3648,4.3439,4.329,4.329,4.329,4.329,4.329,4.329,4.329,4.329,4.329,4.329,4.329,4.329,4.329,4.329,4.329,4.3409,4.3648,4.3648,4.4018,4.4676,4.4676,4.5005,4.5663,4.6112,4.6441,4.1782,4.3419,4.4736,4.601,4.683,4.7309,4.7309,4.7279,4.707,4.6369,4.6387,4.6523,0.0,0.0,4.8382,5.0858,5.0728,5.0683,5.179,5.1425,5.1163,0.0,5.0586,0.0,0.0,0.0,0.0,4.9269,0.0,5.0166,5.0255,5.2013,5.3483,5.4483,5.494,5.5277,5.5614,5.4905,5.4194,5.3518,5.3518,5.3518,5.3518,5.3518,5.3518,5.3518,5.3518,5.3518,5.3518,5.3518,5.3518,5.3518,5.3518,5.3518,5.3518,5.3518,5.3518,5.3518,5.3518,5.3518,5.3518,5.3518,5.3518,5.3518,5.3518,5.3518,5.3314,5.2277,5.1957,5.1451,4.9496,4.8851,4.8399,4.6822,4.6364,4.6142,4.5507,4.5346,4.5304,4.5304,4.5304,4.5304,4.5304,4.4766,4.4377,4.4377,4.3798,4.3379,4.329,4.329,4.329,4.329,4.329,4.329,4.329,4.3319,4.3349,4.3349,4.3379,4.3379,4.3379,4.3379,4.3678,4.4347,4.4377,4.4676,4.5334,4.5334,4.5693,4.6339,4.6339,4.6711,4.324,4.4796,4.6022,4.683,4.7189,4.7309,4.7309,4.692,4.6381,4.5693,4.5442,4.5381,4.5488,4.7208,4.8829,4.9507,5.1506,0.0,5.2667,5.3204,0.0,5.4117,5.2499,5.1496,5.1949,5.0205,0.0,0.0,4.9404,4.9942,5.0853,5.2984,5.4072,5.3812,5.4906,5.5334,5.4871,5.416,5.3687,5.3518,5.3518,5.3518,5.3518,5.3518,5.3518,5.3518,5.3518,5.3518,5.3518,5.3518,5.3518,5.3518,5.3518,5.3518,5.3518,5.3518,5.3518,5.3518,5.3518,5.3518,5.3518,5.3518,5.3518,5.3518,5.3518,5.3518,5.3416,5.3144,5.2522,5.1776,5.1266,4.9938,4.8777,4.8655,4.7446,4.6323,4.6465,4.586,4.5304,4.5304,4.5304,4.5304,4.5304,4.5155,4.5035,4.5035,4.4915,4.4436,4.3409,4.329,4.329,4.329,4.329,4.329,4.329,4.3738,4.4077,4.4077,4.4526,4.4796,4.4796,4.4796,4.4885,4.5035,4.5035,4.5394,4.6052,4.6052,4.6411,4.707,4.707,4.716,4.4646,4.5963,4.683,4.7219,4.7309,4.707,4.6202,4.5985,4.5516,4.4009,4.389,4.4106,4.4204,4.6074,4.7656,4.7997,0.0,0.0,5.2523,5.3818,5.4912,5.5067,5.3614,5.2576,5.2501,5.082,4.9673,0.0,4.9673,5.0002,5.0704,5.2745,5.3724,5.3515,5.442,5.4686,5.4126,5.3721,5.3518,5.3518,5.3518,5.3518,5.3518,5.3518,5.3518,5.3518,0.0,5.3518,5.3518,5.3518,5.3518,5.3518,5.3518,5.3518,5.3518,5.3518,5.3518,5.3518,5.3518,5.3518,5.3518,5.3518,5.3518,5.3518,5.3518,5.3518,5.3518,5.3518,5.3076,5.2522,5.2029,5.101,5.0115,4.9885,4.8573,4.7444,4.7707,4.6904,4.6172,4.6172,4.6172,4.6172,4.6172,4.5933,4.5753,4.5753,4.5484,4.5035,4.4287,4.4197,4.4197,4.4197,4.4197,4.4197,4.4197,4.4526,4.4736,4.4736,4.5095,4.5304,4.5304,4.5304,4.5424,4.5753,4.5753,4.6082,4.6741,4.6741,4.695,4.7309,4.7309,4.7309,4.5891,4.686,4.7309,4.7309,4.7249,4.6681,4.4766,4.4786,4.4517,4.2005,4.214,4.2717,4.2676,4.4244,4.5818,4.667,4.9639,5.1917,5.2081,5.3979,5.5297,5.5243,5.4421,5.364,5.3038,5.1661,5.0744,5.0561,5.0591,5.0499,5.0315,5.1954,5.3095,5.3559,5.3815,5.3787,5.3518,5.3518,5.3518,5.3518,5.3518,5.3518,5.3518,5.3518,5.3518,5.3518,0.0,0.0,5.3518,5.3518,5.3518,5.3518,5.3518,5.3518,5.3518,5.3518,5.3518,5.3518,5.3518,5.3518,5.3518,5.3518,5.3518,5.3518,5.3518,5.3518,5.3518,5.3518,5.3518,5.3314,5.2348,5.1993,5.174,5.0968,4.9891,4.9013,4.9013,4.8115,4.7309,4.7309,4.7309,4.7309,4.7309,4.683,4.6399,4.6399,4.5933,4.5574,4.5574,4.5394,4.5304,4.5304,4.5304,4.5304,4.5304,4.5364,4.5424,4.5424,4.5514,4.5574,4.5574,4.5574,4.5843,4.6399,4.6399,4.6741,4.7309,4.7309,4.7309,4.7309,4.7309,4.7309,4.6741,4.7219,4.7309,4.7309,4.689,4.607,4.4646,4.4087,4.3291,4.1202,4.1023,4.1107,4.0541,4.2835,4.5152,4.6127,4.9659,5.2449,5.314,5.5144,5.6389,5.6018,5.585,5.5699,5.5568,5.4507,0.0,0.0,5.2435,5.2016,5.1096,5.2199,5.3186,5.388,5.3695,5.3551,5.3518,5.3518,5.3518,5.3518,5.3518,5.3518,5.3518,5.3518,5.3518,5.3518,5.3518,0.0,5.3518,5.3518,5.3518,5.3518,5.3518,5.3518,5.3518,5.3518,5.3518,5.3518,5.3518,5.3518,5.3518,5.3518,5.3518,5.3518,5.3518,5.3518,5.3518,5.3518,5.3518,5.3484,5.328,5.2557,5.2065,5.28,5.1521,5.0126,5.0126,4.8625,4.7309,4.7309,4.7309,4.7309,4.7309,4.7219,4.713,4.713,4.704,4.695,4.695,4.5992,4.5304,4.5304,4.5304,4.5304,4.5304,4.5813,4.6142,4.6142,4.6651,4.695,4.695,4.695,4.701,4.713,4.713,4.7189,4.7309,4.7309,4.7309,4.7309,4.7309,4.7309,4.695,4.7309,4.7309,4.7309,4.6531,4.5274,4.324,4.2393,4.1461,3.9532,3.953,3.9891,3.9994,4.2179,4.4107,4.4448,4.7568,5.0555,5.2406,5.3985,5.5512,5.6909,5.6586,5.6204,5.6204,5.5247,5.4126,5.2989,5.3439,5.3033,5.1293,5.2087,5.2867,5.3465,5.3509,5.3518,5.3518,5.3518,5.3518,5.3518,5.3518,5.3518,5.3518,5.3518,5.3518,5.3518,5.3518,0.0,5.3518,5.3518,5.3518,5.3518,5.3518,5.3518,5.3518,5.3518,5.3518,5.3518,5.3518,5.3518,5.3518,5.3518,5.3518,5.3518,5.3518,5.3518,5.3518,5.3518,5.3518,5.3518,5.3518,5.311,5.287,5.3382,5.2277,5.1043,5.0512,4.9206,4.8072,4.8072,4.7636,4.7309,4.7309,4.7309,4.7309,4.7309,4.7309,4.7309,4.7309,4.6741,4.6352,4.6352,4.6352,4.6352,4.6352,4.6651,4.683,4.683,4.713,4.7309,4.7309,4.7309,4.7309,4.7309,4.7309,4.7309,4.7309,4.7309,4.7309,4.7309,4.7309,4.7309,4.698,4.7309,4.7309,4.7309,4.6172,4.4436,4.1953,4.0878,3.9893,3.8159,3.8386,3.9156,3.9952,4.1644,4.302,4.33,4.5525,4.8332,5.1545,5.2738,5.4389,5.7335,5.7014,0.0,5.6586,5.581,0.0,5.3352,5.3871,0.0,5.1423,5.1945,5.2402,5.2642,5.3203,5.3518,5.3518,5.3518,5.3518,5.3518,5.3518,5.3518,5.3518,5.3518,5.3518,5.3518,5.3518,0.0,0.0,5.3518,5.3518,5.3518,5.3518,5.3518,5.3518,5.3518,5.3518,5.3518,5.3518,5.3518,5.3518,5.3518,5.3518,5.3518,5.3518,5.3518,5.3518,5.3518,5.3518,5.3518,5.3518,5.3518,5.3518,5.3518,5.2662,5.1598,5.0627,4.9575,4.8759,4.8512,4.7849,4.7309,4.7309,4.7309,4.7309,4.7309,4.7309,4.7309,4.7309,4.7309,4.7309,4.7309,4.7309,4.7309,4.7309,4.7309,4.7309,4.7309,4.7309,4.7309,4.7309,4.7309,4.7309,4.7309,4.7309,4.7309,4.7309,4.7309,4.7309,4.7309,4.7309,4.7309,4.71,4.7309,4.7309,4.7309,4.5843,4.3868,4.1833,4.0512,3.9303,3.8064,3.8386,3.9156,3.9952,4.0798,4.2057,4.4131,4.51,4.7172,5.163,5.2827,5.4117,5.659,5.7403,0.0,5.7738,5.7628,5.6734,5.4589,0.0,0.0,5.1902,5.2124,5.2045,5.1531,5.285,5.3518,5.3518,5.3518,5.3518,5.3518,5.3518,5.3518,5.3518,5.3518,5.3518,5.3518,5.3518,0.0,0.0,5.3518,5.3518,5.3518,5.3518,5.3518,5.3518,5.3518,5.3518,5.3518,5.3518,5.3518,5.3518,5.3518,5.3518,5.3518,5.3518,5.3518,5.3518,5.3518,5.3518,5.3518,5.3518,5.3518,5.3518,5.3518,5.2662,5.1598,5.0627,4.9575,4.8512,4.7624,4.7352,4.7309,4.7309,4.7309,4.7309,4.7309,4.7309,4.7309,4.7309,4.7309,4.7309,4.7309,4.7309,4.7309,4.7309,4.7309,4.7309,4.7309,4.7309,4.7309,4.7309,4.7309,4.7309,4.7309,4.7309,4.7309,4.7309,4.7309,4.7309,4.7309,4.7309,4.7309,4.6322,4.701,4.7309,4.7309,4.5484,4.3299,4.1743,3.9787,3.8055,3.7247,3.7703,3.8469,3.9236,4.0008,4.0967,4.232,4.2299,4.341,4.7058,4.853,5.0453,5.3701,5.557,5.6934,0.0,0.0,5.726,5.5691,0.0,0.0,5.1332,5.1995,5.1645,4.9896,5.1577,5.2557,5.2557,5.3179,5.3518,5.3518,5.3518,5.3518,5.3518,5.3518,5.3518,5.3518,5.3518,0.0,0.0,5.3518,5.3518,5.3416,5.28,5.2939,5.3416,5.28,5.2939,5.3518,5.3518,5.3518,5.3518,5.3518,5.3518,5.3518,5.3518,5.3518,5.3518,5.3518,5.3518,5.3518,5.3518,5.3518,5.3518,5.3518,5.3179,5.2592,5.1557,5.0512,4.9456,4.8418,4.7722,4.7309,4.7309,4.7309,4.7309,4.7309,4.7309,4.7309,4.7309,4.7309,4.7309,4.7309,4.7309,4.7309,4.7309,4.7309,4.7309,4.7309,4.7309,4.7309,4.7309,4.7309,4.7309,4.7309,4.7309,4.7309,4.7309,4.7309,4.7309,4.7309,4.7309,4.7309,4.5484,4.6501,4.701,4.701,4.5113,4.2901,4.1444,3.917,3.7252,3.6723,3.7054,3.7732,3.8718,3.9368,4.0008,4.0747,4.047,4.1288,4.4368,4.6021,4.8266,5.1894,0.0,5.5299,0.0,5.6862,5.644,0.0,0.0,0.0,5.0661,5.1307,5.0974,4.9327,5.1005,5.2029,5.2348,5.311,5.3518,5.3518,5.3518,5.3518,5.3518,5.3518,5.3518,5.3518,0.0,0.0,0.0,5.3518,5.3314,5.2973,5.2557,5.2627,5.2973,5.2522,5.287,5.3518,5.3518,5.3518,5.3518,5.3518,5.3518,5.3518,5.3518,5.3518,5.3518,5.3518,5.3518,5.3518,5.3518,5.3518,5.3416,5.311,5.3041,5.2627,5.1266,5.0435,4.9615,4.8553,4.7807,4.7309,4.7309,4.7309,4.7309,4.7309,4.7309,4.7309,4.7309,4.7309,4.7309,4.7309,4.7309,4.7309,4.7309,4.7309,4.7309,4.7309,4.7309,4.7309,4.7309,4.7309,4.7309,4.7309,4.7309,4.7309,4.7309,4.7309,4.7309,4.7309,4.7489,4.7698,4.4766,4.5813,4.6279,4.6279,4.4784,4.2781,4.0846,3.8841,3.7252,3.6723,3.66,3.7053,3.8635,3.8908,3.9199,3.9952,4.0536,4.1986,4.516,4.6748,4.8763,0.0,5.216,5.3017,5.5476,5.4448,5.4131,0.0,0.0,0.0,4.9947,4.9885,5.0066,5.039,5.1377,5.2383,5.345,5.3518,5.3518,5.3518,5.3518,5.3518,5.3518,5.3518,5.3518,0.0,0.0,0.0,0.0,5.3518,5.287,5.2029,5.3076,5.2835,5.2029,5.311,5.3518,5.3518,5.3518,5.3518,5.3518,5.3518,5.3518,5.3518,5.3518,5.3518,5.3518,5.3518,5.3518,5.3518,5.3518,5.3518,5.3213,5.217,5.1921,5.134,4.9296,4.881,4.8512,4.7495,4.7309,4.7309,4.7309,4.7309,4.7309,4.7309,4.7309,4.7309,4.7309,4.7309,4.7309,4.7309,4.7309,4.7309,4.7309,4.7309,4.7309,4.7309,4.7309,4.7309,4.7309,4.7309,4.7309,4.7309,4.7309,4.7309,4.7309,4.7309,4.7309,4.7309,4.7967,4.8626,4.1534,4.2761,4.3509,4.306,4.1803,4.033,3.929,3.7853,3.6603,3.5995,3.6259,3.6752,3.7231,3.8185,3.9111,3.9806,4.1007,0.0,4.3004,4.5244,0.0,5.0493,5.3876,5.614,0.0,0.0,0.0,0.0,0.0,0.0,4.8862,4.9013,4.8893,4.8324,4.9256,5.032,5.1373,5.2062,5.28,5.3518,5.3518,5.3518,5.3518,5.3518,0.0,0.0,0.0,0.0,0.0,5.2697,5.2205,5.1813,5.0741,5.0968,5.1849,5.1521,5.2274,5.3518,5.3518,5.3518,5.3518,5.3518,5.3518,5.3518,5.3518,5.3518,5.3518,5.3518,5.3518,5.3518,5.3518,5.3518,5.3213,5.217,5.1921,5.134,4.9256,4.88,4.847,4.7495,4.7309,4.7309,4.7309,4.7309,4.7309,4.7309,4.7309,4.7309,4.7309,4.7309,4.7309,4.7309,4.7309,4.7309,4.7309,4.7309,4.7309,4.7309,4.7309,4.7309,4.7309,4.7309,4.7309,4.7309,4.7309,4.7309,4.7309,4.7758,4.8207,4.8656,4.8865,4.9314,3.908,4.0606,4.1572,4.1115,4.0217,3.917,3.8242,3.7225,3.6297,3.5639,3.5878,3.6198,3.6229,3.7221,3.8184,3.859,3.9756,4.104,4.2353,0.0,0.0,4.9655,0.0,0.0,0.0,5.4568,0.0,0.0,0.0,0.0,4.7995,4.8147,4.7946,4.7309,4.8293,4.9296,5.0397,5.1377,5.2241,5.2904,5.3314,5.3518,5.3518,5.3076,0.0,0.0,0.0,0.0,0.0,5.1993,5.1451,5.0633,4.9773,4.997,5.0747,5.093,5.1776,5.2939,5.3348,5.3518,5.3518,5.3518,5.3518,5.3416,5.3041,5.2904,5.2835,5.2451,5.2345,5.2345,5.2345,5.2345,5.2062,5.1005,5.0709,5.0249,4.8594,4.821,4.8072,4.7409,4.7309,4.7309,4.7309,4.7309,4.7309,4.7309,4.7309,4.7309,4.7309,4.7309,4.7309,4.7309,4.7309,4.7309,4.7309,4.7309,4.7309,4.7309,4.7309,4.7309,4.7309,4.7309,4.7309,4.7309,4.7549,4.7668,4.7668,4.8327,4.8985,4.9643,4.9643,4.9972,0.0,3.896,3.9978,3.9918,3.9439,3.8626,3.7434,3.6686,0.0,3.5489,3.537,3.5384,3.5583,3.6104,3.6625,3.6858,3.754,3.9301,4.2936,4.4304,0.0,0.0,5.1161,0.0,5.1987,0.0,0.0,0.0,0.0,0.0,4.7352,4.7309,4.7309,4.7309,4.821,4.9215,5.0281,5.1266,5.1849,5.1921,5.2973,5.345,5.3348,5.2348,0.0,0.0,0.0,0.0,0.0,5.134,5.0518,4.8891,4.9813,4.9615,4.9013,5.0973,5.1776,5.2029,5.3041,5.3416,5.3518,5.3416,5.3382,5.3179,5.2029,5.1776,5.1704,5.0665,5.0397,5.0397,5.0397,5.0397,5.0126,4.9054,4.88,4.8512,4.7538,4.7309,4.7309,4.7309,4.7309,4.7309,4.7309,4.7309,4.7309,4.7309,4.7309,4.7309,4.7309,4.7309,4.7309,4.7309,4.7309,4.7309,4.7309,4.7309,4.7309,4.7309,4.7309,4.7339,4.7369,4.7369,4.7399,4.7429,4.8027,4.8386,4.8416,4.909,4.9673,5.0255,5.0255,5.0584,3.3694,0.0,3.5759,3.525,3.5011,3.4801,0.0,3.4292,3.4143,3.3993,3.3963,3.4295,3.5326,3.5707,3.6322,3.7776,3.9281,4.1114,4.3686,4.7075,0.0,5.0957,5.2599,5.3077,5.1732,0.0,0.0,0.0,0.0,4.9247,4.7396,4.7309,4.7309,4.7309,4.7538,4.8157,4.9175,5.0242,5.1117,5.1921,5.2973,5.3076,5.2277,5.1993,0.0,0.0,0.0,0.0,5.0358,4.9773,4.9256,4.8759,4.824,4.8335,4.8882,4.9376,5.0518,5.1921,5.2205,5.2835,5.3348,5.2557,5.2277,5.1921,5.0094,5.0633,5.1704,5.0665,5.0397,5.0397,5.0397,5.0397,5.0126,4.9054,4.88,4.8512,4.7538,4.7309,4.7309,4.7309,4.7309,4.7309,4.7309,4.7309,4.7309,4.7309,4.7309,4.7309,4.7309,4.7309,4.7309,4.7309,4.7309,4.7309,4.7309,4.7309,4.7309,4.7309,4.7309,4.7519,4.8027,4.8057,4.8297,4.8805,4.9,4.9284,4.9717,4.9897,5.0331,5.0943,5.0943,5.1079,3.2019,3.3484,3.4861,3.4502,3.4412,3.4412,3.4412,3.3933,3.3484,3.3484,3.3484,3.3724,3.4442,3.512,3.601,3.7344,3.8849,4.0901,4.4082,0.0,4.9801,5.0852,5.1835,5.2047,0.0,0.0,0.0,0.0,0.0,4.9487,4.7409,4.7309,4.7309,4.7309,4.7309,4.7581,4.8115,4.9166,4.997,5.048,5.1557,5.174,5.1192,5.0671,5.0172,0.0,0.0,0.0,4.8963,4.8841,4.8512,4.8072,4.7495,4.7636,4.8198,4.8636,4.9536,5.0557,5.1043,5.1594,5.2062,5.1921,5.1594,5.093,4.9296,4.9615,5.0249,4.9287,4.8963,4.8963,4.8963,4.8963,4.88,4.8252,4.8115,4.7946,4.7409,4.7309,4.7309,4.7309,4.7309,4.7399,4.7698,4.7758,4.7848,4.8147,4.8207,4.8207,4.8207,4.8207,4.8207,4.8207,4.8207,4.8207,4.8207,4.8207,4.8087,4.7788,4.8027,4.8356,4.8716,4.8745,4.9045,4.9703,4.9703,5.0032,5.0644,5.0644,5.0823,5.1229,5.1229,5.1229,3.175,3.3694,3.5549,3.516,3.513,3.519,3.519,3.4322,3.3484,3.3484,3.3484,3.3574,3.3903,3.4891,3.5987,3.6997,3.8409,0.0,4.4657,4.664,4.8315,4.9953,5.0165,0.0,0.0,0.0,0.0,0.0,0.0,4.9327,4.7409,4.7309,4.7309,4.7309,4.7309,4.7309,4.7309,4.8293,4.88,4.881,4.9891,5.032,5.0126,4.9215,4.8718,0.0,0.0,0.0,4.7396,4.821,4.8072,4.7309,4.7309,4.7309,4.7409,4.8252,4.8677,4.8932,5.0009,5.0397,5.0512,5.1192,5.0855,4.997,4.8882,4.8553,4.8418,4.7538,4.7309,4.7309,4.7309,4.7309,4.7309,4.7309,4.7309,4.7309,4.7309,4.7309,4.7339,4.7429,4.7459,4.7668,4.8327,4.8446,4.8626,4.9209,4.9299,4.9299,4.9299,4.9299,4.9299,4.9299,4.9299,4.9299,4.9299,4.9389,4.9164,4.8626,4.906,4.9359,4.9449,4.9569,4.9823,5.0315,5.0345,5.0614,5.1229,5.1229,5.1229,5.1229,5.1229,5.1229,3.2886,3.4741,3.5789,3.3544,3.3395,3.3814,3.3814,3.3634,3.3484,3.3484,3.3484,3.4023,3.5729,3.6207,3.7113,3.9439,4.2053,4.4445,0.0,0.0,4.8035,4.8951,0.0,0.0,0.0,0.0,0.0,0.0,0.0,0.0,4.7352,4.7309,4.7309,4.7309,4.7309,4.7309,4.7309,4.8293,4.88,4.881,4.9891,4.9931,4.9013,4.8882,4.8335,0.0,0.0,4.7452,4.7309,4.7452,4.7409,4.7309,4.7309,4.7309,4.7309,4.7452,4.8072,4.8932,5.0009,5.0397,5.0281,4.9536,4.9175,4.8882,4.7849,4.7538,4.7495,4.7352,4.7309,4.7309,4.7309,4.7309,4.7309,4.7309,4.7309,4.7309,4.7309,4.7309,4.7459,4.8027,4.8147,4.8356,4.906,4.9179,4.9209,4.9299,4.9299,4.9299,4.9299,4.9299,4.9299,4.9299,4.9299,4.9299,4.9299,4.9763,5.0016,4.9897,4.9523,4.9523,5.0016,5.0631,5.096,5.1033,5.1079,5.1109,5.1229,5.1229,5.1229,5.1229,5.1229,5.1229,3.2228,3.3634,3.4651,3.3784,3.4861,3.5968,3.528,3.4532,3.4113,3.4502,3.4292,3.4532,3.6211,3.7345,3.905,4.2043,0.0,4.5403,4.6448,4.7106,4.7612,0.0,0.0,0.0,0.0,0.0,0.0,0.0,0.0,0.0,0.0,0.0,4.7309,4.7309,4.7309,4.7309,4.7309,4.7764,4.7988,4.7988,4.8501,4.846,4.7988,4.7988,4.7722,4.7309,0.0,4.7309,4.7309,4.7309,4.7309,4.7309,4.7309,4.7309,4.7309,4.7309,4.7624,4.8157,4.9206,4.9206,4.8749,4.88,4.846,4.7904,4.7452,4.7309,4.7309,4.7309,4.7309,4.7309,4.7309,4.7309,4.7309,4.7309,4.7309,4.7309,4.7309,4.7578,4.7938,4.8237,4.8566,4.9015,4.9673,4.9793,4.9912,5.0272,5.0331,5.0331,5.0331,5.0331,5.0331,5.0331,5.0331,5.0331,5.0331,5.0601,5.0734,5.0734,5.0481,5.0451,5.0704,5.105,5.1229,5.1229,5.1229,5.1229,5.1229,5.1229,5.1229,5.1229,5.1229,5.1229,3.2108,3.3066,3.4083,3.4592,3.6237,3.7584,3.7045,3.6028,3.54,3.6237,3.5998,3.5998,3.7195,3.914,0.0,4.4107,4.5244,4.5963,4.6471,4.698,4.7309,0.0,0.0,0.0,0.0,0.0,0.0,0.0,0.0,0.0,0.0,0.0,4.7309,4.7309,4.7309,4.7309,4.7309,4.7309,4.7309,4.7309,4.7309,4.7309,4.7309,4.7309,4.7309,4.7309,4.7309,4.7309,4.7309,4.7309,4.7309,4.7309,4.7309,4.7309,4.7309,4.7309,4.7309,4.7409,4.8168,4.7946,4.7409,4.821,4.7904,4.7309,4.7309,4.7309,4.7309,4.7309,4.7309,4.7309,4.7309,4.7309,4.7309,4.7309,4.7309,4.7339,4.7489,4.7938,4.8386,4.8686,4.9164,4.9703,5.0315,5.0435,5.0584,5.1139,5.1229,5.1229,5.1229,5.1229,5.1229,5.1229,5.1229,5.1229,5.1229,5.1229,5.1229,5.1229,5.1229,5.1229,5.1229,5.1229,5.1229,5.1229,5.1229,5.1229,5.1229,5.1229,5.1229,5.1229,5.1229,5.1289,3.3933,3.4801,3.537,3.5429,3.5579,3.6148,3.7853,3.7704,3.7554,3.8835,3.9074,3.929,3.9978,4.2222,4.4227,4.5095,4.6322,4.7189,4.7219,0.0,0.0,0.0,0.0,0.0,0.0,0.0,0.0,0.0,0.0,0.0,0.0,0.0,0.0,4.7309,4.7309,4.7309,4.7309,4.7309,4.7309,4.7309,4.7309,4.7309,4.7309,4.7309,4.7309,4.7309,4.7309,4.7309,4.7309,4.7309,4.7309,4.7309,4.7309,4.7309,4.7309,4.7309,4.7309,4.7309,4.7366,4.7352,4.7309,4.7366,4.7352,4.7309,4.7309,4.7309,4.7309,4.7309,4.7309,4.7309,4.7309,4.7309,4.7309,4.7309,4.7309,4.7489,4.8087,4.8267,4.8656,4.9807,5.0076,5.0345,5.0973,5.1139,5.1122,5.1199,5.1229,5.1229,5.1229,5.1229,5.1229,5.1229,5.1229,5.1229,5.1229,5.1229,5.1229,5.1229,5.1229,5.1229,5.1229,5.1229,5.1229,5.1229,5.1229,5.1229,5.1229,5.1229,5.1229,5.1229,5.1229,5.1558,3.3006,3.3754,3.4352,3.4771,3.5789,3.7105,3.8661,3.8841,3.926,4.1444,4.1534,4.1564,4.2641,4.3658,4.4676,4.5753,4.6711,4.7309,4.7309,0.0,0.0,0.0,0.0,0.0,0.0,0.0,0.0,0.0,0.0,0.0,0.0,0.0,0.0,4.7309,4.7309,4.7309,4.7309,4.7309,4.7309,4.7309,4.7309,4.7309,4.7309,4.7309,4.7309,4.7309,4.7309,4.7309,4.7309,4.7309,4.7309,4.7309,4.7309,4.7309,4.7309,4.7309,4.7309,4.7309,4.7309,4.7309,4.7309,4.7309,4.7309,4.7309,4.7309,4.7309,4.7309,4.7309,4.7309,4.7309,4.7309,4.7309,4.7309,4.7309,4.7608,4.7967,4.8237,4.8925,4.9643,5.0106,5.0524,5.0883,5.1169,5.1229,5.1229,5.1229,5.1229,5.1229,5.1229,5.1229,5.1229,5.1229,5.1229,5.1229,5.1229,5.1229,5.1229,5.1229,5.1229,5.1229,5.1229,5.1229,5.1229,5.1229,5.1229,5.1229,5.1229,5.1229,5.1229,5.1229,5.1648,5.1977,3.2497,3.3155,3.3963,3.4653,3.6118,3.7913,3.9888,4.0187,4.0786,4.3449,4.3449,4.3329,4.4436,4.4616,0.0,0.0,4.686,4.7309,0.0,0.0,0.0,0.0,0.0,0.0,0.0,0.0,0.0,0.0,0.0,0.0,0.0,0.0,0.0,0.0,4.7309,4.7309,4.7309,4.7309,4.7309,4.7309,4.7309,4.7309,4.7309,4.7309,4.7309,4.7309,4.7309,4.7309,4.7309,4.7309,4.7309,4.7309,4.7309,4.7309,4.7309,4.7309,4.7309,4.7309,4.7309,4.7309,4.7309,4.7309,4.7309,4.7309,4.7309,4.7309,4.7309,4.7309,4.7309,4.7369,4.7549,4.7608,4.7608,4.7608,4.8117,4.8656,4.8865,4.9568,5.0255,5.0465,5.0853,5.1229,5.1229,5.1229,5.1229,5.1229,5.1229,5.1229,5.1229,5.1229,5.1229,5.1229,5.1229,5.1229,5.1229,5.1229,5.1229,5.1229,5.1229,5.1229,5.1229,5.1229,5.1229,5.1229,5.1229,5.1229,5.1229,5.1439,5.1528,5.1558,5.2187,5.2636,3.2856,3.3455,3.4653,3.534,3.6477,3.8302,4.1662,4.1901,4.2132,4.4766,4.4796,4.4526,4.5185,4.5304,0.0,4.6202,4.686,4.7309,0.0,0.0,0.0,0.0,0.0,0.0,0.0,0.0,0.0,0.0,0.0,0.0,0.0,0.0,0.0,0.0,4.7309,4.7309,4.7309,4.7309,4.7309,4.7309,4.7309,4.7309,4.7309,4.7309,4.7309,4.7309,4.7309,4.7309,4.7309,4.7309,4.7309,4.7309,4.7309,4.7309,4.7309,4.7309,4.7309,4.7309,4.7309,4.7309,4.7309,4.7309,4.7309,4.7309,4.7309,4.7309,4.7309,4.7309,4.7309,4.7459,4.8117,4.8297,4.8297,4.8297,4.8805,4.9464,5.0046,5.0196,5.0405,5.1079,5.1229,5.1229,5.1229,5.1229,5.1229,5.1229,5.1229,5.1229,5.1229,5.1229,5.1229,5.1229,5.1229,5.1229,5.1229,5.1229,5.1229,5.1229,5.1229,5.1229,5.1229,5.1229,5.1229,5.1229,5.1229,5.1229,5.1229,5.1887,5.2187,5.2217,5.2875,5.3563,3.2194,3.2796,3.4053,3.522,3.7524,4.0127,4.2491,4.288,4.3509,4.6172,4.6172,4.5783,4.5992,4.6022,0.0,4.6249,4.686,0.0,0.0,0.0,0.0,0.0,0.0,0.0,0.0,0.0,0.0,0.0,0.0,0.0,0.0,0.0,0.0,0.0,4.7309,4.7309,4.7309,4.7309,4.7309,4.7309,4.7309,4.7309,4.7309,4.7309,4.7309,4.7309,4.7309,4.7309,4.7309,4.7309,4.7309,4.7309,4.7309,4.7309,4.7309,4.7309,4.7309,4.7309,4.7309,4.7309,4.7309,4.7309,4.7309,4.7309,4.7309,4.7309,4.7309,4.7309,4.7309,4.7459,4.8117,4.8626,4.903,4.903,4.9464,5.0002,5.0136,5.0554,5.0943,5.1169,5.1229,5.1229,5.1229,5.1229,5.1229,5.1229,5.1229,5.1229,5.1229,5.1229,5.1229,5.1229,5.1229,5.1409,5.1858,5.1917,5.2097,5.2576,5.2606,5.2187,5.1259,5.1229,5.1229,5.1229,5.1229,5.1439,5.1917,5.2097,5.2426,5.2905,5.3593,5.4012,3.2856,3.3664,3.513,3.6985,3.914,4.1444,4.3917,4.4695,4.5364,4.698,4.677,4.6369,4.6681,4.6501,0.0,4.6681,0.0,0.0,0.0,0.0,0.0,0.0,0.0,0.0,0.0,0.0,0.0,0.0,0.0,0.0,0.0,0.0,0.0,0.0,4.7309,4.7309,4.7309,4.7309,4.7309,4.7309,4.7309,4.7309,4.7309,4.7309,4.7309,4.7309,4.7309,4.7309,4.7309,4.7309,4.7309,4.7309,4.7309,4.7309,4.7309,4.7309,4.7309,4.7309,4.7309,4.7309,4.7309,4.7309,4.7309,4.7309,4.7309,4.7309,4.7309,4.7309,4.7489,4.7848,4.8506,4.9164,4.9643,4.9643,5.0152,5.0584,5.0584,5.0883,5.1229,5.1229,5.1229,5.1229,5.1229,5.1229,5.1229,5.1229,5.1229,5.1229,5.1229,5.1229,5.1319,5.1588,5.1618,5.1887,5.2546,5.2606,5.2755,5.3144,5.3174,5.2815,5.2037,5.2007,5.2007,5.2007,5.2007,5.2187,5.2606,5.2875,5.3204,5.3593,5.4281,5.461,3.4174,3.5402,3.7105,3.9738,4.1115,4.2641,4.5723,4.686,4.7309,4.7309,4.683,4.6591,4.7189,4.68,4.6621,0.0,0.0,0.0,0.0,0.0,0.0,0.0,0.0,0.0,0.0,0.0,0.0,0.0,0.0,0.0,0.0,0.0,0.0,4.7309,4.7309,4.7309,4.7309,4.7309,4.7309,0.0,4.7309,4.7309,4.7309,4.7309,4.7309,4.7309,4.7309,4.7309,4.7309,4.7309,4.7309,4.7309,4.7309,4.7309,4.7309,4.7309,4.7309,4.7309,4.7309,4.7309,4.7309,4.7309,4.7309,4.7309,4.7309,4.7309,4.7309,4.7309,4.7788,4.8446,4.9149,4.9763,5.0196,5.0255,5.0734,5.1229,5.1229,5.1229,5.1229,5.1229,5.1229,5.1229,5.1229,5.1229,5.1229,5.1229,5.1229,5.1229,5.1229,5.1259,5.1528,5.2127,5.2247,5.2546,5.3204,5.3264,5.3294,5.3354,5.3354,5.3354,5.3354,5.3234,5.3174,5.3174,5.3174,5.3204,5.3264,5.3892,5.4251,5.4311,5.491,5.5179,3.3066,3.4681,3.7105,3.9738,4.2851,4.5574,4.68,4.7219,4.7309,4.7309,4.7189,4.713,4.7279,4.7189,4.713,0.0,0.0,0.0,0.0,0.0,0.0,0.0,0.0,0.0,0.0,0.0,0.0,0.0,0.0,0.0,0.0,0.0,0.0,4.7309,4.7309,4.7309,4.7309,4.7309,4.7309,0.0,4.7309,4.7309,4.7309,4.7309,4.7309,4.7309,4.7309,4.7309,4.7309,4.7309,4.7309,4.7309,4.7309,4.7309,4.7309,4.7309,4.7309,4.7309,4.7309,4.7309,4.7309,4.7309,4.7309,4.7309,4.7309,4.7309,4.7309,4.7309,4.7788,4.8446,4.9149,4.9763,5.0315,5.0853,5.1109,5.1229,5.1229,5.1229,5.1229,5.1229,5.1229,5.1229,5.1229,5.1229,5.1229,5.1229,5.1229,5.1229,5.1229,5.1678,5.2037,5.2187,5.2665,5.3264,5.3922,5.3982,5.4221,5.473,5.476,5.476,5.476,5.3743,5.3174,5.3174,5.3174,5.3443,5.3982,5.4132,5.4491,5.497,5.5119,5.5179,3.4029,3.5868,3.8182,4.1444,4.4556,4.689,4.7219,4.7309,4.7309,4.7309,4.7309,4.7309,4.7309,4.7309,0.0,0.0,0.0,0.0,0.0,0.0,0.0,0.0,0.0,0.0,0.0,0.0,0.0,0.0,0.0,0.0,0.0,4.7309,4.7309,4.7309,4.7309,4.7309,4.7309,4.7309,4.7309,4.7309,4.7309,4.7309,4.7309,4.7309,4.7309,4.7309,4.7309,4.7309,4.7309,4.7309,4.7309,4.7309,4.7309,4.7309,4.7309,4.7309,4.7309,4.7309,4.7309,4.7309,4.7309,4.7309,4.7309,4.7309,4.7309,4.7309,4.7309,4.7309,4.7997,4.888,4.9209,4.9972,5.0734,5.1139,5.1229,5.1229,5.1229,5.1229,5.1229,5.1229,5.1229,5.1229,5.1229,5.1229,5.1229,5.1229,5.1498,5.1678,5.1678,5.2247,5.2785,5.3114,5.3473,5.3952,5.461,5.467,5.482,5.5179,5.5179,5.5179,5.5179,5.4521,5.4132,5.4132,5.4132,5.4311,5.467,5.467,5.485,5.5179,5.5179,5.5179,3.4568,3.6821,3.9349,4.3329,4.5753,4.716,4.7279,4.7309,4.7309,4.7309,4.7309,4.7309,4.7309,0.0,0.0,0.0,0.0,0.0,0.0,0.0,0.0,0.0,0.0,0.0,0.0,0.0,0.0,0.0,0.0,0.0,4.7309,4.7309,4.7309,4.7309,4.7309,4.7309,4.7309,4.7309,4.7309,4.7309,4.7309,4.7309,4.7309,4.7309,4.7309,4.7309,4.7309,4.7309,4.7309,4.7309,4.7309,4.7309,4.7309,4.7309,4.7309,4.7309,4.7309,4.7309,4.7309,4.7309,4.7309,4.7309,4.7309,4.7309,4.7309,4.7309,4.7309,4.7309,4.8177,4.9179,4.9269,5.0152,5.1079,5.1199,5.1229,5.1229,5.1229,5.1229,5.1229,5.1229,5.1229,5.1229,5.1229,5.1229,5.1259,5.1379,5.1858,5.2247,5.2366,5.2965,5.3593,5.4162,5.4311,5.461,5.5149,5.5179,5.5179,5.5179,5.5179,5.5179,5.5179,5.5179,5.5179,5.5179,5.5179,5.5179,5.5179,5.5179,5.5179,5.5179,5.5179,5.5179,3.0974,3.4667,3.9349,4.3329,4.5394,4.6621,4.7189,4.7309,4.7309,0.0,4.7309,4.7309,4.7309,0.0,0.0,0.0,0.0,0.0,0.0,0.0,0.0,0.0,0.0,0.0,0.0,0.0,0.0,0.0,0.0,0.0,4.7309,4.7309,4.7309,4.7309,4.7309,4.7309,4.7309,4.7309,4.7309,4.7309,4.7309,4.7309,4.7309,4.7309,4.7309,4.7309,4.7309,4.7309,4.7309,4.7309,4.7309,4.7309,4.7309,4.7309,4.7309,4.7309,4.7309,4.7309,4.7309,4.7309,4.7309,4.7309,4.7309,4.7309,4.7309,4.7309,4.7309,4.7309,4.7848,4.8536,4.9179,4.9823,5.0465,5.1079,5.1229,5.1229,5.1229,5.1229,5.1229,5.1229,5.1229,5.1229,5.1229,5.1229,5.1409,5.1977,5.2127,5.2396,5.2965,5.3653,5.4102,5.4192,5.473,5.5089,5.5179,5.5179,5.5179,5.5179,5.5179,5.5179,5.5179,5.5179,5.5179,5.5179,5.5179,5.5179,5.5179,5.5179,5.5179,5.5179,5.5179,5.5179,3.2857,3.5938,3.926,4.288,4.4496,4.5364,4.6022,4.6172,4.6172,4.6172,4.6172,4.6411,0.0,0.0,0.0,0.0,0.0,0.0,0.0,0.0,0.0,0.0,0.0,0.0,0.0,0.0,0.0,0.0,0.0,4.716,4.677,4.71,4.7309,4.7309,4.7309,4.7309,4.7309,4.7309,4.7309,4.7309,4.7309,4.7309,4.7309,4.7309,4.7309,4.7309,4.7309,4.7309,4.7309,4.7309,4.7309,4.7309,4.7309,4.7309,4.7309,4.7309,4.7309,4.7309,4.7309,4.7309,4.7309,4.7309,4.7309,4.7309,4.7309,4.7309,4.7309,4.7309,4.8027,4.894,4.9239,5.0032,5.0823,5.1139,5.1229,5.1229,5.1229,5.1229,5.1229,5.1229,5.1229,5.1229,5.1229,5.1528,5.1858,5.2157,5.2845,5.3443,5.3713,5.4341,5.476,5.476,5.5029,5.5179,5.5179,5.5179,5.5179,5.5179,5.5179,5.5179,5.5179,5.5179,5.5179,5.5179,5.5179,5.5179,5.5179,5.5179,5.5179,5.5179,5.5179,5.5179,3.3671,3.5762,3.7524,4.1137,4.294,4.4018,0.0,0.0,4.5304,0.0,4.5304,0.0,0.0,0.0,0.0,0.0,0.0,0.0,0.0,0.0,0.0,0.0,0.0,0.0,0.0,0.0,0.0,0.0,0.0,4.6591,4.6082,4.6531,4.68,4.68,4.68,4.689,4.704,4.7219,4.7309,4.7309,4.7309,4.7309,4.7309,4.7309,4.7309,4.7309,4.7309,4.7309,4.7309,4.7309,4.7309,4.7309,4.7309,4.7309,4.7309,4.7309,4.7309,4.7309,4.7309,4.7309,4.7309,4.7309,4.7309,4.7309,4.7309,4.7309,4.7309,4.7309,4.8117,4.912,4.9269,5.0122,5.102,5.1169,5.1229,5.1229,5.1229,5.1229,5.1229,5.1229,5.1229,5.1229,5.1229,5.1768,5.2247,5.2426,5.3443,5.4281,5.4431,5.488,5.5179,5.5179,5.5179,5.5179,5.5179,5.5179,5.5179,5.5179,5.5179,5.5179,5.5179,5.5179,5.5179,5.5179,5.5179,5.5179,5.5179,5.5179,5.5179,5.5179,5.5179,5.5179,3.0363,3.1643,3.2946,3.7524,4.0613,4.283,0.0,0.0,4.5304,4.5304,4.5304,0.0,0.0,0.0,0.0,0.0,0.0,0.0,0.0,0.0,0.0,0.0,0.0,0.0,0.0,0.0,0.0,0.0,0.0,4.5394,4.5334,4.5394,4.5394,4.5394,4.5394,4.5723,4.6339,4.698,4.7309,4.7309,4.7309,4.7309,4.7309,4.7309,4.7309,4.7309,4.7309,4.7309,4.7309,4.7309,4.7309,4.7309,4.7309,4.7309,4.7309,4.7309,4.7309,4.7309,4.7309,4.7309,4.7309,4.7309,4.7309,4.7309,4.7309,4.7309,4.7309,4.7309,4.7818,4.8476,4.9149,4.9763,5.0405,5.1079,5.1229,5.1229,5.1229,5.1229,5.1229,5.1229,5.1229,5.1229,5.1229,5.1768,5.2426,5.3025,5.3743,5.4431,5.5059,5.5179,5.5179,5.5179,5.5179,5.5179,5.5179,5.5179,5.5179,5.5179,5.5179,5.5179,5.5179,5.5179,5.5179,5.5179,5.5179,5.5179,5.5179,5.5179,5.5179,5.5179,5.5179,5.5179,2.9889,3.1568,3.3398,3.5797,3.8105,4.0006,4.092,4.2342,4.3459,4.3459,0.0,0.0,0.0,0.0,0.0,0.0,0.0,0.0,0.0,0.0,0.0,0.0,0.0,0.0,0.0,0.0,0.0,0.0,0.0,0.0,4.4676,4.5065,4.5304,4.5304,4.5304,4.5633,4.6279,4.6561,4.689,4.7309,4.7309,4.7309,4.7309,4.7309,4.7309,4.7309,4.7309,4.7309,4.7309,4.7309,4.7309,4.7309,4.7309,4.7309,4.7309,4.7309,4.7309,4.7309,4.7309,4.7309,4.7309,4.7309,4.7309,4.7309,4.7309,4.7309,4.7399,4.7818,4.8416,4.9075,4.9733,5.0361,5.0883,5.1169,5.1229,5.1229,5.1229,5.1229,5.1229,5.1229,5.1558,5.1858,5.1858,5.2755,5.3563,5.3803,5.4401,5.491,5.5149,5.5179,5.5179,5.5179,5.5179,5.5179,5.5179,5.5179,5.5179,5.5179,5.5179,5.5179,5.5179,5.5179,5.5179,5.5179,5.5179,5.5179,5.5179,5.5179,5.5179,5.5179,5.5179,5.5179,2.8801,3.0651,3.2812,0.0,3.5646,3.7174,3.9283,0.0,4.1302,4.2201,0.0,0.0,0.0,0.0,0.0,0.0,0.0,0.0,0.0,0.0,0.0,0.0,0.0,0.0,0.0,0.0,0.0,0.0,0.0,0.0,4.4018,4.4407,4.4646,4.4646,4.4855,4.5304,4.5963,4.6202,4.6651,4.7309,4.7309,4.7309,4.7309,4.7309,4.7309,4.7309,4.7309,4.7309,4.7309,4.7309,4.7309,4.7309,4.7309,4.7309,4.7309,4.7309,4.7309,4.7309,4.7309,4.7309,4.7309,4.7309,4.7309,4.7309,4.7309,4.7309,4.7429,4.8087,4.8745,4.9404,5.0016,5.0674,5.1229,5.1229,5.1229,5.1229,5.1229,5.1229,5.1289,5.1498,5.1917,5.2276,5.2486,5.3473,5.4221,5.4221,5.476,5.5179,5.5179,5.5179,5.5179,5.5179,5.5179,5.5179,5.5179,5.5179,5.5179,5.5179,5.5179,5.5179,5.5179,5.5179,5.5179,5.5179,5.5179,5.5179,5.5179,5.5179,5.5179,5.5179,5.5179,5.5179,0.0,0.0,0.0,0.0,0.0,0.0,3.9073,0.0,3.899,4.1722,0.0,0.0,0.0,0.0,0.0,0.0,0.0,0.0,0.0,0.0,0.0,0.0,0.0,0.0,0.0,0.0,0.0,0.0,0.0,4.329,4.329,4.329,4.329,4.329,4.3958,4.4616,4.5274,4.5963,4.6621,4.7309,4.7309,4.7309,4.7309,4.7309,4.7309,4.7309,4.7309,4.7309,4.7309,4.7309,4.7309,4.7309,4.7309,4.7309,4.7309,4.7309,4.7309,4.7309,4.7309,4.7309,4.7309,4.7309,4.7309,4.7309,4.7309,4.7309,4.7489,4.8117,4.882,4.9464,5.0046,5.0704,5.1229,5.1229,5.1229,5.1229,5.1259,5.1259,5.1439,5.2067,5.2247,5.2456,5.3114,5.3773,5.4251,5.4251,5.479,5.5179,5.5179,5.5179,5.5179,5.5179,5.5179,5.5179,5.5179,5.5179,5.5179,5.5179,5.5179,5.5179,5.5179,5.5179,5.5179,5.5179,5.5179,5.5179,5.5179,5.5179,5.5179,5.5179,5.5179,5.5179,2.8568,0.0,0.0,0.0,0.0,0.0,0.0,0.0,0.0,0.0,0.0,0.0,0.0,0.0,0.0,0.0,0.0,0.0,0.0,0.0,0.0,0.0,0.0,0.0,0.0,0.0,0.0,0.0,4.329,4.329,4.329,4.329,4.329,4.329,4.3469,4.4137,4.5274,4.5484,4.6172,4.7309,4.7309,4.7309,4.7309,4.7309,4.7309,4.7309,4.7309,4.7309,4.7309,4.7309,4.7309,4.7309,4.7309,4.7309,4.7309,4.7309,4.7309,4.7309,4.7309,4.7309,4.7309,4.7309,4.7309,4.7309,4.7309,4.7638,4.8147,4.8805,4.9464,5.0122,5.078,5.1079,5.1229,5.1229,5.1229,5.1349,5.1828,5.1917,5.1977,5.2157,5.2995,5.3713,5.3892,5.4491,5.491,5.491,5.5059,5.5179,5.5179,5.5179,5.5179,5.5179,5.5179,5.5179,5.5179,5.5179,5.5179,5.5179,5.5179,5.5179,5.5179,5.5179,5.5179,5.5179,5.5179,5.5179,5.5179,5.5179,5.5179,5.5179,5.5179,5.5179,2.9736,3.0533,0.0,0.0,0.0,0.0,3.2558,3.2945,0.0,0.0,0.0,0.0,0.0,0.0,0.0,0.0,0.0,0.0,0.0,0.0,0.0,0.0,0.0,0.0,0.0,0.0,0.0,4.329,4.329,4.329,4.329,4.329,4.329,4.329,4.329,4.3917,4.5274,4.5304,4.5963,4.7309,4.7309,4.7309,4.7309,4.7309,4.7309,4.7309,4.7309,4.7309,4.7309,4.7309,4.7309,4.7309,4.7309,4.7309,4.7309,4.7309,4.7309,4.7309,4.7309,4.7309,4.7309,4.7309,4.7309,4.7309,4.7309,4.7758,4.8416,4.912,4.9942,5.0704,5.1109,5.1229,5.1229,5.1229,5.1229,5.1409,5.2067,5.2426,5.2695,5.2995,5.3683,5.4311,5.4581,5.494,5.5179,5.5179,5.5179,5.5179,5.5179,5.5179,5.5179,5.5179,5.5179,5.5179,5.5179,5.5179,5.5179,5.5179,5.5179,5.5179,5.5179,5.5179,5.5179,5.5179,5.5179,5.5179,5.5179,5.5179,5.5179,5.5179,5.5179,5.5179,3.0954,3.1529,0.0,3.1663,2.9701,0.0,3.2906,3.2524,3.2466,0.0,0.0,0.0,0.0,0.0,0.0,0.0,0.0,0.0,0.0,0.0,0.0,0.0,0.0,0.0,0.0,4.329,4.329,4.329,4.329,4.329,4.329,4.329,4.329,4.329,4.329,4.3917,4.5274,4.5304,4.5963,4.7309,4.7309,4.7309,4.7309,4.7309,4.7309,4.7309,4.7309,4.7309,4.7309,4.7309,4.7309,4.7309,4.7309,4.7309,4.7309,4.7309,4.7309,4.7309,4.7309,4.7309,4.7309,4.7309,4.7309,4.7309,4.7309,4.7818,4.8536,4.9329,5.0331,5.1229,5.1229,5.1229,5.1229,5.1229,5.1229,5.1409,5.2157,5.2755,5.3414,5.4162,5.4311,5.4491,5.5089,5.5179,5.5179,5.5179,5.5179,5.5179,5.5179,5.5179,5.5179,5.5179,5.5179,5.5179,5.5179,5.5179,5.5179,5.5179,5.5179,5.5179,5.5179,5.5179,5.5179,5.5179,5.5179,5.5179,5.5179,5.5179,5.5179,5.5179,5.5179,5.5179,3.3728,3.3829,3.3753,3.2442,3.1833,0.0,2.9823,2.9786,3.0448,0.0,0.0,0.0,0.0,0.0,0.0,0.0,0.0,0.0,0.0,0.0,0.0,0.0,0.0,0.0,0.0,4.329,4.329,4.329,4.329,4.329,4.329,4.329,4.329,4.329,4.329,4.3917,4.5274,4.5304,4.5963,4.7309,4.7309,4.7309,4.7309,4.7309,4.7309,4.7309,4.7309,4.7309,4.7309,4.7309,4.7309,4.7309,4.7309,4.7309,4.7309,4.7309,4.7309,4.7309,4.7309,4.7309,4.7309,4.7309,4.7309,4.7309,4.7309,4.8147,4.9359,5.0511,5.102,5.1229,5.1229,5.1229,5.1229,5.1229,5.1229,5.1558,5.2725,5.3084,5.3533,5.476,5.4999,5.5029,5.5179,5.5179,5.5179,5.5179,5.5179,5.5179,5.5179,5.5179,5.5179,5.5179,5.5179,5.5179,5.5179,5.5179,5.5179,5.5179,5.5179,5.5179,5.5179,5.5179,5.5179,5.5179,5.5179,5.5179,5.5179,5.5179,5.5179,5.5179,5.5179,5.5179,3.525,3.5047,3.4812,3.3817,0.0,0.0,0.0,2.9754,2.9757,3.1985,3.1166,0.0,0.0,0.0,0.0,0.0,0.0,0.0,0.0,0.0,0.0,0.0,0.0,0.0,0.0,4.2851,4.3,4.326,4.329,4.329,4.329,4.329,4.329,4.329,4.329,4.3917,4.5274,4.5304,4.5963,4.7309,4.7309,4.7309,4.7309,4.7309,4.7309,4.7309,4.7309,4.7309,4.7309,4.7309,4.7309,4.7309,4.7309,4.7309,4.7309,4.7309,4.7309,4.7309,4.7309,4.7309,4.7309,4.7309,4.7309,4.7309,4.7309,4.8237,4.9599,5.084,5.1229,5.1229,5.1229,5.1229,5.1229,5.1229,5.1229,5.1588,5.2905,5.3174,5.3593,5.494,5.5179,5.5179,5.5179,5.5179,5.5179,5.5179,5.5179,5.5179,5.5179,5.5179,5.5179,5.5179,5.5179,5.5179,5.5179,5.5179,5.5179,5.5179,5.5179,5.5179,5.5179,5.5179,5.5179,5.5179,5.5179,5.5179,5.5179,5.5179,5.5179,5.5179,5.5179,5.5179,3.6648,3.6445,3.6409,0.0,0.0,3.2784,0.0,0.0,0.0,3.2683,0.0,0.0,0.0,0.0,0.0,0.0,0.0,0.0,0.0,0.0,0.0,0.0,0.0,0.0,0.0,4.1782,4.1983,4.288,4.2692,4.2722,4.312,4.323,4.329,4.329,4.329,4.3917,4.5274,4.5304,4.5963,4.7309,4.7309,4.7309,4.7309,4.7309,4.7309,4.7309,4.7309,4.7309,4.7309,4.7309,4.7309,4.7309,4.7309,4.7309,4.7309,4.7309,4.7309,4.7309,4.7309,4.7309,4.7309,4.7309,4.7309,4.7369,4.7608,4.8416,4.9599,5.084,5.1229,5.1229,5.1229,5.1229,5.1229,5.1229,5.1319,5.1738,5.2935,5.3294,5.3743,5.494,5.5179,5.5179,5.5179,5.5179,5.5179,5.5179,5.5179,5.5179,5.5179,5.5179,5.5179,5.5179,5.5179,5.5179,5.5179,5.5179,5.5179,5.5179,5.5179,5.5179,5.5179,5.5179,5.5179,5.5179,5.5179,5.5179,5.5179,5.5179,5.5179,5.5179,5.5179,5.5179,0.0,0.0,0.0,0.0,3.6848,0.0,0.0,0.0,3.1501,2.9483,0.0,0.0,0.0,0.0,0.0,0.0,0.0,0.0,0.0,0.0,0.0,0.0,0.0,0.0,0.0,0.0,3.9619,4.1474,4.0516,4.0636,4.241,4.303,4.329,4.329,4.329,4.3917,4.5274,4.5304,4.5963,4.7309,4.7309,4.7309,4.7309,4.7309,4.7309,4.7309,4.7309,4.7309,4.7309,4.7309,4.7309,4.7309,4.7309,4.7309,4.7309,4.7309,4.7309,4.7309,4.7309,4.7309,4.7309,4.7309,4.7309,4.7519,4.8686,4.9179,4.9599,5.084,5.1229,5.1229,5.1229,5.1229,5.1229,5.1229,5.1648,5.2276,5.3025,5.3653,5.4311,5.5059,5.5179,5.5179,5.5179,5.5179,5.5179,5.5179,5.5179,5.5179,5.5179,5.5179,5.5179,5.5179,5.5179,5.5179,5.5179,5.5179,5.5179,5.5179,5.5179,5.5179,5.5179,5.5179,5.5179,5.5179,5.5179,5.5179,5.5179,5.5179,5.5179,5.5179,5.5179,5.5179,0.0,0.0,0.0,0.0,0.0,0.0,3.2698,0.0,3.065,0.0,0.0,0.0,0.0,0.0,0.0,0.0,0.0,0.0,0.0,0.0,0.0,0.0,0.0,0.0,0.0,0.0,0.0,0.0,0.0,3.9709,4.1722,4.2402,4.294,4.329,4.329,4.3917,4.5274,4.5304,4.5963,4.7309,4.7309,4.7309,4.7309,4.7309,4.7309,4.7309,4.7309,4.7309,4.7309,4.7309,4.7309,4.7309,4.7309,4.7309,4.7309,4.7309,4.7309,4.7309,4.7309,4.7309,4.7309,4.7309,4.7549,4.8057,4.903,4.9523,5.0032,5.096,5.1229,5.1229,5.1229,5.1229,5.1229,5.1229,5.1708,5.2366,5.3025,5.3713,5.4401,5.5059,5.5179,5.5179,5.5179,5.5179,5.5179,5.5179,5.5179,5.5179,5.5179,5.5179,5.5179,5.5179,5.5179,5.5179,5.5179,5.5179,5.5179,5.5179,5.5179,5.5179,5.5179,5.5179,5.5179,5.5179,5.5179,5.5179,5.5179,5.5179,5.5179,5.5179,5.5179,5.5179,3.9918,0.0,0.0,0.0,0.0,0.0,0.0,0.0,0.0,0.0,0.0,0.0,0.0,0.0,0.0,0.0,0.0,0.0,0.0,0.0,0.0,0.0,0.0,0.0,0.0,0.0,0.0,0.0,0.0,0.0,4.0965,4.1782,4.2462,4.326,4.329,4.3917,4.5274,4.5304,4.5963,4.7309,4.7309,4.7309,4.7309,4.7309,4.7309,4.7309,4.7309,4.7309,4.7309,4.7309,4.7309,4.7309,4.7309,4.7309,4.7309,4.7309,4.7309,4.7309,4.7309,4.7309,4.7339,4.7519,4.7908,4.8446,4.9284,4.9853,5.0315,5.0973,5.1229,5.1229,5.1229,5.1229,5.1229,5.1229,5.1858,5.2606,5.3084,5.3862,5.461,5.5089,5.5179,5.5179,5.5179,5.5179,5.5179,5.5179,5.5179,5.5179,5.5179,5.5179,5.5179,5.5179,5.5179,5.5179,5.5179,5.5179,5.5179,5.5179,5.5179,5.5179,5.5179,5.5179,5.5179,5.5179,5.5179,5.5179,5.5179,5.5179,5.5179,5.5179,5.5179,5.5179,0.0,0.0,0.0,3.6952,0.0,0.0,0.0,0.0,3.4146,0.0,0.0,0.0,0.0,0.0,0.0,0.0,0.0,0.0,0.0,0.0,0.0,0.0,0.0,0.0,0.0,0.0,0.0,0.0,0.0,0.0,4.0187,4.1055,4.2013,4.326,4.329,4.3917,4.5274,4.5304,4.5963,4.7309,4.7309,4.7309,4.7309,4.7309,4.7309,4.7309,4.7309,4.7309,4.7309,4.7309,4.7309,4.7309,4.7309,4.7309,4.7309,4.7309,4.7309,4.7309,4.7309,4.7309,4.7429,4.8057,4.8267,4.8536,4.9777,5.0166,5.0315,5.0973,5.1229,5.1229,5.1229,5.1229,5.1229,5.1229,5.2217,5.3144,5.3174,5.4221,5.5149,5.5179,5.5179,5.5179,5.5179,5.5179,5.5179,5.5179,5.5179,5.5179,5.5179,5.5179,5.5179,5.5179,5.5179,5.5179,5.5179,5.5179,5.5179,5.5179,5.5179,5.5179,5.5179,5.5179,5.5179,5.5179,5.5179,5.5179,5.5179,5.5179,5.5179,5.5179,5.5179,5.5179,0.0,0.0,4.4519,3.9749,0.0,0.0,0.0,0.0,0.0,0.0,0.0,0.0,0.0,0.0,0.0,0.0,0.0,0.0,0.0,0.0,0.0,0.0,0.0,0.0,0.0,0.0,0.0,0.0,0.0,0.0,0.0,4.0546,4.1773,4.2671,4.312,4.3917,4.5274,4.5304,4.5963,4.7309,4.7309,4.7309,4.7309,4.7309,4.7309,4.7309,4.7309,4.7309,4.7309,4.7309,4.7309,4.7309,4.7309,4.7309,4.7309,4.7309,4.7309,4.7309,4.7309,4.7578,4.7997,4.8207,4.8865,4.9628,5.0046,5.0495,5.0883,5.1169,5.1229,5.1229,5.1229,5.1229,5.1319,5.1768,5.2546,5.3294,5.3773,5.4551,5.5179,5.5179,5.5179,5.5179,5.5179,5.5179,5.5179,5.5179,5.5179,5.5179,5.5179,5.5179,5.5179,5.5179,5.5179,5.5179,5.5179,5.5179,5.5179,5.5179,5.5179,5.5179,5.5179,5.5179,5.5179,5.5179,5.5179,5.5179,5.5179,5.5179,5.5179,5.5179,5.5179,5.5179,4.55,4.6447,0.0,4.232,4.1271,0.0,3.596,0.0,0.0,0.0,0.0,0.0,0.0,0.0,0.0,0.0,0.0,0.0,0.0,0.0,0.0,0.0,0.0,0.0,0.0,0.0,3.0731,3.3036,0.0,0.0,0.0,0.0,4.1205,4.2351,4.3,4.3917,4.5274,4.5304,4.5963,4.7309,4.7309,4.7309,4.7309,4.7309,4.7309,4.7309,4.7309,4.7309,4.7309,4.7309,4.7309,4.7309,4.7309,4.7309,4.7309,4.7309,4.7309,4.7309,4.7309,4.7728,4.8327,4.8566,4.9374,5.0226,5.0465,5.0853,5.1229,5.1229,5.1229,5.1229,5.1229,5.1379,5.1678,5.2097,5.2875,5.3653,5.4132,5.473,5.5179,5.5179,5.5179,5.5179,5.5179,5.5179,5.5179,5.5179,5.5179,5.5179,5.5179,5.5179,5.5179,5.5179,5.5179,5.5179,5.5179,5.5179,5.5179,5.5179,5.5179,5.5179,5.5179,5.5179,5.5179,5.5179,5.5179,5.5179,5.5179,5.5179,5.5179,5.5179,5.5179,5.5179]}]]